[[{"header":{"parameterUnit":"m.s-1","parameterCategory":1,"la1":31.0,"la2":29.5877,"lo1":-88.7671,"lo2":-86.6584,"dy":0.0162,"dx":0.0185,"nx":115,"ny":88,"refTime":"2026-04-17T00:00:00:Z","depth":0,"parameterNumber":2,"parameterNumberName":"U-component_of_WINDS"},"data":[0.0,0.0,0.0,0.0,0.0,0.0,0.0,0.0,0.0,0.0,0.0,0.0,0.0,0.0,0.0,0.0,0.0,0.0,0.0,0.0,0.0,0.0,0.0,0.0,0.0,0.0,0.0,0.0,0.0,0.0,0.0,0.0,0.0,0.0,0.0,0.0,0.0,0.0,0.0,0.0,0.0,0.0,0.0,0.0,0.0,0.0,0.0,0.0,0.0,0.0,0.0,0.0,0.0,0.0,0.0,0.0,0.0,0.0,0.0,0.0,0.0,0.0,0.0,0.0,0.0,0.0,0.0,0.0,0.0,0.0,0.0,0.0,0.0,0.0,0.0,0.0,0.0,0.0,0.0,0.0,0.0,0.0,0.0,0.0,0.0,0.0,0.0,0.0,0.0,0.0,0.0,0.0,0.0,0.0,0.0,0.0,0.0,0.0,0.0,0.0,0.0,0.0,0.0,0.0,0.0,0.0,0.0,0.0,0.0,0.0,0.0,0.0,0.0,0.0,0.0,0.0,0.0,0.0,0.0,0.0,0.0,0.0,0.0,0.0,0.0,0.0,0.0,0.0,0.0,0.0,0.0,0.0,0.0,0.0,0.0,0.0,0.0,0.0,0.0,0.0,0.0,0.0,0.0,0.0,0.0,0.0,0.0,0.0,0.0,0.0,0.0,0.0,0.0,0.0,0.0,0.0,0.0,0.0,0.0,0.0,0.0,0.0,0.0,0.0,0.0,0.0,0.0,0.0,0.0,0.0,0.0,0.0,0.0,0.0,0.0,0.0,0.0,0.0,0.0,0.0,0.0,0.0,0.0,0.0,0.0,0.0,0.0,0.0,0.0,0.0,0.0,0.0,0.0,0.0,0.0,0.0,0.0,0.0,0.0,0.0,0.0,0.0,0.0,0.0,0.0,0.0,0.0,0.0,0.0,0.0,0.0,0.0,0.0,0.0,0.0,0.0,0.0,0.0,0.0,0.0,0.0,0.0,0.0,0.0,0.0,0.0,0.0,0.0,0.0,0.0,0.0,0.0,0.0,0.0,0.0,0.0,0.0,0.0,0.0,0.0,0.0,0.0,0.0,0.0,0.0,0.0,0.0,0.0,0.0,0.0,0.0,0.0,0.0,0.0,0.0,0.0,0.0,0.0,0.0,0.0,0.0,0.0,0.0,0.0,0.0,0.0,0.0,0.0,0.0,0.0,0.0,0.0,0.0,0.0,0.0,0.0,0.0,0.0,0.0,0.0,0.0,0.0,0.0,0.0,0.0,0.0,0.0,0.0,0.0,0.0,0.0,0.0,0.0,0.0,0.0,0.0,0.0,0.0,0.0,0.0,0.0,0.0,0.0,0.0,0.0,0.0,0.0,0.0,0.0,0.0,0.0,0.0,0.0,0.0,0.0,0.0,0.0,0.0,0.0,0.0,0.0,0.0,0.0,0.0,0.0,0.0,0.0,0.0,0.0,0.0,0.0,0.0,0.0,0.0,0.0,0.0,0.0,0.0,0.0,0.0,0.0,0.0,0.0,0.0,0.0,0.0,0.0,0.0,0.0,0.0,0.0,0.0,0.0,0.0,0.0,0.0,0.0,0.0,0.0,0.0,0.0,0.0,0.0,0.0,0.0,0.0,0.0,0.0,0.0,0.0,0.0,0.0,0.0,0.0,0.0,0.0,0.0,0.0,0.0,0.0,0.0,0.0,0.0,0.0,0.0,0.0,0.0,0.0,0.0,0.0,0.0,0.0,0.0,0.0,0.0,0.0,0.0,0.0,0.0,0.0,0.0,0.0,0.0,0.0,0.0,0.0,0.0,0.0,0.0,0.0,0.0,0.0,0.0,0.0,0.0,0.0,0.0,0.0,0.0,0.0,0.0,0.0,0.0,0.0,0.0,0.0,0.0,0.0,0.0,0.0,0.0,0.0,0.0,0.0,0.0,0.0,0.0,0.0,0.0,0.0,0.0,0.0,0.0,0.0,0.0,0.0,0.0,0.0,0.0,0.0,0.0,0.0,0.0,0.0,0.0,0.0,0.0,0.0,0.0,0.0,0.0,0.0,0.0,0.0,0.0,0.0,0.0,0.0,0.0,0.0,0.0,0.0,0.0,0.0,0.0,0.0,0.0,0.0,0.0,0.0,0.0,0.0,0.0,0.0,0.0,0.0,0.0,0.0,0.0,0.0,0.0,0.0,0.0,0.0,0.0,0.0,0.0,0.0,0.0,0.0,0.0,0.0,0.0,0.0,0.0,0.0,0.0,0.0,0.0,0.0,0.0,0.0,0.0,0.0,0.0,0.0,0.0,0.0,0.0,0.0,0.0,0.0,0.0,0.0,0.0,0.0,0.0,0.0,0.0,0.0,0.0,0.0,0.0,0.0,0.0,0.0,0.0,0.0,0.0,0.0,0.0,0.0,0.0,0.0,0.0,0.0,0.0,0.0,0.0,0.0,0.0,0.0,0.0,0.0,0.0,0.0,0.0,0.0,0.0,0.0,0.0,0.0,0.0,0.0,0.0,0.0,0.0,0.0,0.0,0.0,0.0,0.0,0.0,0.0,0.0,0.0,0.0,0.0,0.0,0.0,0.0,0.0,0.0,0.0,0.0,0.0,0.0,0.0,0.0,0.0,0.0,0.0,0.0,0.0,0.0,0.0,0.0,0.0,0.0,0.0,0.0,0.0,0.0,0.0,0.0,0.0,0.0,0.0,0.0,0.0,0.0,0.0,0.0,0.0,0.0,0.0,0.0,0.0,0.0,0.0,0.0,0.0,0.0,0.0,0.0,0.0,0.0,0.0,0.0,0.0,0.0,0.0,0.0,0.0,0.0,0.0,0.0,0.0,0.0,0.0,0.0,0.0,0.0,0.0,0.0,0.0,0.0,0.0,0.0,0.0,0.0,0.0,0.0,0.0,0.0,0.0,0.0,0.0,0.0,0.0,0.0,0.0,0.0,0.0,0.0,0.0,0.0,0.0,0.0,0.0,0.0,0.0,0.0,0.0,0.0,0.0,0.0,0.0,0.0,0.0,0.0,0.0,0.0,0.0,0.0,0.0,0.0,0.0,0.0,0.0,0.0,0.0,0.0,0.0,0.0,0.0,0.0,0.0,0.0,0.0,0.0,0.0,0.0,0.0,0.0,0.0,0.0,0.0,0.0,0.0,0.0,0.0,0.0,0.0,0.0,0.0,0.0,0.0,0.0,0.0,0.0,0.0,0.0,0.0,0.0,0.0,0.0,0.0,0.0,0.0,0.0,0.0,0.0,0.0,0.0,0.0,0.0,0.0,0.0,0.0,0.0,0.0,0.0,0.0,0.0,0.0,0.0,0.0,0.0,0.0,0.0,0.0,0.0,0.0,0.0,0.0,0.0,0.0,0.0,0.0,0.0,0.0,0.0,0.0,0.0,0.0,0.0,0.0,0.0,0.0,0.0,0.0,0.0,0.0,0.0,0.0,0.0,0.0,0.0,0.0,0.0,0.0,0.0,0.0,0.0,0.0,0.0,0.0,0.0,0.0,0.0,0.0,0.0,0.0,0.0,0.0,0.0,0.0,0.0,0.0,0.0,0.0,0.0,0.0,0.0,0.0,0.0,0.0,0.0,0.0,0.0,0.0,0.0,0.0,0.0,0.0,0.0,0.0,0.0,0.0,0.0,0.0,0.0,0.0,0.0,0.0,0.0,0.0,0.0,0.0,0.0,0.0,0.0,0.0,0.0,0.0,0.0,0.0,0.0,0.0,0.0,0.0,0.0,0.0,0.0,0.0,0.0,0.0,0.0,0.0,0.0,0.0,0.0,0.0,0.0,0.0,0.0,0.0,0.0,0.0,0.0,0.0,0.0,0.0,0.0,0.0,0.0,0.0,0.0,0.0,0.0,0.0,0.0,0.0,0.0,0.0,0.0,0.0,0.0,0.0,0.0,0.0,0.0,0.0,0.0,0.0,0.0,0.0,0.0,0.0,0.0,0.0,0.0,0.0,0.0,0.0,0.0,0.0,0.0,0.0,0.0,0.0,0.0,0.0,0.0,0.0,0.0,0.0,0.0,0.0,0.0,0.0,0.0,0.0,0.0,0.0,0.0,0.0,0.0,0.0,0.0,0.0,0.0,0.0,0.0,0.0,0.0,0.0,0.0,0.0,0.0,0.0,0.0,0.0,0.0,0.0,0.0,0.0,0.0,0.0,0.0,0.0,0.0,0.0,0.0,0.0,0.0,0.0,0.0,0.0,0.0,0.0,0.0,0.0,0.0,0.0,0.0,0.0,0.0,0.0,0.0,0.0,0.0,0.0,0.0,0.0,-3.4321,0.0,0.0,0.0,0.0,0.0,0.0,0.0,0.0,0.0,0.0,0.0,0.0,0.0,0.0,0.0,0.0,0.0,0.0,0.0,0.0,0.0,0.0,0.0,0.0,0.0,0.0,0.0,0.0,0.0,0.0,0.0,0.0,0.0,0.0,0.0,0.0,0.0,0.0,0.0,0.0,0.0,0.0,0.0,0.0,0.0,0.0,0.0,0.0,0.0,0.0,0.0,0.0,0.0,0.0,0.0,0.0,0.0,0.0,0.0,0.0,0.0,0.0,0.0,0.0,0.0,0.0,0.0,0.0,0.0,0.0,0.0,0.0,0.0,0.0,0.0,0.0,0.0,0.0,0.0,0.0,0.0,0.0,0.0,0.0,0.0,0.0,0.0,0.0,0.0,0.0,0.0,0.0,0.0,0.0,0.0,0.0,0.0,0.0,0.0,0.0,0.0,0.0,0.0,0.0,0.0,0.0,0.0,0.0,0.0,0.0,-3.4023,-3.4136,-3.4221,-3.4029,-3.3474,0.0,0.0,0.0,0.0,0.0,0.0,0.0,0.0,0.0,0.0,0.0,0.0,0.0,0.0,0.0,0.0,0.0,0.0,0.0,0.0,0.0,0.0,0.0,0.0,0.0,0.0,0.0,0.0,0.0,0.0,0.0,0.0,0.0,0.0,0.0,0.0,0.0,0.0,0.0,0.0,0.0,0.0,0.0,0.0,0.0,0.0,0.0,0.0,0.0,0.0,0.0,0.0,0.0,0.0,0.0,0.0,0.0,0.0,0.0,0.0,0.0,0.0,0.0,0.0,0.0,0.0,0.0,0.0,0.0,0.0,0.0,0.0,0.0,0.0,0.0,0.0,0.0,0.0,0.0,0.0,0.0,0.0,0.0,0.0,0.0,0.0,0.0,0.0,0.0,0.0,0.0,0.0,0.0,0.0,0.0,0.0,0.0,0.0,0.0,0.0,0.0,0.0,0.0,0.0,0.0,0.0,0.0,0.0,0.0,0.0,0.0,0.0,-3.4526,-3.4046,-3.3025,0.0,0.0,0.0,0.0,0.0,0.0,0.0,0.0,0.0,0.0,0.0,0.0,0.0,0.0,0.0,0.0,0.0,0.0,0.0,0.0,0.0,0.0,0.0,0.0,0.0,0.0,0.0,0.0,0.0,0.0,0.0,0.0,0.0,0.0,0.0,0.0,0.0,0.0,0.0,0.0,0.0,0.0,0.0,0.0,0.0,0.0,0.0,0.0,0.0,0.0,0.0,0.0,0.0,0.0,0.0,0.0,0.0,0.0,0.0,0.0,0.0,0.0,0.0,0.0,0.0,0.0,0.0,0.0,0.0,0.0,0.0,0.0,0.0,0.0,0.0,0.0,0.0,0.0,0.0,0.0,0.0,0.0,0.0,0.0,0.0,0.0,0.0,0.0,0.0,0.0,0.0,0.0,0.0,0.0,0.0,0.0,0.0,0.0,0.0,0.0,0.0,0.0,0.0,0.0,0.0,0.0,0.0,0.0,0.0,0.0,-3.4412,-3.5857,-3.6062,0.0,-3.3758,0.0,0.0,0.0,0.0,0.0,0.0,0.0,0.0,0.0,0.0,0.0,0.0,0.0,0.0,0.0,0.0,0.0,0.0,0.0,0.0,0.0,0.0,0.0,0.0,0.0,0.0,0.0,0.0,0.0,0.0,0.0,0.0,0.0,0.0,0.0,0.0,0.0,0.0,0.0,0.0,0.0,0.0,0.0,0.0,0.0,0.0,0.0,0.0,0.0,0.0,0.0,0.0,0.0,0.0,0.0,0.0,0.0,0.0,0.0,0.0,0.0,0.0,0.0,0.0,0.0,0.0,0.0,0.0,0.0,0.0,0.0,0.0,0.0,0.0,0.0,0.0,0.0,0.0,0.0,0.0,0.0,0.0,0.0,0.0,0.0,0.0,0.0,0.0,0.0,0.0,0.0,0.0,0.0,0.0,0.0,0.0,0.0,0.0,0.0,0.0,0.0,0.0,0.0,0.0,0.0,0.0,0.0,0.0,0.0,0.0,-3.5269,-3.5924,-3.5086,-3.428,0.0,0.0,0.0,0.0,0.0,0.0,0.0,0.0,0.0,0.0,0.0,0.0,0.0,0.0,0.0,0.0,0.0,0.0,0.0,0.0,0.0,0.0,0.0,0.0,0.0,0.0,0.0,0.0,0.0,0.0,0.0,0.0,0.0,0.0,0.0,0.0,0.0,0.0,0.0,0.0,0.0,0.0,0.0,0.0,0.0,0.0,0.0,0.0,0.0,0.0,0.0,0.0,0.0,0.0,0.0,0.0,0.0,0.0,0.0,0.0,0.0,0.0,0.0,0.0,0.0,0.0,0.0,0.0,0.0,0.0,0.0,0.0,0.0,0.0,0.0,0.0,0.0,0.0,0.0,0.0,0.0,0.0,0.0,0.0,0.0,0.0,0.0,0.0,0.0,0.0,0.0,0.0,0.0,0.0,0.0,0.0,0.0,0.0,0.0,0.0,0.0,0.0,0.0,0.0,0.0,0.0,0.0,0.0,0.0,0.0,-3.5439,0.0,-3.6073,-3.5222,-3.4208,-3.3121,0.0,0.0,0.0,0.0,0.0,0.0,0.0,0.0,0.0,0.0,0.0,0.0,0.0,0.0,0.0,0.0,0.0,0.0,0.0,0.0,0.0,0.0,0.0,0.0,0.0,0.0,0.0,0.0,0.0,0.0,0.0,0.0,0.0,0.0,0.0,0.0,0.0,0.0,0.0,0.0,0.0,0.0,0.0,0.0,0.0,0.0,0.0,0.0,0.0,0.0,0.0,0.0,0.0,0.0,0.0,0.0,0.0,0.0,0.0,0.0,0.0,0.0,0.0,0.0,0.0,0.0,0.0,0.0,0.0,0.0,0.0,0.0,0.0,0.0,0.0,0.0,0.0,0.0,0.0,0.0,0.0,0.0,0.0,0.0,0.0,0.0,0.0,0.0,0.0,0.0,0.0,0.0,0.0,0.0,0.0,0.0,0.0,0.0,0.0,0.0,0.0,0.0,0.0,0.0,0.0,0.0,0.0,0.0,0.0,-3.6526,-3.6182,-3.6977,-3.7593,-3.618,0.0,0.0,0.0,0.0,0.0,0.0,0.0,0.0,0.0,0.0,0.0,0.0,0.0,0.0,0.0,0.0,0.0,0.0,0.0,0.0,0.0,0.0,0.0,0.0,0.0,0.0,0.0,0.0,0.0,0.0,0.0,0.0,0.0,0.0,0.0,0.0,0.0,0.0,0.0,0.0,0.0,0.0,0.0,0.0,0.0,0.0,0.0,0.0,0.0,0.0,0.0,0.0,0.0,0.0,0.0,0.0,0.0,0.0,0.0,0.0,0.0,0.0,0.0,0.0,0.0,0.0,0.0,0.0,0.0,0.0,0.0,0.0,0.0,0.0,0.0,0.0,0.0,0.0,0.0,0.0,0.0,0.0,0.0,0.0,0.0,0.0,0.0,0.0,0.0,0.0,0.0,0.0,0.0,0.0,0.0,0.0,0.0,0.0,0.0,0.0,0.0,0.0,0.0,0.0,0.0,0.0,0.0,0.0,0.0,-3.4298,-3.5294,-3.6906,-3.9043,-3.6091,-3.4135,0.0,0.0,0.0,0.0,0.0,0.0,0.0,0.0,0.0,0.0,0.0,0.0,0.0,0.0,0.0,0.0,0.0,0.0,0.0,0.0,0.0,0.0,0.0,0.0,0.0,0.0,0.0,0.0,0.0,0.0,0.0,0.0,0.0,0.0,0.0,0.0,0.0,0.0,0.0,0.0,0.0,0.0,0.0,0.0,0.0,0.0,0.0,0.0,0.0,0.0,0.0,0.0,0.0,0.0,0.0,0.0,0.0,0.0,0.0,0.0,0.0,0.0,0.0,0.0,0.0,0.0,0.0,0.0,0.0,0.0,0.0,0.0,0.0,0.0,0.0,0.0,0.0,0.0,0.0,0.0,0.0,0.0,0.0,0.0,0.0,0.0,0.0,0.0,0.0,0.0,0.0,0.0,0.0,0.0,0.0,0.0,0.0,0.0,0.0,0.0,0.0,0.0,0.0,0.0,0.0,0.0,0.0,0.0,0.0,-3.3357,0.0,-3.7505,0.0,-3.4969,-3.2904,0.0,0.0,0.0,0.0,0.0,0.0,0.0,0.0,0.0,0.0,0.0,0.0,0.0,0.0,0.0,0.0,0.0,0.0,0.0,0.0,0.0,0.0,0.0,0.0,0.0,0.0,0.0,0.0,0.0,0.0,0.0,0.0,0.0,0.0,0.0,0.0,0.0,0.0,0.0,0.0,0.0,0.0,0.0,0.0,0.0,0.0,0.0,0.0,0.0,0.0,0.0,0.0,0.0,0.0,0.0,0.0,0.0,0.0,0.0,0.0,0.0,0.0,0.0,0.0,0.0,0.0,0.0,0.0,0.0,0.0,0.0,0.0,0.0,0.0,0.0,0.0,0.0,0.0,0.0,0.0,0.0,0.0,0.0,0.0,0.0,0.0,0.0,0.0,0.0,0.0,0.0,0.0,0.0,0.0,0.0,0.0,0.0,0.0,0.0,0.0,0.0,0.0,0.0,0.0,0.0,0.0,0.0,0.0,-3.256,-3.5605,-3.7975,-3.7812,-3.4863,-3.4606,-3.269,0.0,0.0,0.0,0.0,0.0,0.0,0.0,0.0,0.0,0.0,0.0,0.0,0.0,0.0,0.0,0.0,0.0,0.0,0.0,0.0,0.0,0.0,0.0,0.0,0.0,0.0,0.0,0.0,0.0,0.0,0.0,0.0,0.0,0.0,0.0,0.0,0.0,0.0,0.0,0.0,0.0,0.0,0.0,0.0,0.0,0.0,0.0,0.0,0.0,0.0,0.0,0.0,0.0,0.0,0.0,0.0,0.0,0.0,0.0,0.0,0.0,0.0,0.0,0.0,0.0,0.0,0.0,0.0,0.0,0.0,0.0,0.0,0.0,0.0,0.0,0.0,0.0,0.0,0.0,0.0,0.0,0.0,0.0,0.0,0.0,0.0,0.0,0.0,0.0,0.0,0.0,0.0,0.0,0.0,0.0,0.0,0.0,0.0,0.0,0.0,0.0,0.0,0.0,0.0,0.0,0.0,0.0,0.0,0.0,-3.3357,-3.5675,-3.7469,-3.8447,-3.4407,-3.2325,0.0,0.0,0.0,0.0,0.0,0.0,0.0,0.0,0.0,0.0,0.0,0.0,0.0,0.0,0.0,0.0,0.0,0.0,0.0,0.0,0.0,0.0,0.0,0.0,0.0,0.0,0.0,0.0,0.0,0.0,0.0,0.0,0.0,0.0,0.0,0.0,0.0,0.0,0.0,0.0,0.0,0.0,0.0,0.0,0.0,0.0,0.0,0.0,0.0,0.0,0.0,0.0,0.0,0.0,0.0,0.0,0.0,0.0,0.0,0.0,0.0,0.0,0.0,0.0,0.0,0.0,0.0,0.0,0.0,0.0,0.0,0.0,0.0,0.0,0.0,0.0,0.0,0.0,0.0,0.0,0.0,0.0,0.0,0.0,0.0,0.0,0.0,0.0,0.0,0.0,0.0,0.0,0.0,0.0,0.0,0.0,0.0,0.0,0.0,0.0,0.0,0.0,0.0,0.0,0.0,0.0,0.0,0.0,0.0,-3.4531,-3.649,-3.8211,-3.9623,-3.4606,-3.2162,-3.2687,0.0,0.0,0.0,0.0,0.0,0.0,0.0,0.0,0.0,0.0,0.0,0.0,0.0,0.0,0.0,0.0,0.0,0.0,0.0,0.0,0.0,0.0,0.0,0.0,0.0,0.0,0.0,0.0,0.0,0.0,0.0,0.0,0.0,0.0,0.0,0.0,0.0,0.0,0.0,0.0,0.0,0.0,0.0,0.0,0.0,0.0,0.0,0.0,0.0,0.0,0.0,0.0,0.0,0.0,0.0,0.0,0.0,0.0,0.0,0.0,0.0,0.0,0.0,0.0,0.0,0.0,0.0,0.0,0.0,0.0,0.0,0.0,0.0,0.0,0.0,0.0,0.0,0.0,0.0,0.0,0.0,0.0,0.0,0.0,0.0,0.0,0.0,0.0,0.0,0.0,0.0,0.0,0.0,0.0,0.0,0.0,0.0,0.0,0.0,0.0,0.0,0.0,0.0,0.0,0.0,0.0,0.0,0.0,-3.8281,-3.9876,-4.0021,-3.8625,-3.5367,-3.2506,0.0,0.0,0.0,0.0,0.0,0.0,0.0,0.0,0.0,0.0,0.0,0.0,0.0,0.0,0.0,0.0,0.0,0.0,0.0,0.0,0.0,0.0,0.0,0.0,0.0,0.0,0.0,0.0,0.0,0.0,0.0,0.0,0.0,0.0,0.0,0.0,0.0,0.0,0.0,0.0,0.0,0.0,0.0,0.0,0.0,0.0,0.0,0.0,0.0,0.0,0.0,0.0,0.0,0.0,0.0,0.0,0.0,0.0,0.0,0.0,0.0,0.0,0.0,0.0,0.0,0.0,0.0,0.0,0.0,0.0,0.0,0.0,0.0,0.0,0.0,0.0,0.0,0.0,0.0,0.0,0.0,0.0,0.0,0.0,0.0,0.0,0.0,0.0,0.0,0.0,0.0,0.0,0.0,0.0,0.0,0.0,0.0,0.0,0.0,0.0,0.0,0.0,0.0,0.0,0.0,0.0,0.0,0.0,0.0,-3.9822,-4.2031,-4.2973,-4.2466,-3.8354,-3.5476,0.0,0.0,0.0,0.0,0.0,0.0,0.0,0.0,0.0,0.0,0.0,0.0,0.0,0.0,0.0,0.0,0.0,0.0,0.0,0.0,0.0,0.0,0.0,0.0,0.0,0.0,0.0,0.0,0.0,0.0,0.0,0.0,0.0,0.0,0.0,0.0,0.0,0.0,0.0,0.0,0.0,0.0,0.0,0.0,0.0,0.0,0.0,0.0,0.0,0.0,0.0,0.0,0.0,0.0,0.0,0.0,0.0,0.0,0.0,0.0,0.0,0.0,0.0,0.0,0.0,0.0,0.0,0.0,0.0,0.0,0.0,0.0,0.0,0.0,0.0,0.0,0.0,0.0,0.0,0.0,0.0,0.0,0.0,0.0,0.0,0.0,0.0,0.0,0.0,0.0,0.0,0.0,0.0,0.0,0.0,0.0,0.0,0.0,0.0,0.0,0.0,0.0,0.0,0.0,0.0,0.0,0.0,0.0,-3.8337,-4.1452,-4.386,-4.4947,-4.4603,-4.0963,-3.7631,0.0,0.0,0.0,0.0,0.0,0.0,0.0,0.0,0.0,0.0,0.0,0.0,0.0,0.0,0.0,0.0,0.0,0.0,0.0,0.0,0.0,0.0,0.0,0.0,0.0,0.0,0.0,0.0,0.0,0.0,0.0,0.0,0.0,0.0,0.0,0.0,0.0,0.0,0.0,0.0,0.0,0.0,0.0,0.0,0.0,0.0,0.0,0.0,0.0,0.0,0.0,0.0,0.0,0.0,0.0,0.0,0.0,0.0,0.0,0.0,0.0,0.0,0.0,0.0,0.0,0.0,0.0,0.0,0.0,0.0,0.0,0.0,0.0,0.0,0.0,0.0,0.0,0.0,0.0,0.0,0.0,0.0,0.0,0.0,0.0,0.0,0.0,0.0,0.0,0.0,0.0,0.0,0.0,0.0,0.0,0.0,0.0,0.0,0.0,0.0,0.0,0.0,0.0,0.0,0.0,0.0,0.0,0.0,-3.9894,-4.2865,-4.5345,-4.6196,-4.5273,-4.2954,-3.9171,0.0,0.0,0.0,0.0,0.0,0.0,0.0,0.0,0.0,0.0,0.0,0.0,0.0,0.0,0.0,0.0,0.0,0.0,0.0,0.0,0.0,0.0,0.0,0.0,0.0,0.0,0.0,0.0,0.0,0.0,0.0,0.0,0.0,0.0,0.0,0.0,0.0,0.0,0.0,0.0,0.0,0.0,0.0,0.0,0.0,0.0,0.0,0.0,0.0,0.0,0.0,0.0,0.0,0.0,0.0,0.0,0.0,0.0,0.0,0.0,0.0,0.0,0.0,0.0,0.0,0.0,0.0,0.0,0.0,0.0,0.0,0.0,0.0,0.0,0.0,0.0,0.0,0.0,0.0,0.0,0.0,0.0,0.0,0.0,0.0,0.0,0.0,0.0,0.0,0.0,0.0,0.0,0.0,0.0,0.0,0.0,0.0,0.0,0.0,0.0,0.0,0.0,0.0,0.0,0.0,0.0,0.0,0.0,-4.0944,-4.2864,-4.587,-4.6757,-4.5327,-4.2954,-3.9677,0.0,0.0,0.0,0.0,0.0,0.0,0.0,0.0,0.0,0.0,0.0,0.0,0.0,0.0,0.0,0.0,0.0,0.0,0.0,0.0,0.0,0.0,0.0,0.0,0.0,0.0,0.0,0.0,0.0,0.0,0.0,0.0,0.0,0.0,0.0,0.0,0.0,0.0,0.0,0.0,0.0,0.0,0.0,0.0,0.0,0.0,0.0,0.0,-2.584,0.0,0.0,0.0,0.0,0.0,0.0,0.0,0.0,0.0,0.0,0.0,0.0,0.0,0.0,0.0,0.0,0.0,0.0,0.0,0.0,0.0,0.0,0.0,0.0,0.0,0.0,0.0,0.0,0.0,0.0,0.0,0.0,0.0,0.0,0.0,0.0,0.0,0.0,0.0,0.0,0.0,0.0,0.0,0.0,0.0,0.0,0.0,0.0,0.0,0.0,0.0,0.0,0.0,0.0,0.0,0.0,0.0,0.0,0.0,-4.185,-4.3462,-4.6232,-4.6939,-4.5345,-4.3697,-4.0619,0.0,0.0,0.0,0.0,0.0,0.0,0.0,0.0,0.0,0.0,0.0,0.0,0.0,0.0,0.0,0.0,0.0,0.0,0.0,0.0,0.0,0.0,0.0,0.0,0.0,0.0,0.0,0.0,0.0,0.0,0.0,0.0,0.0,0.0,0.0,0.0,0.0,0.0,0.0,0.0,0.0,0.0,0.0,0.0,0.0,0.0,0.0,0.0,0.0,0.0,0.0,0.0,0.0,0.0,0.0,0.0,0.0,0.0,0.0,0.0,0.0,0.0,0.0,0.0,0.0,0.0,0.0,0.0,0.0,0.0,0.0,0.0,0.0,0.0,0.0,0.0,0.0,0.0,0.0,0.0,0.0,0.0,0.0,0.0,0.0,0.0,0.0,0.0,0.0,0.0,0.0,0.0,0.0,0.0,0.0,0.0,0.0,0.0,0.0,0.0,0.0,0.0,0.0,0.0,0.0,0.0,0.0,-3.8591,-4.2411,-4.4277,-4.6522,-4.6939,-4.5345,-4.453,-4.1488,-3.6039,0.0,0.0,0.0,0.0,0.0,0.0,0.0,0.0,0.0,0.0,0.0,0.0,0.0,0.0,0.0,0.0,0.0,0.0,0.0,0.0,0.0,0.0,0.0,0.0,0.0,0.0,0.0,0.0,0.0,0.0,0.0,0.0,0.0,0.0,0.0,0.0,0.0,0.0,-2.3399,-2.613,0.0,0.0,0.0,0.0,0.0,0.0,0.0,0.0,-2.6121,0.0,0.0,0.0,0.0,0.0,0.0,0.0,0.0,0.0,0.0,0.0,0.0,0.0,0.0,0.0,0.0,0.0,0.0,0.0,0.0,0.0,0.0,0.0,0.0,0.0,0.0,0.0,0.0,0.0,0.0,0.0,0.0,0.0,0.0,0.0,0.0,0.0,0.0,0.0,0.0,0.0,0.0,0.0,0.0,0.0,0.0,0.0,0.0,0.0,0.0,0.0,0.0,0.0,0.0,0.0,0.0,-3.6143,-3.9188,-4.214,-4.5055,-4.6812,-4.6939,-4.5345,-4.4512,-4.1488,-3.6093,0.0,0.0,0.0,0.0,0.0,0.0,0.0,0.0,0.0,0.0,0.0,0.0,0.0,0.0,0.0,0.0,0.0,0.0,0.0,0.0,0.0,0.0,0.0,0.0,0.0,0.0,0.0,0.0,0.0,0.0,0.0,0.0,0.0,0.0,0.0,0.0,0.0,0.0,0.0,-2.8934,-2.9704,0.0,0.0,0.0,0.0,0.0,0.0,0.0,0.0,-2.5591,0.0,0.0,0.0,0.0,0.0,0.0,0.0,0.0,0.0,0.0,0.0,0.0,0.0,0.0,0.0,0.0,0.0,0.0,0.0,0.0,0.0,0.0,0.0,0.0,0.0,0.0,0.0,0.0,0.0,0.0,0.0,0.0,0.0,0.0,0.0,0.0,0.0,0.0,0.0,0.0,0.0,0.0,0.0,0.0,0.0,0.0,0.0,0.0,0.0,0.0,0.0,0.0,0.0,0.0,0.0,-3.5729,-3.9695,-4.29,-4.5236,-4.6468,-4.6504,-4.5291,-4.3317,-4.0202,0.0,0.0,0.0,0.0,0.0,0.0,0.0,0.0,0.0,0.0,0.0,0.0,0.0,0.0,0.0,0.0,0.0,0.0,0.0,0.0,0.0,0.0,0.0,0.0,0.0,0.0,0.0,0.0,0.0,0.0,0.0,0.0,0.0,0.0,0.0,0.0,0.0,0.0,0.0,0.0,-2.9334,-3.009,-3.009,0.0,0.0,0.0,0.0,0.0,0.0,-2.67,-2.5981,0.0,0.0,0.0,0.0,0.0,0.0,0.0,0.0,0.0,0.0,0.0,0.0,0.0,0.0,0.0,0.0,0.0,0.0,0.0,0.0,0.0,0.0,0.0,0.0,0.0,0.0,0.0,0.0,0.0,0.0,0.0,0.0,0.0,0.0,0.0,0.0,0.0,0.0,0.0,0.0,0.0,0.0,0.0,0.0,0.0,0.0,0.0,0.0,0.0,0.0,0.0,0.0,0.0,0.0,0.0,-3.4661,-3.9604,-4.3118,-4.4983,-4.5834,-4.587,-4.5019,-4.2103,-3.8935,0.0,0.0,0.0,0.0,0.0,0.0,0.0,0.0,0.0,0.0,0.0,0.0,0.0,0.0,0.0,0.0,0.0,0.0,0.0,0.0,0.0,0.0,0.0,0.0,0.0,0.0,0.0,0.0,0.0,0.0,0.0,0.0,0.0,0.0,0.0,0.0,0.0,0.0,0.0,0.0,0.0,-3.0844,-3.0387,-3.0334,0.0,0.0,0.0,0.0,-2.8351,-2.7912,0.0,0.0,0.0,0.0,0.0,0.0,0.0,0.0,0.0,0.0,0.0,0.0,0.0,0.0,0.0,0.0,0.0,0.0,0.0,0.0,0.0,0.0,0.0,0.0,0.0,0.0,0.0,0.0,0.0,0.0,0.0,0.0,0.0,0.0,0.0,0.0,0.0,0.0,0.0,0.0,0.0,0.0,0.0,0.0,0.0,0.0,0.0,0.0,0.0,0.0,0.0,0.0,0.0,0.0,0.0,0.0,-3.4555,-3.8029,-4.1234,-4.4095,-4.5019,-4.5055,-4.4222,-4.1814,-3.87,0.0,0.0,0.0,0.0,0.0,0.0,0.0,0.0,0.0,0.0,0.0,0.0,0.0,0.0,0.0,0.0,0.0,0.0,0.0,0.0,0.0,0.0,0.0,0.0,0.0,0.0,0.0,0.0,0.0,0.0,0.0,0.0,0.0,0.0,0.0,0.0,0.0,0.0,0.0,0.0,0.0,-3.3424,-3.1369,-3.1072,-3.0738,0.0,0.0,-2.9246,-3.058,-3.072,0.0,0.0,0.0,0.0,0.0,0.0,0.0,0.0,0.0,0.0,0.0,0.0,0.0,0.0,0.0,0.0,0.0,0.0,0.0,0.0,0.0,0.0,0.0,0.0,0.0,0.0,0.0,0.0,0.0,0.0,0.0,0.0,0.0,0.0,0.0,0.0,0.0,0.0,0.0,0.0,0.0,0.0,0.0,0.0,0.0,0.0,0.0,0.0,0.0,0.0,0.0,0.0,0.0,0.0,0.0,-3.1039,-3.4588,-3.8645,-4.1814,-4.4005,-4.444,-4.424,-4.3445,-4.0238,-3.7053,0.0,0.0,0.0,0.0,0.0,0.0,0.0,0.0,0.0,0.0,0.0,0.0,0.0,0.0,0.0,0.0,0.0,0.0,0.0,0.0,0.0,0.0,0.0,0.0,0.0,0.0,0.0,0.0,0.0,0.0,0.0,0.0,0.0,0.0,0.0,0.0,0.0,0.0,0.0,0.0,0.0,0.0,-3.1949,-3.223,0.0,0.0,0.0,-3.1124,-3.1774,0.0,0.0,0.0,0.0,0.0,0.0,0.0,0.0,0.0,0.0,0.0,0.0,0.0,0.0,0.0,0.0,0.0,0.0,0.0,0.0,0.0,0.0,0.0,0.0,0.0,0.0,0.0,0.0,0.0,0.0,0.0,0.0,0.0,0.0,0.0,0.0,0.0,0.0,0.0,0.0,0.0,0.0,0.0,0.0,0.0,0.0,0.0,0.0,0.0,0.0,0.0,0.0,0.0,0.0,0.0,0.0,0.0,-3.4301,-3.8809,-4.1886,-4.3444,-4.3697,-4.3425,-4.2574,-3.9134,0.0,0.0,0.0,0.0,0.0,0.0,0.0,0.0,0.0,0.0,0.0,0.0,0.0,0.0,0.0,0.0,0.0,0.0,0.0,0.0,0.0,0.0,0.0,0.0,0.0,0.0,0.0,-1.4115,0.0,0.0,0.0,0.0,0.0,0.0,0.0,0.0,0.0,0.0,0.0,0.0,0.0,0.0,-3.1633,-3.2055,-3.3073,-3.3862,0.0,0.0,-3.2897,-3.2704,-3.2493,-3.1282,0.0,0.0,0.0,0.0,0.0,0.0,0.0,0.0,0.0,0.0,0.0,0.0,0.0,0.0,0.0,0.0,0.0,0.0,0.0,0.0,0.0,0.0,0.0,0.0,0.0,0.0,0.0,0.0,0.0,0.0,0.0,0.0,0.0,0.0,0.0,0.0,0.0,0.0,0.0,0.0,0.0,0.0,0.0,0.0,0.0,0.0,0.0,0.0,0.0,0.0,0.0,0.0,0.0,0.0,0.0,-3.3484,-3.7486,-4.0311,-4.1813,-4.2611,-4.2592,-4.1759,-3.9282,-3.6138,0.0,0.0,0.0,0.0,0.0,0.0,0.0,0.0,0.0,0.0,0.0,0.0,0.0,0.0,0.0,0.0,0.0,0.0,0.0,0.0,0.0,0.0,0.0,0.0,0.0,0.0,0.0,0.0,0.0,0.0,0.0,0.0,0.0,0.0,0.0,0.0,0.0,0.0,0.0,0.0,0.0,-3.2055,-3.137,-3.3178,-3.4846,0.0,0.0,-3.4302,-3.3529,-3.4582,-3.3704,-2.8544,0.0,0.0,0.0,0.0,0.0,0.0,0.0,0.0,0.0,0.0,0.0,0.0,0.0,0.0,0.0,0.0,0.0,0.0,0.0,0.0,0.0,0.0,0.0,0.0,0.0,0.0,0.0,0.0,0.0,0.0,0.0,0.0,0.0,0.0,0.0,0.0,0.0,0.0,0.0,0.0,0.0,0.0,0.0,0.0,0.0,0.0,0.0,0.0,0.0,0.0,0.0,0.0,0.0,-2.9437,-3.2578,-3.6533,-3.9282,-4.0762,-4.1178,-4.098,-4.0167,-3.834,-3.5718,0.0,0.0,0.0,0.0,0.0,0.0,0.0,0.0,0.0,0.0,0.0,0.0,0.0,0.0,0.0,0.0,0.0,0.0,0.0,0.0,0.0,0.0,0.0,0.0,0.0,0.0,0.0,0.0,-1.7306,-1.7531,-1.7181,0.0,0.0,0.0,0.0,0.0,0.0,0.0,0.0,0.0,0.0,-3.1425,-3.2247,-3.3536,0.0,0.0,-3.4739,-3.4038,-3.4214,-3.3915,-3.2529,-2.9,-2.742,0.0,0.0,0.0,0.0,0.0,0.0,0.0,0.0,0.0,0.0,0.0,0.0,0.0,0.0,0.0,0.0,0.0,0.0,0.0,0.0,0.0,0.0,0.0,0.0,0.0,0.0,0.0,0.0,0.0,0.0,0.0,0.0,0.0,0.0,0.0,0.0,0.0,0.0,0.0,0.0,0.0,0.0,0.0,0.0,0.0,0.0,0.0,0.0,0.0,0.0,0.0,0.0,-2.861,-3.1747,-3.5686,-3.8469,-3.9986,-4.0275,-3.9914,-3.8902,-3.7618,-3.5286,0.0,0.0,0.0,0.0,0.0,0.0,0.0,0.0,0.0,0.0,0.0,0.0,0.0,0.0,0.0,0.0,0.0,0.0,0.0,0.0,0.0,0.0,0.0,0.0,0.0,0.0,0.0,0.0,-1.7861,-1.7704,-1.6998,0.0,0.0,0.0,0.0,0.0,0.0,0.0,0.0,0.0,0.0,-3.0891,-3.2515,-3.3575,-3.4486,-3.5351,-3.4353,-3.3617,-3.395,-3.3108,-3.1528,-2.8965,0.0,0.0,0.0,0.0,0.0,0.0,0.0,0.0,0.0,0.0,0.0,0.0,0.0,0.0,0.0,0.0,0.0,0.0,0.0,0.0,0.0,0.0,0.0,0.0,0.0,0.0,0.0,0.0,0.0,0.0,0.0,0.0,0.0,0.0,0.0,0.0,0.0,0.0,0.0,0.0,0.0,0.0,0.0,0.0,0.0,0.0,0.0,0.0,0.0,0.0,0.0,0.0,0.0,-2.7834,-3.1021,-3.4987,-3.7775,-3.9352,-4.0041,-3.9661,-3.8264,-3.7228,-3.4923,-3.1111,0.0,0.0,0.0,0.0,0.0,0.0,0.0,0.0,0.0,0.0,0.0,0.0,0.0,0.0,0.0,0.0,0.0,0.0,0.0,0.0,0.0,0.0,0.0,0.0,0.0,0.0,-1.795,-1.7297,-1.6519,0.0,0.0,0.0,0.0,0.0,0.0,0.0,0.0,0.0,0.0,-2.8268,-3.0702,-3.1788,-3.323,-3.4281,-3.4651,-3.4021,-3.3248,-3.2599,-3.2423,-3.1335,0.0,0.0,0.0,0.0,0.0,0.0,0.0,0.0,0.0,0.0,0.0,0.0,0.0,0.0,0.0,0.0,0.0,0.0,0.0,0.0,0.0,0.0,0.0,0.0,0.0,0.0,0.0,-2.9192,-2.8136,0.0,0.0,0.0,0.0,0.0,0.0,0.0,0.0,0.0,0.0,0.0,-3.1767,-3.1799,0.0,0.0,0.0,0.0,0.0,0.0,0.0,0.0,0.0,0.0,0.0,0.0,-2.7964,-3.1498,-3.4492,-3.671,-3.8169,-3.8474,-3.8151,-3.7161,-3.6385,-3.3908,-2.9541,0.0,0.0,0.0,0.0,0.0,0.0,0.0,0.0,0.0,0.0,0.0,0.0,0.0,0.0,0.0,0.0,0.0,0.0,0.0,0.0,0.0,0.0,0.0,0.0,0.0,-1.767,0.0,0.0,0.0,0.0,0.0,0.0,0.0,0.0,0.0,0.0,0.0,-2.3911,-2.508,-2.7818,-3.0179,-3.1461,-3.246,-3.3287,0.0,0.0,0.0,0.0,0.0,0.0,0.0,0.0,0.0,0.0,0.0,0.0,0.0,0.0,-2.663,-2.3014,-2.2977,-2.3033,-2.1685,0.0,0.0,0.0,0.0,0.0,0.0,0.0,0.0,0.0,0.0,0.0,0.0,0.0,0.0,0.0,0.0,-2.9663,0.0,0.0,0.0,0.0,0.0,0.0,0.0,0.0,-3.2466,-3.3502,-3.4226,-3.4244,-3.3954,0.0,-3.2144,-3.0025,0.0,0.0,0.0,0.0,0.0,0.0,0.0,0.0,-2.8361,-3.1858,-3.4351,-3.6332,-3.7721,-3.7541,-3.7037,-3.6335,-3.5083,-3.2708,-2.906,-2.7145,-2.4928,0.0,0.0,0.0,0.0,0.0,0.0,0.0,0.0,0.0,0.0,0.0,0.0,0.0,0.0,0.0,0.0,0.0,0.0,0.0,0.0,0.0,0.0,0.0,-1.7747,0.0,0.0,0.0,0.0,0.0,0.0,0.0,0.0,0.0,-2.0886,-2.3213,-2.5178,-2.6138,-2.8307,-3.0206,-3.1342,0.0,0.0,0.0,0.0,0.0,0.0,0.0,-3.0404,-3.0141,-2.9439,-2.8737,-2.821,-2.8789,-2.9228,-2.8947,0.0,0.0,-2.5448,-2.532,-2.5443,-2.435,-2.4871,-2.549,-2.5461,-2.5624,-2.5661,0.0,0.0,0.0,0.0,0.0,0.0,0.0,0.0,-3.4945,-3.4374,0.0,-3.2723,0.0,0.0,0.0,0.0,0.0,0.0,0.0,0.0,-3.5799,-3.6544,-3.5894,-3.5876,-3.5876,-3.5912,-3.6524,-3.5654,-3.3176,-2.796,0.0,0.0,0.0,0.0,0.0,0.0,-2.9083,-3.2256,-3.463,-3.66,-3.8085,-3.7277,-3.6466,-3.5716,-3.3469,-3.1422,-2.9724,-2.8899,-2.7042,-2.3934,-2.2273,0.0,0.0,0.0,0.0,0.0,0.0,0.0,0.0,0.0,0.0,0.0,0.0,0.0,0.0,0.0,0.0,0.0,0.0,0.0,0.0,-1.7283,0.0,0.0,0.0,0.0,0.0,0.0,0.0,0.0,0.0,0.0,-2.3037,-2.4996,-2.6915,-2.8215,0.0,0.0,0.0,0.0,-3.1727,-3.2319,-3.1774,-3.1299,-3.1265,-3.123,-3.1001,-3.0301,0.0,0.0,-2.9281,-2.9667,-2.995,-2.9178,-3.0218,-3.0868,-3.0029,-2.9174,-2.8692,-2.8411,-2.8328,-2.8502,-2.8488,-2.8714,-2.899,-4.2693,0.0,0.0,0.0,0.0,-3.7745,-3.8502,-3.9744,-3.9095,-3.8391,-3.7594,-3.6218,0.0,0.0,0.0,0.0,0.0,0.0,-3.486,-3.5944,-3.6109,-3.6635,-3.7504,-3.752,-3.7522,-3.752,-3.7176,-3.6327,-3.5059,-3.2922,-2.959,-2.5269,0.0,0.0,0.0,0.0,-3.1201,-3.3628,-3.555,-3.6991,-3.7968,-3.7177,-3.6113,-3.4824,-3.2913,-3.1462,-3.0558,-2.9724,-2.8052,-2.5398,-2.4374,0.0,0.0,0.0,0.0,0.0,0.0,0.0,0.0,0.0,0.0,0.0,0.0,0.0,0.0,0.0,0.0,0.0,0.0,0.0,-1.6683,-1.7928,-1.8518,0.0,0.0,0.0,0.0,0.0,0.0,0.0,0.0,0.0,-2.548,-2.6398,-2.7446,0.0,0.0,-3.0304,-3.092,-3.1458,-3.193,-3.2336,0.0,0.0,0.0,-3.2055,-3.1967,-3.1774,-3.1914,-3.1897,-3.1458,-3.1496,-3.1515,-3.1287,-3.155,-3.1708,-3.1359,-3.0733,-3.0039,-2.9452,-2.9246,-2.9403,-2.9903,-2.9625,-2.9221,-4.7571,-4.3351,-4.1529,-4.1052,-4.1522,-4.1438,-4.2055,-4.3079,-4.2084,-4.1413,-4.0867,-3.9148,-3.7413,-3.5711,-3.428,0.0,0.0,0.0,-3.6236,-3.7466,-3.6979,-3.7268,-3.8172,-3.8209,-3.8209,-3.8191,-3.8046,-3.7522,-3.6743,-3.6254,-3.3846,-2.9613,0.0,0.0,-2.8562,-3.0482,-3.2607,-3.4848,-3.6196,-3.7115,-3.7517,-3.6453,-3.5263,-3.398,-3.2676,-3.1603,-3.0872,-3.0107,-2.8666,-2.6509,-2.5446,-2.3674,0.0,0.0,0.0,0.0,0.0,0.0,0.0,0.0,0.0,0.0,0.0,-1.5461,-1.4036,0.0,0.0,0.0,-1.6054,-1.7563,-1.8898,-1.9454,0.0,0.0,0.0,0.0,0.0,0.0,0.0,-2.3744,-2.5746,-2.7284,-2.8013,-2.8361,-2.8762,-2.935,-3.008,-3.0691,-3.1166,0.0,-3.202,-3.2354,-3.2774,-3.2897,-3.2476,-3.2406,-3.2406,-3.2406,-3.2406,-3.2406,-3.2406,-3.2336,-3.2267,-3.2214,-3.2144,-3.2055,-3.1912,-3.1512,-3.1061,-3.0577,-3.0438,-3.0593,-3.1041,-3.0587,-3.0162,-5.1834,-4.9434,-4.6298,-4.5289,-4.5748,-4.5581,-4.5469,-4.5395,-4.4203,-4.3648,-4.3392,-4.1632,-4.0347,-3.9441,-3.727,0.0,0.0,-3.7049,-3.7756,-3.8372,-3.8336,-3.8263,-3.8209,-3.8209,-3.8209,-3.8227,-3.897,-3.8933,-3.8227,-3.8191,-3.7085,-3.4878,-3.2614,-3.1759,-3.227,-3.2488,-3.3683,-3.584,-3.6616,-3.6922,-3.6777,-3.5351,-3.4144,-3.3253,-3.2553,-3.1715,-3.0758,-3.0107,-2.8969,-2.7248,-2.5781,-2.4235,-2.2532,0.0,0.0,0.0,0.0,0.0,0.0,0.0,0.0,0.0,0.0,0.0,0.0,0.0,0.0,0.0,-1.7663,0.0,-2.2082,-2.134,0.0,0.0,0.0,-2.0207,-2.1062,-2.3246,-2.4934,-2.5628,0.0,0.0,0.0,0.0,-3.055,-3.055,-3.1113,-3.1635,-3.1912,-3.193,-3.2055,-3.2354,-3.2476,-3.2476,-3.2423,-3.2406,-3.2406,-3.2406,-3.2406,-3.2406,-3.2406,-3.2388,-3.2336,-3.2197,-3.2126,-3.2055,-3.1912,-3.1786,-3.18,-3.1731,-3.1731,-3.1765,-3.1748,-3.1624,-3.1478,-5.2456,-5.1217,-4.9809,-4.814,-4.6436,-4.6973,-4.675,-4.6029,-4.6334,-4.5783,-4.4569,-4.3923,-4.2705,-4.1107,-4.0546,-4.0293,-4.0311,-4.0492,-4.0347,-3.9948,-3.9369,-3.8788,-3.8227,-3.8209,-3.8209,-3.8209,-3.8408,-3.839,-3.8209,-3.8209,-3.7919,-3.7321,-3.6162,-3.4748,-3.3248,-3.4932,-3.6143,-3.6705,-3.6904,-3.6415,-3.5222,-3.4744,-3.3861,-3.2513,-3.2195,-3.1362,-2.9948,-2.9778,-2.8909,-2.7133,-2.6248,-2.5015,-2.3239,-2.0869,0.0,0.0,0.0,0.0,0.0,0.0,0.0,0.0,0.0,-1.7695,-1.4956,0.0,-1.7763,0.0,-1.8188,-1.9697,-2.1164,-2.1096,0.0,0.0,-2.2659,-2.2949,-2.4975,-2.573,-2.6488,-2.7435,-2.9248,-3.0508,-3.0698,-3.1411,-3.1917,-3.1934,-3.1826,-3.193,-3.2232,-3.2267,-3.2301,-3.2423,-3.2845,-3.3038,-3.2511,-3.2406,-3.2406,-3.2406,-3.2406,-3.2406,-3.2406,-3.2336,-3.2232,-3.2126,-3.202,-3.1947,-3.1838,-3.1801,-3.18,-3.18,-3.18,-3.18,-3.18,-3.1598,-3.1391,-5.3019,-5.1874,-5.1405,-4.9952,-4.7935,-4.8386,-4.8212,-4.7688,-4.7627,-4.7077,-4.6188,-4.5073,-4.3524,-4.1723,-4.1687,-4.1488,-4.118,-4.1162,-4.0926,-4.0474,-3.9749,-3.9152,-3.8717,-3.8372,-3.8209,-3.8227,-3.8571,-3.8553,-3.8245,-3.8553,-3.8554,-3.8174,-3.7756,-3.6886,-3.5636,-3.6524,-3.7176,-3.752,-3.6816,-3.5874,-3.4645,-3.4217,-3.3439,-3.2252,-3.1787,-3.076,-2.9134,-2.8817,-2.8008,-2.6596,-2.5907,-2.4932,-2.3506,-2.181,-2.0523,0.0,0.0,0.0,0.0,0.0,0.0,0.0,0.0,0.0,0.0,0.0,-1.914,0.0,-2.0499,0.0,-2.3018,-2.2962,-2.3311,-2.4546,-2.4879,-2.5497,-2.6656,-2.7776,-2.8716,-2.9282,-3.0612,-3.1516,-3.1533,-3.2039,-3.2406,-3.2406,-3.2249,-3.2196,-3.2371,-3.2406,-3.2406,-3.2423,-3.2739,-3.2897,-3.2441,-3.2406,-3.2406,-3.2406,-3.2406,-3.2406,-3.2406,-3.2284,-3.2179,-3.2108,-3.1984,-3.1858,-3.1818,-3.18,-3.18,-3.18,-3.18,-3.18,-3.18,-3.1653,-3.1523,-5.3433,-5.1931,-5.1912,-5.0992,-4.9509,-4.9509,-4.9509,-4.9437,-4.8445,-4.7923,-4.7636,-4.5531,-4.3634,-4.2031,-4.1886,-4.1469,-4.08,-4.08,-4.0745,-4.0601,-3.9894,-3.9496,-3.9351,-3.8571,-3.8209,-3.8245,-3.8898,-3.8898,-3.8245,-3.8898,-3.8897,-3.8245,-3.8209,-3.8209,-3.8172,-3.7393,-3.7303,-3.7848,-3.6399,-3.5243,-3.448,-3.374,-3.2977,-3.2071,-3.1288,-3.0026,-2.8337,-2.7718,-2.6886,-2.5822,-2.5279,-2.4555,-2.3559,-2.2655,-2.1538,0.0,-1.9924,0.0,0.0,0.0,0.0,0.0,0.0,0.0,0.0,-1.9941,-2.0865,-2.2859,-2.3311,-2.4147,-2.5632,-2.538,-2.5313,-2.5765,-2.6927,-2.7622,-2.7568,-2.9471,-3.0855,-3.0977,-3.1829,-3.2406,-3.2388,-3.2406,-3.2406,-3.2406,-3.2388,-3.2388,-3.2406,-3.2406,-3.2406,-3.2406,-3.2406,-3.2458,-3.2406,-3.2406,-3.2406,-3.2406,-3.2406,-3.2406,-3.2354,-3.2284,-3.2161,-3.2073,-3.1862,-3.1755,-3.1766,-3.1627,-3.1507,-3.1558,-3.1489,-3.1438,-3.1576,-3.1576,-3.161,-5.3433,-5.1931,-5.1912,-5.0973,-4.9509,-4.9509,-4.9509,-4.949,-4.9274,-4.8548,-4.7327,-4.5406,-4.4199,-4.3626,-4.2955,-4.2611,-4.2448,-4.2429,-4.2103,-4.1451,-4.0655,-3.9967,-3.9351,-3.8572,-3.8209,-3.8209,-3.8354,-3.8354,-3.8209,-3.8354,-3.8354,-3.8209,-3.8209,-3.8209,0.0,0.0,0.0,0.0,-3.5315,-3.4443,-3.3665,-3.3484,-3.2705,-3.1288,-3.0455,0.0,-2.7614,-2.7441,-2.6676,-2.5135,-2.553,0.0,0.0,0.0,0.0,0.0,0.0,0.0,0.0,0.0,0.0,0.0,-2.2593,-2.161,-2.0743,-2.2282,-2.3474,-2.3701,-2.4306,-2.4915,-2.5491,-2.5446,-2.5866,-2.7129,-2.7534,-2.832,-2.9834,-3.0525,-3.1116,-3.2004,-3.2301,-3.2406,-3.2406,-3.2406,-3.2406,-3.2406,-3.2406,-3.2406,-3.2406,-3.2406,-3.2406,-3.2406,-3.2406,-3.2406,-3.2406,-3.2406,-3.2406,-3.2406,-3.2406,-3.2371,-3.2267,-3.2232,-3.2126,-3.1966,-3.1445,-3.1218,-3.1681,-3.0817,-3.0213,-3.0765,-3.0403,-3.0144,-3.0748,-3.0904,-3.0713,-5.3433,0.0,-5.1912,-5.0992,0.0,-4.9509,-4.9509,-4.9509,-4.9509,-4.8714,-4.7312,-4.581,-4.4764,-4.4041,-4.3244,-4.2919,-4.2919,-4.2919,-4.2683,-4.2248,-4.1053,-4.0311,-3.993,-3.9152,-3.8589,-3.8227,-3.8607,-3.8607,-3.8227,-3.8209,-3.8209,-3.8209,-3.8209,-3.8209,-3.8172,-3.6997,-3.6019,-3.5206,-3.4808,-3.4226,-3.3447,-3.3393,-3.2632,-3.1089,0.0,0.0,0.0,0.0,0.0,0.0,0.0,0.0,0.0,0.0,0.0,-2.3259,-2.3283,-2.3454,-2.3758,-2.3788,-2.4118,-2.4856,-2.4879,-2.416,-2.2652,-2.4326,-2.5337,-2.5083,-2.5609,-2.6014,-2.6033,-2.6,-2.6506,-2.7742,-2.8374,-2.9334,-3.0715,-3.1376,-3.1795,-3.2266,-3.2406,-3.2406,-3.2406,-3.2406,-3.2406,-3.2406,-3.2406,-3.2406,-3.2406,-3.2406,-3.2406,-3.2406,-3.2406,-3.2406,-3.2406,-3.2406,-3.2406,-3.2406,-3.2406,-3.2354,-3.2319,-3.2232,-3.2126,-3.195,-3.1323,-3.0888,-3.1059,-3.0282,-2.9627,-2.9972,-2.9782,-2.9455,-2.9627,-2.9851,-3.0006,-5.3414,-5.1931,-5.1912,-5.0973,-4.9509,-4.9509,-4.9509,-4.9509,0.0,0.0,0.0,-4.6324,-4.5257,-4.4278,-4.3336,-4.2919,-4.2919,-4.2919,-4.2919,-4.2847,-4.1379,-4.0637,-4.0456,-3.9876,-3.9097,-3.8263,-3.9007,-3.8971,-3.8245,-3.8209,-3.8209,-3.8209,-3.8209,-3.8064,-3.7685,-3.6327,-3.5204,-3.4425,-3.4407,-3.4081,-3.3411,-3.3393,-3.2632,-3.1021,-3.0871,-2.9691,-2.7434,-2.7363,-2.6723,-2.5296,-2.5339,-2.4998,-2.4181,-2.4634,-2.4854,-2.4754,-2.5351,-2.5715,-2.5733,-2.5733,-2.5777,-2.5869,-2.6448,-2.6209,-2.4818,-2.5981,-2.6702,-2.6479,-2.6837,-2.6973,-2.6759,-2.6826,-2.7267,-2.8288,-2.9281,-3.0281,-3.1284,-3.1967,-3.2353,-3.2406,-3.2406,-3.2406,-3.2406,-3.2406,-3.2406,-3.2406,-3.2406,-3.2406,-3.2406,-3.2406,-3.2406,-3.2406,-3.2406,-3.2406,-3.2406,-3.2406,-3.2406,-3.2406,-3.2406,-3.2406,-3.2336,-3.2127,-3.1917,-3.1794,-3.1028,-3.0456,-3.0386,-2.9661,-2.9213,-2.9282,-2.9196,-2.8937,-2.842,-2.8661,-2.9041,-5.3414,-5.1912,-5.1912,-5.0973,-4.9509,-4.9509,-4.9509,-4.9474,-4.9214,-4.8833,-4.8328,-4.6581,-4.5549,-4.5055,-4.3552,-4.2919,-4.2919,-4.2919,-4.2919,0.0,-4.194,-4.1162,-4.051,-4.0401,-3.9586,-3.8354,-3.9024,-3.8989,-3.8281,-3.8209,-3.8209,-3.8209,-3.8209,-3.7504,-3.6182,-3.5206,-3.4356,-3.3592,-3.3574,-3.352,-3.3393,-3.3393,-3.2632,-3.1089,-3.0328,-2.9156,-2.7465,-2.7405,-2.6989,-2.612,-2.664,-2.6549,-2.5661,-2.5733,-2.5718,-2.5559,-2.5689,-2.6032,-2.657,-2.6617,-2.6845,-2.7344,-2.7487,-2.7192,-2.6402,-2.7052,-2.7528,-2.7484,-2.7378,-2.7326,-2.7313,-2.7636,-2.8271,-2.9333,-3.0162,-3.1063,-3.2038,-3.23,-3.2406,-3.2406,-3.2406,-3.2406,-3.2406,-3.2406,-3.2406,-3.2406,-3.2406,-3.2406,-3.2406,-3.2406,-3.2406,-3.2406,-3.2406,-3.2406,-3.2406,-3.2406,-3.2406,-3.2406,-3.2371,-3.2266,-3.2162,-3.1637,-3.1202,-3.1011,-2.9902,-2.9229,-2.9523,-2.8523,-2.8109,-2.8385,-2.8161,-2.7696,-2.7558,-2.7661,-2.7713,-5.3019,-5.1968,-5.1912,-5.0973,-4.9509,-4.9509,-4.9509,-4.9493,-4.9345,-4.9113,-4.8672,-4.7296,-4.6269,-4.5493,-4.4344,-4.3468,-4.2919,-4.2919,-4.2919,-4.2829,-4.1615,-4.1089,-4.1053,-4.0311,-3.955,-3.888,-3.9206,-3.9006,-3.8246,-3.8209,-3.8209,-3.8172,-3.7774,-3.6961,-3.5822,-3.4989,-3.4208,-3.3411,-3.3393,-3.3393,-3.3393,-3.3393,-3.2614,-3.1057,-3.0618,-2.9699,-2.8111,-2.8038,-2.7676,-2.688,-2.7146,-2.6965,-2.6147,-2.6465,-2.6625,-2.6535,-2.6923,-2.7264,-2.7489,-2.7444,-2.7469,-2.7681,-2.7716,-2.7561,-2.7227,-2.749,-2.7657,-2.7537,-2.745,-2.7514,-2.7749,-2.8111,-2.8867,-3.0179,-3.0749,-3.1392,-3.2195,-3.2406,-3.2406,-3.2406,-3.2406,-3.2406,-3.2406,-3.2406,-3.2406,-3.2406,-3.2406,-3.2406,-3.2406,-3.2406,-3.2406,-3.2406,-3.2406,-3.2406,-3.2406,-3.2406,-3.2406,-3.2406,-3.2019,-3.1757,-3.1618,-3.1007,-3.0486,-3.0229,-2.9243,-2.8709,-2.8885,-2.8058,-2.7609,-2.7625,-2.7575,-2.7316,-2.7315,-2.7315,-2.7186,-5.2829,-5.2193,-5.1987,-5.1086,-4.9771,-4.9584,-4.9509,-4.9509,-4.9509,-4.9361,-4.9001,-4.7983,-4.6871,-4.5828,-4.4986,-4.4017,-4.3067,-4.292,-4.2919,-4.2774,-4.1615,-4.1288,-4.156,-4.0456,-3.9749,-3.9441,-3.9387,-3.8988,-3.8281,-3.8209,-3.81,-3.7883,-3.714,-3.6309,-3.5514,-3.4718,-3.4009,-3.3447,-3.3393,-3.3393,-3.3393,-3.3393,-3.2632,-3.1143,-3.1003,-3.0242,-2.8726,-2.86,-2.8328,-2.7713,-2.7658,-2.7387,-2.6814,-2.7266,-2.7547,-2.753,-2.7999,-2.8246,-2.8112,-2.7986,-2.7871,-2.7763,-2.7716,-2.7716,-2.7716,-2.7716,-2.7642,-2.7494,-2.767,-2.7924,-2.8297,-2.8845,-2.9602,-3.0767,-3.1252,-3.1722,-3.23,-3.2406,-3.2406,-3.2406,-3.2406,-3.2406,-3.2406,-3.2406,-3.2406,-3.2406,-3.2406,-3.2406,-3.2406,-3.2283,-3.2177,-3.2371,-3.2406,-3.2406,-3.2406,-3.2406,-3.2318,-3.2195,-3.1633,-3.123,-3.0915,-3.0234,-2.9698,-2.9479,-2.8858,-2.8292,-2.8125,-2.7713,-2.7351,-2.7384,-2.7349,-2.7315,-2.7315,-2.7315,-2.7088,-5.3149,-5.2961,-5.225,-5.1405,-5.0522,-4.9809,-4.9509,-4.9509,-4.9509,-4.9493,-4.9318,-4.8268,-4.7166,-4.6042,-4.5076,-4.4162,-4.3286,-4.2995,-4.2938,-4.292,-4.2774,-4.2339,-4.1759,-4.1488,-4.0763,-3.9568,-3.9369,-3.8934,-3.8228,-3.8209,-3.7846,-3.7104,-3.6309,-3.5532,-3.4718,-3.3936,-3.3484,-3.3393,-3.3393,-3.3393,-3.3393,-3.3393,-3.2632,-3.1057,-3.1003,-3.0242,-2.869,-2.86,-2.8563,-2.8491,-2.8473,-2.8411,-2.8283,-2.8399,-2.8428,-2.828,-2.8357,-2.8318,-2.8126,-2.8011,-2.7957,-2.7871,-2.778,-2.7716,-2.7716,-2.7716,-2.7719,-2.7744,-2.8303,-2.8658,-2.8903,-3.0007,-3.0829,-3.1179,-3.1792,-3.2318,-3.2371,-3.2406,-3.2406,-3.2406,-3.2406,-3.2406,-3.2406,-3.2406,-3.2406,-3.2406,-3.23,-3.2318,-3.2353,-3.1826,-3.1668,-3.2177,-3.2388,-3.2371,-3.2388,-3.2388,-3.2072,-3.1493,-3.1247,-3.0826,-3.0229,-2.9564,-2.8956,-2.8711,-2.8211,-2.7681,-2.7535,-2.7332,-2.7332,-2.7315,-2.7315,-2.7315,-2.7315,-2.7283,-2.704,-5.2869,-5.2437,-5.2588,-5.2175,-5.1292,-5.0053,-4.9509,-4.9509,-4.9509,-4.9509,-4.9437,-4.8987,-4.7914,-4.6403,-4.597,-4.4984,-4.3565,-4.3425,-4.3355,-4.33,-4.2721,-4.2504,-4.2523,-4.0998,-4.0184,-3.9967,-3.9134,-3.8535,-3.8246,-3.8209,-3.7792,-3.6995,-3.6182,-3.5388,-3.4591,-3.381,-3.3393,-3.3393,-3.3393,-3.3393,-3.3393,-3.3393,-3.2632,-3.1216,-3.1003,-3.0242,-2.8799,-2.86,-2.86,-2.86,-2.86,-2.8587,-2.8562,-2.8587,-2.8574,-2.8528,-2.845,-2.8358,-2.8237,-2.8126,-2.8028,-2.7957,-2.7871,-2.778,-2.7716,-2.7716,-2.7716,-2.7754,-2.8017,-2.8526,-2.9492,-3.0194,-3.0914,-3.1721,-3.2213,-3.2406,-3.2406,-3.2406,-3.2406,-3.2406,-3.2406,-3.2406,-3.2406,-3.2406,-3.2406,-3.2335,-3.2055,-3.1861,-3.2213,-3.1738,-3.1404,-3.1581,-3.1686,-3.1914,-3.2177,-3.1949,-3.1581,-3.1142,-3.0404,-2.9667,-2.9406,-2.8675,-2.8089,-2.8016,-2.7709,-2.7456,-2.7365,-2.7315,-2.7315,-2.7315,-2.7315,-2.7315,-2.7315,-2.7137,-2.6842,-5.2982,-5.2644,-5.2811,-5.2494,-5.1762,-5.0185,-4.9509,-4.9509,-4.9509,-4.9509,-4.9509,-4.9509,-4.8459,-4.6863,-4.665,-4.556,-4.3957,-4.3728,-4.3714,-4.3623,-4.2886,-4.2856,-4.3134,-4.0973,-4.0089,-4.0271,-3.8969,-3.8227,-3.8209,-3.8209,-3.7683,-3.6725,-3.6091,-3.5294,-3.4335,-3.3665,-3.3393,-3.3393,-3.3393,-3.3393,-3.3357,-3.3176,-3.2397,-3.1129,-3.0781,-3.0025,-2.869,-2.86,-2.86,-2.86,-2.86,-2.86,-2.86,-2.86,-2.86,-2.8587,-2.851,-2.8419,-2.8367,-2.8246,-2.8257,-2.8383,-2.8347,-2.8367,-2.8417,-2.844,-2.8411,-2.8431,-2.8366,-2.8983,-2.9827,-3.0492,-3.1265,-3.2265,-3.2406,-3.2406,-3.2406,-3.2406,-3.2406,-3.2406,-3.2406,-3.2406,-3.2371,-3.2213,-3.2002,-3.1949,-3.1563,-3.123,-3.1651,-3.1388,-3.1158,-3.0949,-3.0896,-3.1107,-3.1616,-3.13,-3.0896,-3.0404,-2.9544,-2.8965,-2.8667,-2.7957,-2.7617,-2.7799,-2.7552,-2.7407,-2.7362,-2.733,-2.7315,-2.7315,-2.7315,-2.7315,-2.7315,-2.7039,-2.6725,-5.362,-5.3996,-5.2606,-5.1968,-5.178,-5.0185,-4.9509,-4.9509,-4.9509,-4.9509,-4.9509,-4.9509,-4.8555,-4.6986,-4.6729,-4.5671,-4.4194,-4.3841,-4.3744,-4.3744,-4.3621,-4.3623,-4.3552,-4.1754,-4.085,-4.0743,-3.9158,-3.828,-3.8227,-3.8209,-3.7395,-3.5967,-3.584,-3.5025,-3.3773,-3.3484,-3.3393,-3.3393,-3.3393,-3.3393,-3.3284,-3.2651,-3.1854,-3.1021,-3.0273,-2.95,-2.8708,-2.86,-2.86,-2.86,-2.86,-2.86,-2.86,-2.86,-2.86,-2.86,-2.8587,-2.8562,-2.8479,-2.846,-2.8681,-2.9253,-2.9326,-2.9554,-2.9982,-2.9996,-2.992,-3.0021,-2.9888,-3.0034,-3.0264,-3.1212,-3.2055,-3.2335,-3.2406,-3.2406,-3.2406,-3.2406,-3.2406,-3.2388,-3.2335,-3.2318,-3.2353,-3.1721,-3.1458,-3.1388,-3.1247,-3.1036,-3.0703,-3.0878,-3.0808,-3.0422,-3.0213,-3.0178,-3.0229,-3.0211,-2.9843,-2.9439,-2.9123,-2.8614,-2.8122,-2.7704,-2.7644,-2.76,-2.7526,-2.7467,-2.7407,-2.7345,-2.733,-2.7315,-2.7315,-2.7315,-2.7315,-2.7006,-2.6725,-5.4146,-5.424,-5.2588,-5.1912,-5.1724,-5.0185,-4.9509,-4.9509,-4.9509,-4.9509,-4.9509,-4.9509,-4.857,-4.6997,-4.6904,-4.5941,-4.4429,-4.4248,-4.4218,-4.4203,-4.403,-4.3952,-4.3806,-4.2548,-4.1625,-4.1006,-3.979,-3.8829,-3.8245,-3.8209,-3.7665,-3.6653,-3.6055,-3.5225,-3.4262,-3.3647,-3.3393,-3.3393,-3.3393,-3.3393,-3.3248,-3.2125,-3.1274,-3.098,-3.0219,-2.9409,-2.8618,-2.86,-2.86,-2.86,-2.86,-2.86,-2.86,-2.86,-2.86,-2.86,-2.86,-2.8587,-2.8616,-2.8984,-2.931,-2.9561,-2.9994,-3.0316,-3.0472,-3.0499,-3.0457,-3.0437,-3.0802,-3.0935,-3.0943,-3.1368,-3.1844,-3.23,-3.2406,-3.2406,-3.2406,-3.2406,-3.2406,-3.2335,-3.2019,-3.1809,-3.2125,-3.1686,-3.1423,-3.1756,-3.1142,-3.065,-3.072,-3.0703,-3.0404,-3.016,-3.0072,-2.993,-2.9351,-2.9351,-2.9193,-2.8895,-2.8561,-2.8193,-2.7736,-2.7674,-2.7615,-2.7632,-2.7557,-2.7496,-2.7436,-2.7407,-2.7376,-2.736,-2.7362,-2.7346,-2.7315,-2.7022,-2.6741,-5.4409,-5.4146,-5.2606,-5.1912,-5.1705,-5.0185,-4.9509,-4.9509,-4.9509,-4.9509,-4.9509,-4.949,-4.857,-4.7199,-4.6993,-4.6058,-4.4594,-4.4482,-4.4482,-4.4482,-4.4306,-4.4229,-4.3998,-4.2872,-4.1971,-4.1274,-4.0044,-3.9022,-3.8376,-3.8289,-3.7711,-3.6614,-3.6055,-3.5261,-3.4298,-3.3665,-3.3393,-3.3393,-3.3393,-3.3302,-3.2886,-3.1723,-3.084,-3.0545,-2.9839,-2.9174,-2.8618,-2.86,-2.86,-2.86,-2.86,-2.86,-2.86,-2.86,-2.86,-2.86,-2.86,-2.86,-2.869,-2.9316,-2.9818,-3.0067,-3.0732,-3.1232,-3.141,-3.1416,-3.1339,-3.1372,-3.16,-3.1877,-3.1762,-3.1681,-3.1843,-3.2318,-3.2406,-3.2406,-3.2406,-3.2406,-3.2406,-3.2283,-3.1721,-3.1651,-3.2055,-3.1388,-3.1177,-3.1616,-3.0703,-3.0282,-3.0001,-3.0194,-2.9825,-2.9474,-2.9527,-2.9228,-2.8772,-2.8544,-2.8544,-2.8315,-2.8263,-2.7891,-2.7701,-2.7659,-2.763,-2.7632,-2.7602,-2.7542,-2.7513,-2.7452,-2.7436,-2.7405,-2.7405,-2.739,-2.728,-2.7087,-2.6808,-5.4409,-5.4165,-5.2606,-5.1912,-5.1686,-5.0166,-4.9509,-4.9509,-4.9509,-4.9509,-4.9509,-4.9509,-4.857,-4.7256,-4.6993,-4.6077,-4.4707,-4.4482,-4.4482,-4.4482,-4.4468,-4.4468,-4.4346,-4.2753,-4.1767,-4.1421,-3.9771,-3.8795,-3.8494,-3.8394,-3.759,-3.6177,-3.5876,-3.5098,-3.3502,-3.3502,-3.3393,-3.3393,-3.3393,-3.3049,-3.2234,-3.1469,-3.069,-2.9965,-2.9156,-2.8672,-2.86,-2.86,-2.86,-2.86,-2.86,-2.86,-2.86,-2.86,-2.86,-2.86,-2.86,-2.86,-2.8726,-2.9391,-3.0133,-3.0898,-3.1713,-3.2307,-3.2826,-3.2931,-3.2837,-3.276,-3.269,-3.2668,-3.2534,-3.2434,-3.2368,-3.2405,-3.2406,-3.2406,-3.2406,-3.2406,-3.2388,-3.2213,-3.1597,-3.1545,-3.1791,-3.1001,-3.0317,-3.0545,-3.0211,-2.965,-2.8912,-2.9404,-2.9263,-2.8526,-2.8649,-2.8912,-2.8298,-2.7736,-2.7754,-2.7768,-2.7821,-2.7716,-2.7716,-2.7672,-2.7672,-2.7674,-2.7644,-2.76,-2.7572,-2.7526,-2.7496,-2.7481,-2.7481,-2.7434,-2.731,-2.7152,-2.694,-5.4409,-5.4202,-5.2588,-5.1912,-5.1705,-5.0185,-4.9509,-4.9509,-4.9509,-4.9509,-4.9509,-4.9509,-4.857,-4.7293,-4.6993,-4.6092,-4.459,-4.4482,-4.4482,-4.4482,-4.4482,-4.4482,-4.4261,-4.332,-4.2099,-4.0794,-3.9526,-3.8755,-3.8525,-3.8387,-3.7677,-3.6741,-3.6055,-3.5261,-3.4205,-3.3701,-3.3393,-3.3393,-3.3393,-3.3248,-3.2904,-3.1673,-3.0858,-3.0527,-2.9324,-2.86,-2.86,-2.86,-2.86,-2.86,-2.86,-2.86,-2.86,-2.86,-2.86,-2.86,-2.86,-2.8871,-2.9373,-2.9676,-3.0382,-3.1524,-3.2053,-3.2546,-3.3222,-3.3334,-3.3256,-3.3201,-3.3044,-3.2886,-3.2739,-3.2574,-3.2491,-3.2423,-3.2406,-3.2406,-3.2406,-3.2406,-3.2125,-3.1581,-3.0896,-3.0843,-3.1107,-3.0264,-3.0001,-3.0984,-3.0264,-2.9123,-2.9318,-2.907,-2.9211,-2.8649,-2.8842,-2.8737,-2.8298,-2.7877,-2.7701,-2.7716,-2.7716,-2.7716,-2.7716,-2.7716,-2.7716,-2.7701,-2.7672,-2.7642,-2.763,-2.76,-2.7569,-2.7539,-2.7509,-2.7465,-2.739,-2.7247,-2.7103,-5.4221,-5.3808,-5.2475,-5.1724,-5.133,-5.0034,-4.9509,-4.9509,-4.9509,-4.9509,-4.9509,-4.9509,-4.857,-4.7256,-4.6993,-4.6054,-4.4594,-4.4482,-4.4482,-4.4482,-4.4482,-4.4482,-4.4313,-4.3313,-4.1817,-4.022,-3.9416,-3.8979,-3.8649,-3.8569,-3.7961,-3.6876,-3.6261,-3.5422,-3.4458,-3.3911,-3.3633,-3.3601,-3.3549,-3.336,-3.2855,-3.171,-3.0853,-3.0423,-2.9287,-2.8654,-2.86,-2.86,-2.86,-2.86,-2.86,-2.86,-2.86,-2.86,-2.86,-2.86,-2.8618,-2.8817,-2.93,-2.959,-3.0328,-3.1505,-3.2035,-3.2542,-3.3194,-3.3393,-3.3349,-3.3292,-3.3137,-3.2963,-3.2805,-3.2658,-3.2507,-3.2423,-3.2406,-3.2406,-3.2406,-3.2406,-3.2248,-3.1686,-3.1036,-3.0861,-3.0773,-3.0299,-2.9755,-3.0685,-2.9878,-2.8772,-2.9123,-2.8702,-2.8579,-2.8473,-2.8368,-2.8298,-2.8351,-2.807,-2.7751,-2.7716,-2.7716,-2.7716,-2.7716,-2.7716,-2.7716,-2.7716,-2.7686,-2.7686,-2.7674,-2.7659,-2.763,-2.76,-2.7585,-2.7539,-2.7511,-2.7434,-2.7293,-5.3883,-5.313,-5.2193,-5.1386,-5.0691,-4.9847,-4.9509,-4.9509,-4.9509,-4.9509,-4.9509,-4.9509,-4.857,-4.7274,-4.6993,-4.6077,-4.4707,-4.4482,-4.4482,-4.4482,-4.4482,-4.4407,-4.3919,-4.2718,-4.1199,-3.964,-3.9457,-3.9301,-3.8935,-3.897,-3.8233,-3.6611,-3.6344,-3.5591,-3.4339,-3.4004,-3.3952,-3.3868,-3.378,-3.3364,-3.267,-3.1697,-3.0776,-3.0038,-2.9228,-2.8708,-2.86,-2.86,-2.86,-2.86,-2.86,-2.86,-2.86,-2.86,-2.86,-2.86,-2.86,-2.869,-2.8853,-2.9445,-3.0255,-3.122,-3.189,-3.2542,-3.323,-3.3393,-3.3367,-3.3292,-3.315,-3.3011,-3.2821,-3.2657,-3.2523,-3.244,-3.2406,-3.2406,-3.2406,-3.2406,-3.2265,-3.209,-3.1633,-3.1107,-3.0949,-3.0246,-2.9632,-2.9421,-2.907,-2.8526,-2.8315,-2.8193,-2.7839,-2.7821,-2.7947,-2.7964,-2.8052,-2.7999,-2.7716,-2.7716,-2.7716,-2.7716,-2.7716,-2.7716,-2.7716,-2.7716,-2.7716,-2.7716,-2.7701,-2.7704,-2.7689,-2.7689,-2.7657,-2.7659,-2.7615,-2.7542,-2.7434,-5.3393,-5.3036,-5.163,-5.0879,-5.0595,-4.9847,-4.9509,-4.9509,-4.9509,-4.9509,-4.949,-4.9509,-4.8532,-4.7105,-4.6974,-4.6077,-4.482,-4.4482,-4.4482,-4.4482,-4.4482,-4.3731,-4.2849,-4.2248,-4.1115,-3.9676,-3.9393,-3.9256,-3.9115,-3.9064,-3.8104,-3.6468,-3.6421,-3.5613,-3.4238,-3.4023,-3.3921,-3.3815,-3.3895,-3.3688,-3.3162,-3.247,-3.1651,-3.0708,-2.9906,-2.9205,-2.869,-2.86,-2.86,-2.86,-2.86,-2.86,-2.86,-2.86,-2.86,-2.86,-2.8618,-2.8889,-2.9373,-2.9658,-3.0437,-3.1691,-3.2035,-3.2542,-3.3302,-3.3393,-3.3367,-3.3292,-3.3137,-3.2963,-3.2805,-3.2641,-3.249,-3.244,-3.2406,-3.2406,-3.2406,-3.2388,-3.2213,-3.1581,-3.0931,-3.065,-3.0282,-2.9509,-2.893,-2.9299,-2.8842,-2.8193,-2.8122,-2.7929,-2.7716,-2.7716,-2.7786,-2.7751,-2.7751,-2.7751,-2.7716,-2.7716,-2.7716,-2.7716,-2.7716,-2.7716,-2.7716,-2.7716,-2.7716,-2.7716,-2.7716,-2.7701,-2.7716,-2.7716,-2.7701,-2.7672,-2.763,-2.7554,-2.7513,-5.2792,-5.2078,-5.112,-5.0519,-5.0147,-4.9696,-4.9509,-4.9509,-4.9509,-4.9509,-4.9434,-4.9077,-4.8232,-4.7049,-4.6599,-4.5739,-4.4594,-4.4482,-4.4482,-4.4421,-4.4139,-4.3243,-4.2267,-4.1967,-4.1102,-3.96,-3.9406,-3.9309,-3.9242,-3.9175,-3.8258,-3.7005,-3.6695,-3.5857,-3.4381,-3.4264,-3.4197,-3.4111,-3.4124,-3.3979,-3.3747,-3.3012,-3.2184,-3.1294,-3.0477,-2.9649,-2.8858,-2.865,-2.86,-2.86,-2.86,-2.86,-2.86,-2.86,-2.86,-2.86,-2.86,-2.8944,-2.9603,-2.9802,-3.0563,-3.1799,-3.2198,-3.2614,-3.3194,-3.3393,-3.3367,-3.3214,-3.3091,-3.2916,-3.2722,-3.2558,-3.2457,-3.2423,-3.2406,-3.2406,-3.2406,-3.2406,-3.2195,-3.1739,-3.1335,-3.0896,-3.0615,-2.9404,-2.9123,-2.9176,-2.8473,-2.821,-2.814,-2.7877,-2.7716,-2.7716,-2.7716,-2.7716,-2.7716,-2.7716,-2.7716,-2.7716,-2.7716,-2.7716,-2.7716,-2.7716,-2.7716,-2.7716,-2.7716,-2.7716,-2.7716,-2.7716,-2.7716,-2.7716,-2.7716,-2.7686,-2.7644,-2.7585,-2.7526,-5.2059,-5.0707,-5.0613,-5.0147,-4.9584,-4.9509,-4.9509,-4.9509,-4.9509,-4.9415,-4.9171,-4.8532,-4.7725,-4.6824,-4.611,-4.5284,-4.4501,-4.4482,-4.4482,-4.4289,-4.3782,-4.2862,-4.2079,-4.1779,-4.087,-3.9567,-3.9514,-3.9464,-3.938,-3.9489,-3.8633,-3.7408,-3.7045,-3.6149,-3.4847,-3.4569,-3.4572,-3.4454,-3.4363,-3.4239,-3.4,-3.3278,-3.241,-3.1525,-3.0505,-2.9724,-2.904,-2.8737,-2.8637,-2.86,-2.86,-2.86,-2.86,-2.8636,-2.8763,-2.8799,-2.8871,-2.9137,-2.9676,-2.9947,-3.0491,-3.1709,-3.218,-3.2596,-3.323,-3.3393,-3.3334,-3.315,-3.3042,-3.2852,-3.2623,-3.2474,-3.2423,-3.2406,-3.2406,-3.2406,-3.2406,-3.2406,-3.2406,-3.2371,-3.2318,-3.1879,-3.1282,-3.0492,-2.9686,-2.9053,-2.8351,-2.7997,-2.7947,-2.7821,-2.7716,-2.7716,-2.7716,-2.7716,-2.7716,-2.7716,-2.7716,-2.7716,-2.7716,-2.7716,-2.7716,-2.7716,-2.7716,-2.7716,-2.7716,-2.7716,-2.7716,-2.7716,-2.7716,-2.7716,-2.7716,-2.7701,-2.7672,-2.7615,-2.7557,-5.1027,-5.0651,-5.0016,-4.9659,-4.9527,-4.9509,-4.9509,-4.9509,-4.949,-4.9096,-4.8551,-4.8251,-4.7331,-4.5998,-4.5735,-4.5266,-4.4557,-4.4482,-4.4482,-4.4402,-4.3688,-4.2844,-4.1986,-4.1454,-4.0509,-3.9696,-3.9552,-3.9564,-3.9552,-3.9421,-3.8763,-3.7336,-3.7016,-3.6265,-3.4857,-3.4602,-3.4506,-3.4409,-3.4473,-3.4344,-3.3981,-3.3398,-3.2565,-3.1552,-3.0198,-2.934,-2.9007,-2.8851,-2.8743,-2.865,-2.86,-2.86,-2.869,-2.9174,-2.9427,-2.9463,-2.95,-2.9639,-2.9893,-3.0455,-3.0889,-3.1451,-3.2488,-3.3212,-3.3321,-3.3393,-3.3301,-3.3135,-3.2995,-3.2804,-3.2524,-3.2422,-3.2406,-3.2406,-3.2406,-3.2406,-3.2406,-3.2406,-3.2406,-3.23,-3.1914,-3.1405,-3.1159,-3.0018,-2.9316,-2.886,-2.8368,-2.7821,-2.7716,-2.7716,-2.7716,-2.7716,-2.7716,-2.7716,-2.7716,-2.7716,-2.7716,-2.7716,-2.7716,-2.7716,-2.7716,-2.7716,-2.7716,-2.7716,-2.7716,-2.7716,-2.7716,-2.7716,-2.7716,-2.7716,-2.7701,-2.7686,-2.7674,-2.7615,-2.7572,-5.0482,-5.0091,-4.9678,-4.9509,-4.9509,-4.9509,-4.9509,-4.9415,-4.9039,-4.8645,-4.8082,-4.7443,-4.6505,-4.5697,-4.5303,-4.4857,-4.4594,-4.4482,-4.4482,-4.4327,-4.367,-4.2844,-4.1986,-4.1191,-4.0384,-3.9721,-3.9608,-3.9608,-3.9608,-3.9477,-3.8744,-3.7242,-3.711,-3.619,-3.4857,-3.4612,-3.455,-3.4495,-3.4528,-3.4334,-3.375,-3.3418,-3.2537,-3.1336,-2.9988,-2.9166,-2.9012,-2.8934,-2.8779,-2.865,-2.86,-2.86,-2.8726,-2.9337,-2.9748,-2.9821,-3.0201,-3.0563,-3.0944,-3.131,-3.1745,-3.2053,-3.2977,-3.323,-3.3393,-3.3393,-3.3334,-3.318,-3.3026,-3.2804,-3.249,-3.2405,-3.2406,-3.2406,-3.2406,-3.2406,-3.2406,-3.2406,-3.2406,-3.2353,-3.2072,-3.1633,-3.0966,-2.9966,-2.9281,-2.8983,-2.8228,-2.7716,-2.7716,-2.7716,-2.7716,-2.7716,-2.7716,-2.7716,-2.7716,-2.7716,-2.7716,-2.7716,-2.7716,-2.7716,-2.7716,-2.7716,-2.7716,-2.7716,-2.7716,-2.7716,-2.7716,-2.7716,-2.7716,-2.7716,-2.7701,-2.7689,-2.7659,-2.763,-2.7572,-5.0109,-4.9509,-4.9509,-4.9509,-4.9509,-4.9509,-4.9509,-4.9377,-4.857,-4.8176,-4.7744,-4.6354,-4.5772,-4.5378,-4.4853,-4.4538,-4.4482,-4.4482,-4.4482,-4.4383,-4.3407,-4.2643,-4.1873,-4.1004,-4.0215,-3.9646,-3.9608,-3.9608,-3.9608,-3.9495,-3.8707,-3.7373,-3.711,-3.619,-3.4969,-3.4612,-3.4602,-3.4591,-3.4572,-3.4395,-3.3677,-3.3331,-3.2252,-3.0718,-2.9909,-2.9259,-2.9056,-2.8938,-2.8803,-2.8612,-2.8708,-2.8708,-2.8817,-2.9463,-3.0002,-3.0056,-3.0745,-3.122,-3.1528,-3.1962,-3.2397,-3.3212,-3.3375,-3.3393,-3.3393,-3.3393,-3.3349,-3.3244,-3.3091,-3.2868,-3.2591,-3.249,-3.2473,-3.2491,-3.2474,-3.2422,-3.2439,-3.2457,-3.2422,-3.2406,-3.2248,-3.1932,-3.1247,-3.0387,-2.9702,-2.9,-2.821,-2.7716,-2.7716,-2.7716,-2.7716,-2.7716,-2.7716,-2.7716,-2.7716,-2.7716,-2.7716,-2.7716,-2.7716,-2.7716,-2.7716,-2.7716,-2.7716,-2.7716,-2.7716,-2.7716,-2.7716,-2.7716,-2.7716,-2.7716,-2.7701,-2.7672,-2.7659,-2.763,-2.7554,-4.9621,-4.9509,-4.9509,-4.9509,-4.9509,-4.9509,-4.949,-4.934,-4.8514,-4.7819,-4.7087,-4.6129,-4.5266,-4.4853,-4.4613,-4.4482,-4.4482,-4.4482,-4.4482,-4.4219,-4.3168,-4.223,-4.1817,-4.0722,-3.9871,-3.9664,-3.9608,-3.9608,-3.9608,-3.9514,-3.8744,-3.7467,-3.711,-3.6246,-3.5138,-3.4612,-3.4612,-3.4612,-3.4612,-3.4443,-3.4001,-3.2902,-3.1631,-3.0109,-2.9665,-2.9405,-2.9088,-2.8947,-2.8791,-2.8679,-2.9246,-2.9192,-2.9251,-3.0133,-3.0677,-3.0889,-3.1524,-3.1944,-3.1727,-3.1962,-3.2216,-3.2506,-3.3031,-3.3375,-3.3393,-3.3393,-3.3349,-3.3277,-3.3122,-3.2934,-3.2773,-3.2673,-3.2705,-3.2753,-3.269,-3.2574,-3.2638,-3.2573,-3.2456,-3.2423,-3.2318,-3.2019,-3.1159,-3.0369,-2.965,-2.8877,-2.8122,-2.7751,-2.7716,-2.7716,-2.7716,-2.7716,-2.7716,-2.7716,-2.7716,-2.7716,-2.7716,-2.7716,-2.7716,-2.7716,-2.7716,-2.7716,-2.7716,-2.7716,-2.7716,-2.7716,-2.7716,-2.7716,-2.7716,-2.7716,-2.7701,-2.7686,-2.7642,-2.763,-2.7509,-4.9509,-4.9509,-4.9509,-4.9509,-4.9509,-4.949,-4.9246,-4.872,-4.7932,-4.7105,-4.6279,-4.5472,-4.4876,-4.4557,-4.4482,-4.4482,-4.4482,-4.4482,-4.4482,-4.4163,-4.3281,-4.2361,-4.1929,-4.0703,-4.0059,-3.9721,-3.9608,-3.9608,-3.9608,-3.9608,-3.8857,-3.7955,-3.7354,-3.6472,-3.5428,-3.4827,-3.4669,-3.4612,-3.4594,-3.4376,-3.3888,-3.2367,-3.0946,-3.0329,-2.9967,-2.9843,-2.9672,-3.0009,-3.0037,-2.9974,-3.0237,-3.04,-3.064,-3.0985,-3.1451,-3.1324,-3.2107,-3.2669,-3.2306,-3.2651,-3.2832,-3.2886,-3.3212,-3.3357,-3.3393,-3.3378,-3.3367,-3.3292,-3.3168,-3.3057,-3.3026,-3.2912,-3.2975,-3.305,-3.2912,-3.2782,-3.2749,-3.2605,-3.2523,-3.2457,-3.2422,-3.1895,-3.0773,-3.0053,-2.9439,-2.8754,-2.8029,-2.7833,-2.776,-2.776,-2.7757,-2.7716,-2.7716,-2.7716,-2.7716,-2.7716,-2.7716,-2.7716,-2.7716,-2.7716,-2.7716,-2.7716,-2.7716,-2.7716,-2.7716,-2.7716,-2.7716,-2.7716,-2.7716,-2.7716,-2.7701,-2.7686,-2.7674,-2.76,-2.7511,-4.9509,-4.9509,-4.9509,-4.9396,-4.9246,-4.9246,-4.8739,-4.7913,-4.7087,-4.6373,-4.566,-4.4909,-4.4538,-4.4482,-4.4482,-4.4482,-4.4482,-4.4482,-4.4388,-4.4008,-4.3275,-4.2506,-4.1723,-4.0966,-4.0159,-3.9664,-3.9608,-3.9608,-3.9608,-3.9608,-3.9026,-3.803,-3.7298,-3.6547,-3.5597,-3.4827,-3.465,-3.4612,-3.4594,-3.4151,-3.3025,-3.1888,-3.0898,-3.0573,-3.053,-3.0408,-3.0337,-3.0706,-3.0914,-3.0917,-3.1111,-3.1401,-3.189,-3.2252,-3.2053,-3.1636,-3.2632,-3.3158,-3.314,-3.3284,-3.3266,-3.3266,-3.3357,-3.3393,-3.3393,-3.3393,-3.3411,-3.3349,-3.3316,-3.3265,-3.3324,-3.328,-3.3262,-3.328,-3.316,-3.3006,-3.2923,-3.283,-3.2753,-3.2657,-3.2557,-3.1869,-3.0824,-3.0225,-2.9723,-2.887,-2.815,-2.8074,-2.7986,-2.7886,-2.784,-2.776,-2.7716,-2.7716,-2.7716,-2.7716,-2.7716,-2.7716,-2.7716,-2.7716,-2.7716,-2.7716,-2.7716,-2.7716,-2.7716,-2.7716,-2.7716,-2.7716,-2.7716,-2.7716,-2.7716,-2.7701,-2.7689,-2.763,-2.7539,-4.9509,-4.949,-4.949,-4.9058,-4.8401,-4.8363,-4.7894,-4.7068,-4.6279,-4.581,-4.5547,-4.4895,-4.4482,-4.4482,-4.4482,-4.4482,-4.4482,-4.4364,-4.4069,-4.3538,-4.2618,-4.1773,-4.0985,-4.0134,-3.9871,-3.9608,-3.9608,-3.9608,-3.9608,-3.9608,-3.8819,-3.7674,-3.7204,-3.6415,-3.5202,-3.4771,-3.4612,-3.4612,-3.4612,-3.3899,-3.2668,-3.2142,-3.1453,-3.078,-3.0545,-3.0662,-3.0964,-3.1243,-3.1288,-3.1284,-3.1777,-3.1723,-3.151,-3.256,-3.2669,-3.256,-3.2759,-3.3103,-3.2741,-3.3049,-3.3393,-3.3393,-3.3393,-3.3393,-3.3404,-3.3433,-3.3477,-3.3661,-3.3629,-3.3625,-3.3666,-3.3652,-3.3629,-3.3516,-3.3368,-3.3309,-3.3247,-3.3078,-3.299,-3.3006,-3.2943,-3.2038,-3.102,-3.0544,-3.0011,-2.9116,-2.8394,-2.8295,-2.8183,-2.8027,-2.7869,-2.7757,-2.7716,-2.7716,-2.7716,-2.7716,-2.7716,-2.7716,-2.7716,-2.7716,-2.7716,-2.7716,-2.7716,-2.7716,-2.7716,-2.7716,-2.7716,-2.7716,-2.7716,-2.7716,-2.7716,-2.7716,-2.7701,-2.7642,-2.7567,-4.8345,-4.8758,-4.8776,-4.8269,-4.7556,-4.7519,-4.7049,-4.6298,-4.5885,-4.5435,-4.504,-4.4688,-4.4482,-4.4482,-4.4482,-4.4482,-4.4388,-4.4045,-4.367,-4.2994,-4.2018,-4.1154,-4.0722,-4.004,-3.9608,-3.9608,-3.9608,-3.9608,-3.9608,-3.9495,-3.8932,-3.7906,-3.7298,-3.6573,-3.5259,-3.4827,-3.4669,-3.4612,-3.4556,-3.4245,-3.3588,-3.3023,-3.2454,-3.1744,-3.1671,-3.1671,-3.1751,-3.2315,-3.2419,-3.251,-3.2958,-3.2963,-3.2655,-3.3092,-3.3358,-3.3176,-3.334,-3.3356,-3.3027,-3.3245,-3.3353,-3.3393,-3.3408,-3.3452,-3.352,-3.3577,-3.3643,-3.3842,-3.3829,-3.3855,-3.3934,-3.3908,-3.3939,-3.3829,-3.3592,-3.3583,-3.3522,-3.3364,-3.3262,-3.3273,-3.3227,-3.2419,-3.1649,-3.1151,-3.0419,-2.922,-2.8619,-2.8451,-2.8264,-2.8035,-2.7876,-2.773,-2.7716,-2.7716,-2.7716,-2.7716,-2.7716,-2.7716,-2.7716,-2.7716,-2.7716,-2.7716,-2.7716,-2.7716,-2.7716,-2.7716,-2.7716,-2.7716,-2.7716,-2.7716,-2.7716,-2.7716,-2.7701,-2.7657,-2.7474,-4.7237,-4.7575,-4.7819,-4.7425,-4.6692,-4.6692,-4.6186,-4.5435,-4.5378,-4.5059,-4.4632,-4.4482,-4.4482,-4.4482,-4.4463,-4.435,-4.412,-4.3557,-4.3031,-4.2318,-4.1529,-4.076,-4.0322,-3.9815,-3.9608,-3.9608,-3.9608,-3.9608,-3.9608,-3.9514,-3.9157,-3.83,-3.7467,-3.6667,-3.5859,-3.5071,-3.4612,-3.4612,-3.4612,-3.4414,-3.4057,-3.3607,-3.322,-3.286,-3.2686,-3.2575,-3.2753,-3.2939,-3.3232,-3.3579,-3.3692,-3.3668,-3.3511,-3.3602,-3.3743,-3.3652,-3.3762,-3.3707,-3.3538,-3.3569,-3.352,-3.3481,-3.3422,-3.3481,-3.3643,-3.3698,-3.3834,-3.4049,-3.4049,-3.4086,-3.4136,-3.4142,-3.4074,-3.4023,-3.3902,-3.3881,-3.3815,-3.3648,-3.362,-3.3698,-3.3597,-3.3266,-3.253,-3.1911,-3.0898,-2.9485,-2.8883,-2.8639,-2.8401,-2.8176,-2.7954,-2.7806,-2.7716,-2.7716,-2.7716,-2.7716,-2.7716,-2.7716,-2.7716,-2.7716,-2.7716,-2.7716,-2.7716,-2.7716,-2.7716,-2.7716,-2.7716,-2.7716,-2.7716,-2.7716,-2.7716,-2.7716,-2.7701,-2.7624,-2.7365,-4.6561,-4.5941,-4.673,-4.6561,-4.5791,-4.5772,-4.5341,-4.4688,-4.4632,-4.4613,-4.4501,-4.4482,-4.4482,-4.4482,-4.4426,-4.412,-4.3426,-4.3327,-4.2412,-4.1492,-4.0797,-4.034,-3.9965,-3.9702,-3.9608,-3.9608,-3.9608,-3.9608,-3.9552,-3.9401,-3.8988,-3.83,-3.7493,-3.6704,-3.5878,-3.5071,-3.465,-3.4612,-3.4612,-3.4274,-3.3907,-3.3567,-3.3406,-3.3037,-3.2523,-3.2442,-3.3701,-3.3393,-3.3331,-3.3858,-3.4023,-3.4011,-3.3895,-3.3947,-3.3972,-3.3985,-3.3985,-3.3959,-3.3947,-3.3881,-3.3834,-3.3703,-3.3563,-3.352,-3.3726,-3.3726,-3.3895,-3.4228,-3.4245,-3.43,-3.4347,-3.4358,-3.4209,-3.4111,-3.4036,-3.3998,-3.3965,-3.3939,-3.3921,-3.4086,-3.3932,-3.3604,-3.3191,-3.25,-3.1483,-3.0102,-2.9163,-2.8905,-2.8696,-2.8443,-2.8134,-2.7925,-2.776,-2.7716,-2.7716,-2.7716,-2.7716,-2.7716,-2.7716,-2.7716,-2.7716,-2.7716,-2.7716,-2.7716,-2.7716,-2.7716,-2.7716,-2.7716,-2.7716,-2.7716,-2.7716,-2.7716,-2.755,-2.7398,-2.7115,-4.527,-4.5021,-4.5326,-4.527,-4.4946,-4.4965,-4.4782,-4.4519,-4.4482,-4.4482,-4.4482,-4.4482,-4.4482,-4.4482,-4.4444,-4.4083,-4.3294,-4.2693,-4.1792,-4.0947,-4.0309,-3.9927,-3.9627,-3.9608,-3.9608,-3.9608,-3.9608,-3.9608,-3.957,-3.9176,-3.8732,-3.8131,-3.7437,-3.6704,-3.5878,-3.5071,-3.4706,-3.4612,-3.4612,-3.4387,-3.4282,-3.4122,-3.4027,-3.3783,-3.3659,-3.3498,-3.3938,-3.3846,-3.3864,-3.3988,-3.4215,-3.4179,-3.408,-3.4136,-3.4173,-3.4185,-3.4185,-3.4233,-3.4257,-3.4148,-3.3908,-3.3753,-3.3629,-3.3671,-3.3855,-3.3972,-3.4185,-3.4374,-3.4439,-3.4439,-3.445,-3.4374,-3.4257,-3.4173,-3.4111,-3.4074,-3.408,-3.4055,-3.408,-3.4148,-3.413,-3.3951,-3.3518,-3.305,-3.1934,-3.0761,-2.9895,-2.9195,-2.9075,-2.8815,-2.8499,-2.8145,-2.7965,-2.7856,-2.7841,-2.7804,-2.7733,-2.7716,-2.7716,-2.7716,-2.7716,-2.7716,-2.7716,-2.7716,-2.7716,-2.7716,-2.7716,-2.7716,-2.7716,-2.7716,-2.7716,-2.7716,-2.7489,-2.7227,-2.6906,-4.4482,-4.4482,-4.4482,-4.4482,-4.4482,-4.4482,-4.4482,-4.4482,-4.4482,-4.4482,-4.4482,-4.4482,-4.4327,-4.4214,-4.4102,-4.3426,-4.2543,-4.1849,-4.1191,-4.0497,-3.9908,-3.9627,-3.9608,-3.9608,-3.9608,-3.9608,-3.9608,-3.9608,-3.957,-3.8732,-3.8413,-3.8037,-3.7268,-3.6404,-3.5897,-3.509,-3.4612,-3.4612,-3.4612,-3.4612,-3.4575,-3.4545,-3.4524,-3.4266,-3.4024,-3.4015,-3.4039,-3.4018,-3.4018,-3.4186,-3.4374,-3.4409,-3.4328,-3.4293,-3.4393,-3.4374,-3.4386,-3.4473,-3.4473,-3.4305,-3.4018,-3.3947,-3.3834,-3.3908,-3.4074,-3.4221,-3.434,-3.4547,-3.4539,-3.4517,-3.4495,-3.4374,-3.4293,-3.4209,-3.4173,-3.4167,-3.4167,-3.4167,-3.4179,-3.4216,-3.4154,-3.4087,-3.3596,-3.307,-3.2106,-3.1189,-3.0656,-3.0057,-2.9857,-2.9511,-2.8973,-2.8581,-2.8212,-2.8114,-2.8035,-2.7894,-2.7786,-2.7716,-2.7716,-2.7716,-2.7716,-2.7751,-2.7751,-2.7716,-2.7716,-2.7716,-2.7716,-2.7716,-2.7716,-2.7716,-2.7716,-2.7716,-2.7507,-2.7244,-2.689,-4.4482,-4.4482,-4.4482,-4.4482,-4.4482,-4.4482,-4.4482,-4.4482,-4.4482,-4.4482,-4.4482,-4.4482,-4.4064,-4.3595,-4.352,-4.2675,-4.1473,-4.1022,-4.0534,-3.9908,-3.9721,-3.9608,-3.9608,-3.9608,-3.9608,-3.9608,-3.9608,-3.9608,-3.9589,-3.8732,-3.8375,-3.785,-3.6948,-3.5953,-3.5803,-3.5033,-3.4631,-3.4612,-3.4612,-3.4612,-3.4612,-3.4612,-3.4572,-3.4438,-3.406,-3.4064,-3.427,-3.4064,-3.4102,-3.4442,-3.4528,-3.455,-3.4528,-3.4517,-3.4569,-3.4569,-3.4561,-3.4591,-3.4591,-3.4404,-3.4281,-3.4179,-3.4049,-3.4074,-3.4221,-3.4316,-3.4386,-3.4591,-3.4602,-3.4528,-3.4461,-3.4386,-3.4316,-3.4257,-3.4221,-3.4216,-3.4216,-3.4216,-3.4216,-3.4173,-3.4161,-3.4056,-3.3556,-3.2976,-3.2151,-3.1488,-3.12,-3.0917,-3.0624,-3.0137,-2.9554,-2.9254,-2.883,-2.8556,-2.8438,-2.8035,-2.7856,-2.7768,-2.7839,-2.7979,-2.7982,-2.7999,-2.7947,-2.7821,-2.7716,-2.7716,-2.7716,-2.7716,-2.7716,-2.7716,-2.7716,-2.7672,-2.7461,-2.7213,-2.6857,-4.4482,-4.4482,-4.4482,-4.4482,-4.4482,-4.4482,-4.4482,-4.4482,-4.4482,-4.4482,-4.4482,-4.4482,-4.4064,-4.352,-4.3069,-4.2318,-4.1004,-4.076,-4.0365,-3.9683,-3.9608,-3.9608,-3.9608,-3.9608,-3.9608,-3.9608,-3.9608,-3.9608,-3.957,-3.8713,-3.8375,-3.7906,-3.6723,-3.5672,-3.5146,-3.4677,-3.4612,-3.4612,-3.4612,-3.4612,-3.4612,-3.4612,-3.4594,-3.4594,-3.4264,-3.4282,-3.4556,-3.4189,-3.432,-3.4575,-3.4612,-3.4612,-3.4612,-3.4612,-3.4612,-3.4612,-3.4612,-3.4612,-3.4583,-3.4506,-3.4439,-3.4328,-3.4257,-3.4233,-3.4293,-3.4431,-3.4528,-3.4591,-3.4612,-3.4539,-3.4484,-3.4427,-3.437,-3.4281,-3.4245,-3.4228,-3.4216,-3.4216,-3.4216,-3.4148,-3.4111,-3.3784,-3.3334,-3.3023,-3.2286,-3.1858,-3.1564,-3.1419,-3.1204,-3.0686,-3.0137,-2.9971,-2.9642,-2.9259,-2.8912,-2.8702,-2.8315,-2.814,-2.8333,-2.8579,-2.8544,-2.8438,-2.8386,-2.8386,-2.8017,-2.7716,-2.7716,-2.7716,-2.7716,-2.7716,-2.7821,-2.7742,-2.7539,-2.7213,-2.6774,-4.4482,-4.4482,-4.4482,-4.4482,-4.4482,-4.4482,-4.4482,-4.4482,-4.4482,-4.4482,-4.4444,-4.4219,-4.3613,-4.2975,-4.2449,-4.183,-4.044,-4.0347,-4.0253,-3.9627,-3.9608,-3.9608,-3.9608,-3.9608,-3.9608,-3.9608,-3.9608,-3.9608,-3.9533,-3.8713,-3.815,-3.7549,-3.6592,-3.5803,-3.5202,-3.4921,-3.4612,-3.4612,-3.4612,-3.4612,-3.4612,-3.4612,-3.4612,-3.4612,-3.4556,-3.4612,-3.4612,-3.4612,-3.4612,-3.4612,-3.4612,-3.4612,-3.4612,-3.4612,-3.4612,-3.4612,-3.4612,-3.4612,-3.4583,-3.4583,-3.4517,-3.442,-3.4416,-3.4416,-3.4409,-3.4517,-3.458,-3.4612,-3.4612,-3.4569,-3.4495,-3.4439,-3.4381,-3.4305,-3.4245,-3.4209,-3.4216,-3.4216,-3.4216,-3.4148,-3.3985,-3.3597,-3.3193,-3.2896,-3.2474,-3.2188,-3.1918,-3.1836,-3.17,-3.1202,-3.086,-3.0808,-3.0469,-2.9999,-2.972,-2.9562,-2.9141,-2.8614,-2.8877,-2.9281,-2.9123,-2.9035,-2.9,-2.8807,-2.821,-2.7768,-2.7733,-2.7716,-2.7804,-2.7929,-2.8087,-2.7937,-2.7654,-2.7365,-2.7029,-4.4496,-4.4496,-4.4482,-4.4482,-4.4482,-4.4482,-4.4482,-4.4482,-4.4482,-4.4463,-4.4383,-4.3632,-4.29,-4.1948,-4.1229,-4.0528,-3.989,-3.9739,-3.9683,-3.9627,-3.9608,-3.9608,-3.9608,-3.9608,-3.9608,-3.9608,-3.9608,-3.9589,-3.9495,-3.8957,-3.8169,-3.7336,-3.661,-3.6028,-3.5597,-3.5033,-3.4688,-3.4612,-3.4612,-3.4612,-3.4612,-3.4612,-3.4612,-3.4612,-3.4612,-3.4612,-3.4612,-3.4612,-3.4612,-3.4612,-3.4612,-3.4612,-3.4612,-3.4612,-3.4612,-3.4612,-3.4612,-3.4612,-3.4612,-3.4612,-3.4612,-3.4539,-3.458,-3.4583,-3.4572,-3.4591,-3.4602,-3.4612,-3.4612,-3.4558,-3.4514,-3.4439,-3.4381,-3.4293,-3.4233,-3.4209,-3.4216,-3.4216,-3.4216,-3.4124,-3.3959,-3.3625,-3.3147,-3.2804,-3.2574,-3.2401,-3.2186,-3.2203,-3.2047,-3.1764,-3.1553,-3.1783,-3.1385,-3.0772,-3.0492,-3.0299,-2.9895,-2.9369,-2.9755,-3.0088,-2.986,-2.9667,-2.9562,-2.9193,-2.8263,-2.7894,-2.8052,-2.8035,-2.7982,-2.8175,-2.8669,-2.8347,-2.8148,-2.7915,-2.7657,-4.4621,-4.472,-4.4613,-4.4537,-4.4482,-4.4482,-4.4482,-4.4482,-4.4482,-4.4238,-4.3613,-4.3407,-4.2412,-4.1154,-4.0891,-4.0284,-3.9871,-3.9608,-3.9627,-3.9608,-3.9608,-3.9608,-3.9608,-3.9608,-3.9608,-3.9608,-3.9608,-3.9608,-3.9589,-3.9195,-3.8732,-3.8,-3.7054,-3.6528,-3.5822,-3.5033,-3.4763,-3.4612,-3.4612,-3.4612,-3.4612,-3.4612,-3.4612,-3.4612,-3.4612,-3.4612,-3.4612,-3.4612,-3.4612,-3.4612,-3.4612,-3.4612,-3.4612,-3.4612,-3.4612,-3.4612,-3.4612,-3.4612,-3.4612,-3.4612,-3.4612,-3.4612,-3.4612,-3.4612,-3.4612,-3.4612,-3.4612,-3.4612,-3.4602,-3.4569,-3.4514,-3.4439,-3.4381,-3.4293,-3.4233,-3.4209,-3.4216,-3.4216,-3.4204,-3.4036,-3.3868,-3.3508,-3.3021,-3.2753,-3.254,-3.2457,-3.2423,-3.244,-3.2369,-3.2087,-3.1999,-3.2228,-3.2123,-3.1458,-3.1142,-3.0931,-3.0545,-3.023,-3.0633,-3.0878,-3.0773,-3.0562,-3.0246,-2.9597,-2.8702,-2.8473,-2.8579,-2.8561,-2.8614,-2.9145,-2.9567,-2.9068,-2.8643,-2.8487,-2.8425,-4.4713,-4.4782,-4.4667,-4.4551,-4.4515,-4.4482,-4.4332,-4.4083,-4.4026,-4.3707,-4.327,-4.2562,-4.1736,-4.091,-4.0459,-4.004,-3.9646,-3.9608,-3.9608,-3.9608,-3.9608,-3.9608,-3.9608,-3.9608,-3.9608,-3.9608,-3.9608,-3.9608,-3.957,-3.9552,-3.9214,-3.8788,-3.7768,-3.6941,-3.6209,-3.5326,-3.4669,-3.4612,-3.4612,-3.4612,-3.4612,-3.4612,-3.4612,-3.4612,-3.4612,-3.4612,-3.4612,-3.4612,-3.4612,-3.4612,-3.4612,-3.4612,-3.4612,-3.4612,-3.4612,-3.4612,-3.4612,-3.4612,-3.4612,-3.4612,-3.4612,-3.4612,-3.4612,-3.4612,-3.4612,-3.4612,-3.4612,-3.4612,-3.4583,-3.4561,-3.4495,-3.4439,-3.4381,-3.4293,-3.4245,-3.4228,-3.4216,-3.4216,-3.4086,-3.3934,-3.3648,-3.3306,-3.2972,-3.2719,-3.254,-3.2457,-3.2406,-3.2423,-3.2422,-3.2318,-3.223,-3.2335,-3.2335,-3.209,-3.1809,-3.1563,-3.137,-3.123,-3.1475,-3.1651,-3.1633,-3.1142,-3.0527,-2.986,-2.9158,-2.907,-2.9053,-2.9316,-2.9493,-2.9988,-3.0324,-3.0085,-2.9671,-2.9348,-2.9334,-4.4783,-4.4843,-4.468,-4.4495,-4.4402,-4.4332,-4.3914,-4.3219,-4.3069,-4.305,-4.2712,-4.1511,-4.0872,-4.0472,-4.0021,-3.9777,-3.9608,-3.9608,-3.9608,-3.9608,-3.9608,-3.9608,-3.9608,-3.9608,-3.9608,-3.9608,-3.957,-3.9495,-3.9439,-3.927,-3.912,-3.927,-3.7899,-3.6847,-3.6152,-3.5213,-3.4631,-3.4612,-3.4612,-3.4612,-3.4612,-3.4612,-3.4612,-3.4612,-3.4612,-3.4612,-3.4612,-3.4612,-3.4612,-3.4612,-3.4612,-3.4612,-3.4612,-3.4612,-3.4612,-3.4612,-3.4612,-3.4612,-3.4612,-3.4612,-3.4612,-3.4612,-3.4612,-3.4612,-3.4612,-3.4612,-3.4612,-3.4612,-3.4602,-3.4561,-3.4517,-3.445,-3.4381,-3.4323,-3.4276,-3.424,-3.4216,-3.4191,-3.4074,-3.3895,-3.362,-3.3262,-3.2943,-3.2688,-3.2506,-3.2422,-3.2406,-3.2406,-3.2406,-3.2406,-3.2406,-3.2406,-3.2388,-3.2353,-3.2283,-3.2107,-3.2213,-3.2248,-3.2248,-3.223,-3.2037,-3.144,-3.0703,-3.0124,-2.9597,-2.9527,-2.9544,-2.9772,-3.0091,-3.0552,-3.0869,-3.1011,-3.0751,-3.03,-3.0194,-4.5159,-4.5129,-4.4764,-4.4245,-4.3632,-4.3576,-4.3106,-4.2267,-4.1642,-4.1454,-4.1323,-4.0966,-4.0472,-3.9927,-3.9758,-3.9608,-3.9608,-3.9608,-3.9608,-3.9608,-3.9608,-3.9608,-3.9608,-3.9608,-3.9608,-3.9608,-3.9533,-3.9183,-3.8751,-3.8488,-3.8,-3.7099,-3.6686,-3.6735,-3.5627,-3.4744,-3.4631,-3.4612,-3.4612,-3.4612,-3.4612,-3.4612,-3.4612,-3.4612,-3.4612,-3.4612,-3.4612,-3.4612,-3.4612,-3.4612,-3.4612,-3.4612,-3.4612,-3.4612,-3.4612,-3.4612,-3.4612,-3.4612,-3.4612,-3.4612,-3.4612,-3.4612,-3.4612,-3.4612,-3.4612,-3.4612,-3.4612,-3.4612,-3.4602,-3.4561,-3.4528,-3.4461,-3.4393,-3.4335,-3.4276,-3.424,-3.4216,-3.4136,-3.4074,-3.3823,-3.3578,-3.3262,-3.2928,-3.2706,-3.2524,-3.244,-3.2423,-3.2406,-3.2406,-3.2406,-3.2406,-3.2406,-3.2406,-3.2406,-3.2406,-3.2406,-3.2406,-3.2406,-3.2353,-3.2371,-3.2406,-3.1809,-3.1142,-3.058,-3.0141,-3.0159,-3.0159,-3.0159,-3.053,-3.1077,-3.1376,-3.1533,-3.1478,-3.1111,-3.1065,-4.5371,-4.5275,-4.45,-4.3843,-4.3324,-4.2913,-4.2243,-4.1479,-4.0985,-4.0591,-4.0303,-4.0234,-4.0002,-3.9608,-3.9608,-3.9608,-3.9608,-3.9608,-3.9608,-3.9608,-3.9608,-3.9608,-3.9608,-3.957,-3.9608,-3.957,-3.9082,-3.8601,-3.7925,-3.8131,-3.7699,-3.6573,-3.6791,-3.6434,-3.5165,-3.4875,-3.4612,-3.4612,-3.4612,-3.4612,-3.4612,-3.4612,-3.4612,-3.4612,-3.4612,-3.4612,-3.4612,-3.4612,-3.4612,-3.4612,-3.4612,-3.4612,-3.4612,-3.4612,-3.4612,-3.4612,-3.4612,-3.4612,-3.4612,-3.4612,-3.4612,-3.4612,-3.4612,-3.4612,-3.4612,-3.4612,-3.4612,-3.4612,-3.4612,-3.4591,-3.4539,-3.4484,-3.4427,-3.437,-3.4288,-3.4228,-3.4216,-3.4191,-3.3998,-3.3739,-3.3469,-3.3199,-3.2896,-3.264,-3.2473,-3.2422,-3.2406,-3.2406,-3.2406,-3.2406,-3.2406,-3.2406,-3.2406,-3.2406,-3.2406,-3.2406,-3.2406,-3.2406,-3.2406,-3.2406,-3.2371,-3.2055,-3.1598,-3.1089,-3.0843,-3.0966,-3.0949,-3.0826,-3.1144,-3.1742,-3.1935,-3.2056,-3.1912,-3.1654,-3.134,-4.5398,-4.5149,-4.3977,-4.3319,-4.3007,-4.2246,-4.1437,-4.0735,-4.0628,-4.0247,-3.9739,-3.9683,-3.9608,-3.9608,-3.9608,-3.9608,-3.9608,-3.9608,-3.9608,-3.9608,-3.9608,-3.9608,-3.9533,-3.9458,-3.9195,-3.8857,-3.8394,-3.7699,-3.6998,-3.7305,-3.7324,-3.6941,-3.6735,-3.6498,-3.5728,-3.509,-3.4612,-3.4612,-3.4612,-3.4612,-3.4612,-3.4612,-3.4612,-3.4612,-3.4612,-3.4612,-3.4612,-3.4612,-3.4612,-3.4612,-3.4612,-3.4612,-3.4612,-3.4612,-3.4612,-3.4612,-3.4612,-3.4612,-3.4612,-3.4612,-3.4612,-3.4612,-3.4612,-3.4612,-3.4612,-3.4612,-3.4612,-3.4612,-3.4612,-3.4602,-3.455,-3.4495,-3.4439,-3.4363,-3.4281,-3.4216,-3.4216,-3.4204,-3.3965,-3.3689,-3.3412,-3.3157,-3.2864,-3.2607,-3.2491,-3.244,-3.2406,-3.2406,-3.2406,-3.2406,-3.2406,-3.2406,-3.2406,-3.2406,-3.2406,-3.2406,-3.2406,-3.2406,-3.2406,-3.2406,-3.2371,-3.2177,-3.1949,-3.1668,-3.1528,-3.144,-3.1528,-3.1475,-3.1898,-3.2179,-3.2161,-3.209,-3.1802,-3.1524,-3.1201,-4.5145,-4.4221,-4.3262,-4.2357,-4.1548,-4.13,-4.0755,-3.9982,-3.9877,-3.9721,-3.967,-3.962,-3.9608,-3.9608,-3.9608,-3.9608,-3.9608,-3.9608,-3.9608,-3.9608,-3.9608,-3.9608,-3.9495,-3.9214,-3.8275,-3.7861,-3.7568,-3.6941,-3.6397,-3.6366,-3.601,-3.5296,-3.6085,-3.5803,-3.5026,-3.4631,-3.4706,-3.4669,-3.4612,-3.4612,-3.4612,-3.4612,-3.4612,-3.4612,-3.4612,-3.4612,-3.4612,-3.4612,-3.4612,-3.4612,-3.4612,-3.4612,-3.4612,-3.4612,-3.4612,-3.4612,-3.4612,-3.4612,-3.4612,-3.4612,-3.4612,-3.4612,-3.4612,-3.4612,-3.4612,-3.4612,-3.4612,-3.4612,-3.4612,-3.4612,-3.4561,-3.4484,-3.4416,-3.4351,-3.4281,-3.4221,-3.4216,-3.4161,-3.4023,-3.3734,-3.3441,-3.3126,-3.2768,-3.2574,-3.244,-3.2406,-3.2406,-3.2406,-3.2406,-3.2406,-3.2406,-3.2406,-3.2406,-3.2406,-3.2406,-3.2406,-3.2406,-3.2406,-3.2406,-3.2406,-3.2406,-3.2406,-3.2195,-3.1967,-3.1739,-3.1581,-3.1703,-3.1932,-3.1933,-3.2109,-3.2126,-3.2019,-3.1747,-3.1468,-3.1218]},{"header":{"parameterUnit":"m.s-1","parameterCategory":1,"la1":31.0,"la2":29.5877,"lo1":-88.7671,"lo2":-86.6584,"dy":0.0162,"dx":0.0185,"nx":115,"ny":88,"refTime":"2026-04-17T00:00:00:Z","depth":0,"parameterNumber":3,"parameterNumberName":"V-component_of_WINDS"},"data":[0.0,0.0,0.0,0.0,0.0,0.0,0.0,0.0,0.0,0.0,0.0,0.0,0.0,0.0,0.0,0.0,0.0,0.0,0.0,0.0,0.0,0.0,0.0,0.0,0.0,0.0,0.0,0.0,0.0,0.0,0.0,0.0,0.0,0.0,0.0,0.0,0.0,0.0,0.0,0.0,0.0,0.0,0.0,0.0,0.0,0.0,0.0,0.0,0.0,0.0,0.0,0.0,0.0,0.0,0.0,0.0,0.0,0.0,0.0,0.0,0.0,0.0,0.0,0.0,0.0,0.0,0.0,0.0,0.0,0.0,0.0,0.0,0.0,0.0,0.0,0.0,0.0,0.0,0.0,0.0,0.0,0.0,0.0,0.0,0.0,0.0,0.0,0.0,0.0,0.0,0.0,0.0,0.0,0.0,0.0,0.0,0.0,0.0,0.0,0.0,0.0,0.0,0.0,0.0,0.0,0.0,0.0,0.0,0.0,0.0,0.0,0.0,0.0,0.0,0.0,0.0,0.0,0.0,0.0,0.0,0.0,0.0,0.0,0.0,0.0,0.0,0.0,0.0,0.0,0.0,0.0,0.0,0.0,0.0,0.0,0.0,0.0,0.0,0.0,0.0,0.0,0.0,0.0,0.0,0.0,0.0,0.0,0.0,0.0,0.0,0.0,0.0,0.0,0.0,0.0,0.0,0.0,0.0,0.0,0.0,0.0,0.0,0.0,0.0,0.0,0.0,0.0,0.0,0.0,0.0,0.0,0.0,0.0,0.0,0.0,0.0,0.0,0.0,0.0,0.0,0.0,0.0,0.0,0.0,0.0,0.0,0.0,0.0,0.0,0.0,0.0,0.0,0.0,0.0,0.0,0.0,0.0,0.0,0.0,0.0,0.0,0.0,0.0,0.0,0.0,0.0,0.0,0.0,0.0,0.0,0.0,0.0,0.0,0.0,0.0,0.0,0.0,0.0,0.0,0.0,0.0,0.0,0.0,0.0,0.0,0.0,0.0,0.0,0.0,0.0,0.0,0.0,0.0,0.0,0.0,0.0,0.0,0.0,0.0,0.0,0.0,0.0,0.0,0.0,0.0,0.0,0.0,0.0,0.0,0.0,0.0,0.0,0.0,0.0,0.0,0.0,0.0,0.0,0.0,0.0,0.0,0.0,0.0,0.0,0.0,0.0,0.0,0.0,0.0,0.0,0.0,0.0,0.0,0.0,0.0,0.0,0.0,0.0,0.0,0.0,0.0,0.0,0.0,0.0,0.0,0.0,0.0,0.0,0.0,0.0,0.0,0.0,0.0,0.0,0.0,0.0,0.0,0.0,0.0,0.0,0.0,0.0,0.0,0.0,0.0,0.0,0.0,0.0,0.0,0.0,0.0,0.0,0.0,0.0,0.0,0.0,0.0,0.0,0.0,0.0,0.0,0.0,0.0,0.0,0.0,0.0,0.0,0.0,0.0,0.0,0.0,0.0,0.0,0.0,0.0,0.0,0.0,0.0,0.0,0.0,0.0,0.0,0.0,0.0,0.0,0.0,0.0,0.0,0.0,0.0,0.0,0.0,0.0,0.0,0.0,0.0,0.0,0.0,0.0,0.0,0.0,0.0,0.0,0.0,0.0,0.0,0.0,0.0,0.0,0.0,0.0,0.0,0.0,0.0,0.0,0.0,0.0,0.0,0.0,0.0,0.0,0.0,0.0,0.0,0.0,0.0,0.0,0.0,0.0,0.0,0.0,0.0,0.0,0.0,0.0,0.0,0.0,0.0,0.0,0.0,0.0,0.0,0.0,0.0,0.0,0.0,0.0,0.0,0.0,0.0,0.0,0.0,0.0,0.0,0.0,0.0,0.0,0.0,0.0,0.0,0.0,0.0,0.0,0.0,0.0,0.0,0.0,0.0,0.0,0.0,0.0,0.0,0.0,0.0,0.0,0.0,0.0,0.0,0.0,0.0,0.0,0.0,0.0,0.0,0.0,0.0,0.0,0.0,0.0,0.0,0.0,0.0,0.0,0.0,0.0,0.0,0.0,0.0,0.0,0.0,0.0,0.0,0.0,0.0,0.0,0.0,0.0,0.0,0.0,0.0,0.0,0.0,0.0,0.0,0.0,0.0,0.0,0.0,0.0,0.0,0.0,0.0,0.0,0.0,0.0,0.0,0.0,0.0,0.0,0.0,0.0,0.0,0.0,0.0,0.0,0.0,0.0,0.0,0.0,0.0,0.0,0.0,0.0,0.0,0.0,0.0,0.0,0.0,0.0,0.0,0.0,0.0,0.0,0.0,0.0,0.0,0.0,0.0,0.0,0.0,0.0,0.0,0.0,0.0,0.0,0.0,0.0,0.0,0.0,0.0,0.0,0.0,0.0,0.0,0.0,0.0,0.0,0.0,0.0,0.0,0.0,0.0,0.0,0.0,0.0,0.0,0.0,0.0,0.0,0.0,0.0,0.0,0.0,0.0,0.0,0.0,0.0,0.0,0.0,0.0,0.0,0.0,0.0,0.0,0.0,0.0,0.0,0.0,0.0,0.0,0.0,0.0,0.0,0.0,0.0,0.0,0.0,0.0,0.0,0.0,0.0,0.0,0.0,0.0,0.0,0.0,0.0,0.0,0.0,0.0,0.0,0.0,0.0,0.0,0.0,0.0,0.0,0.0,0.0,0.0,0.0,0.0,0.0,0.0,0.0,0.0,0.0,0.0,0.0,0.0,0.0,0.0,0.0,0.0,0.0,0.0,0.0,0.0,0.0,0.0,0.0,0.0,0.0,0.0,0.0,0.0,0.0,0.0,0.0,0.0,0.0,0.0,0.0,0.0,0.0,0.0,0.0,0.0,0.0,0.0,0.0,0.0,0.0,0.0,0.0,0.0,0.0,0.0,0.0,0.0,0.0,0.0,0.0,0.0,0.0,0.0,0.0,0.0,0.0,0.0,0.0,0.0,0.0,0.0,0.0,0.0,0.0,0.0,0.0,0.0,0.0,0.0,0.0,0.0,0.0,0.0,0.0,0.0,0.0,0.0,0.0,0.0,0.0,0.0,0.0,0.0,0.0,0.0,0.0,0.0,0.0,0.0,0.0,0.0,0.0,0.0,0.0,0.0,0.0,0.0,0.0,0.0,0.0,0.0,0.0,0.0,0.0,0.0,0.0,0.0,0.0,0.0,0.0,0.0,0.0,0.0,0.0,0.0,0.0,0.0,0.0,0.0,0.0,0.0,0.0,0.0,0.0,0.0,0.0,0.0,0.0,0.0,0.0,0.0,0.0,0.0,0.0,0.0,0.0,0.0,0.0,0.0,0.0,0.0,0.0,0.0,0.0,0.0,0.0,0.0,0.0,0.0,0.0,0.0,0.0,0.0,0.0,0.0,0.0,0.0,0.0,0.0,0.0,0.0,0.0,0.0,0.0,0.0,0.0,0.0,0.0,0.0,0.0,0.0,0.0,0.0,0.0,0.0,0.0,0.0,0.0,0.0,0.0,0.0,0.0,0.0,0.0,0.0,0.0,0.0,0.0,0.0,0.0,0.0,0.0,0.0,0.0,0.0,0.0,0.0,0.0,0.0,0.0,0.0,0.0,0.0,0.0,0.0,0.0,0.0,0.0,0.0,0.0,0.0,0.0,0.0,0.0,0.0,0.0,0.0,0.0,0.0,0.0,0.0,0.0,0.0,0.0,0.0,0.0,0.0,0.0,0.0,0.0,0.0,0.0,0.0,0.0,0.0,0.0,0.0,0.0,0.0,0.0,0.0,0.0,0.0,0.0,0.0,0.0,0.0,0.0,0.0,0.0,0.0,0.0,0.0,0.0,0.0,0.0,0.0,0.0,0.0,0.0,0.0,0.0,0.0,0.0,0.0,0.0,0.0,0.0,0.0,0.0,0.0,0.0,0.0,0.0,0.0,0.0,0.0,0.0,0.0,0.0,0.0,0.0,0.0,0.0,0.0,0.0,0.0,0.0,0.0,0.0,0.0,0.0,0.0,0.0,0.0,0.0,0.0,0.0,0.0,0.0,0.0,0.0,0.0,0.0,0.0,0.0,0.0,0.0,0.0,0.0,0.0,0.0,0.0,0.0,0.0,0.0,0.0,0.0,0.0,0.0,0.0,0.0,0.0,0.0,0.0,0.0,0.0,0.0,0.0,0.0,0.0,0.0,0.0,0.0,0.0,0.0,0.0,0.0,0.0,0.0,0.0,0.0,0.0,0.0,0.0,0.0,0.0,0.0,0.0,0.0,0.0,0.0,0.0,0.0,0.0,0.0,0.0,0.0,0.0,0.0,0.0,0.0,0.0,-1.0657,0.0,0.0,0.0,0.0,0.0,0.0,0.0,0.0,0.0,0.0,0.0,0.0,0.0,0.0,0.0,0.0,0.0,0.0,0.0,0.0,0.0,0.0,0.0,0.0,0.0,0.0,0.0,0.0,0.0,0.0,0.0,0.0,0.0,0.0,0.0,0.0,0.0,0.0,0.0,0.0,0.0,0.0,0.0,0.0,0.0,0.0,0.0,0.0,0.0,0.0,0.0,0.0,0.0,0.0,0.0,0.0,0.0,0.0,0.0,0.0,0.0,0.0,0.0,0.0,0.0,0.0,0.0,0.0,0.0,0.0,0.0,0.0,0.0,0.0,0.0,0.0,0.0,0.0,0.0,0.0,0.0,0.0,0.0,0.0,0.0,0.0,0.0,0.0,0.0,0.0,0.0,0.0,0.0,0.0,0.0,0.0,0.0,0.0,0.0,0.0,0.0,0.0,0.0,0.0,0.0,0.0,0.0,0.0,0.0,0.0,-1.1632,-1.1298,-1.1037,-1.0934,-1.0998,0.0,0.0,0.0,0.0,0.0,0.0,0.0,0.0,0.0,0.0,0.0,0.0,0.0,0.0,0.0,0.0,0.0,0.0,0.0,0.0,0.0,0.0,0.0,0.0,0.0,0.0,0.0,0.0,0.0,0.0,0.0,0.0,0.0,0.0,0.0,0.0,0.0,0.0,0.0,0.0,0.0,0.0,0.0,0.0,0.0,0.0,0.0,0.0,0.0,0.0,0.0,0.0,0.0,0.0,0.0,0.0,0.0,0.0,0.0,0.0,0.0,0.0,0.0,0.0,0.0,0.0,0.0,0.0,0.0,0.0,0.0,0.0,0.0,0.0,0.0,0.0,0.0,0.0,0.0,0.0,0.0,0.0,0.0,0.0,0.0,0.0,0.0,0.0,0.0,0.0,0.0,0.0,0.0,0.0,0.0,0.0,0.0,0.0,0.0,0.0,0.0,0.0,0.0,0.0,0.0,0.0,0.0,0.0,0.0,0.0,0.0,0.0,-1.1973,-1.1806,-1.1533,0.0,0.0,0.0,0.0,0.0,0.0,0.0,0.0,0.0,0.0,0.0,0.0,0.0,0.0,0.0,0.0,0.0,0.0,0.0,0.0,0.0,0.0,0.0,0.0,0.0,0.0,0.0,0.0,0.0,0.0,0.0,0.0,0.0,0.0,0.0,0.0,0.0,0.0,0.0,0.0,0.0,0.0,0.0,0.0,0.0,0.0,0.0,0.0,0.0,0.0,0.0,0.0,0.0,0.0,0.0,0.0,0.0,0.0,0.0,0.0,0.0,0.0,0.0,0.0,0.0,0.0,0.0,0.0,0.0,0.0,0.0,0.0,0.0,0.0,0.0,0.0,0.0,0.0,0.0,0.0,0.0,0.0,0.0,0.0,0.0,0.0,0.0,0.0,0.0,0.0,0.0,0.0,0.0,0.0,0.0,0.0,0.0,0.0,0.0,0.0,0.0,0.0,0.0,0.0,0.0,0.0,0.0,0.0,0.0,0.0,-1.2866,-1.3406,-1.2903,0.0,-1.2496,0.0,0.0,0.0,0.0,0.0,0.0,0.0,0.0,0.0,0.0,0.0,0.0,0.0,0.0,0.0,0.0,0.0,0.0,0.0,0.0,0.0,0.0,0.0,0.0,0.0,0.0,0.0,0.0,0.0,0.0,0.0,0.0,0.0,0.0,0.0,0.0,0.0,0.0,0.0,0.0,0.0,0.0,0.0,0.0,0.0,0.0,0.0,0.0,0.0,0.0,0.0,0.0,0.0,0.0,0.0,0.0,0.0,0.0,0.0,0.0,0.0,0.0,0.0,0.0,0.0,0.0,0.0,0.0,0.0,0.0,0.0,0.0,0.0,0.0,0.0,0.0,0.0,0.0,0.0,0.0,0.0,0.0,0.0,0.0,0.0,0.0,0.0,0.0,0.0,0.0,0.0,0.0,0.0,0.0,0.0,0.0,0.0,0.0,0.0,0.0,0.0,0.0,0.0,0.0,0.0,0.0,0.0,0.0,0.0,0.0,-1.3848,-1.4105,-1.3512,-1.3159,0.0,0.0,0.0,0.0,0.0,0.0,0.0,0.0,0.0,0.0,0.0,0.0,0.0,0.0,0.0,0.0,0.0,0.0,0.0,0.0,0.0,0.0,0.0,0.0,0.0,0.0,0.0,0.0,0.0,0.0,0.0,0.0,0.0,0.0,0.0,0.0,0.0,0.0,0.0,0.0,0.0,0.0,0.0,0.0,0.0,0.0,0.0,0.0,0.0,0.0,0.0,0.0,0.0,0.0,0.0,0.0,0.0,0.0,0.0,0.0,0.0,0.0,0.0,0.0,0.0,0.0,0.0,0.0,0.0,0.0,0.0,0.0,0.0,0.0,0.0,0.0,0.0,0.0,0.0,0.0,0.0,0.0,0.0,0.0,0.0,0.0,0.0,0.0,0.0,0.0,0.0,0.0,0.0,0.0,0.0,0.0,0.0,0.0,0.0,0.0,0.0,0.0,0.0,0.0,0.0,0.0,0.0,0.0,0.0,0.0,-1.4318,0.0,-1.4575,-1.4231,-1.3821,-1.3382,0.0,0.0,0.0,0.0,0.0,0.0,0.0,0.0,0.0,0.0,0.0,0.0,0.0,0.0,0.0,0.0,0.0,0.0,0.0,0.0,0.0,0.0,0.0,0.0,0.0,0.0,0.0,0.0,0.0,0.0,0.0,0.0,0.0,0.0,0.0,0.0,0.0,0.0,0.0,0.0,0.0,0.0,0.0,0.0,0.0,0.0,0.0,0.0,0.0,0.0,0.0,0.0,0.0,0.0,0.0,0.0,0.0,0.0,0.0,0.0,0.0,0.0,0.0,0.0,0.0,0.0,0.0,0.0,0.0,0.0,0.0,0.0,0.0,0.0,0.0,0.0,0.0,0.0,0.0,0.0,0.0,0.0,0.0,0.0,0.0,0.0,0.0,0.0,0.0,0.0,0.0,0.0,0.0,0.0,0.0,0.0,0.0,0.0,0.0,0.0,0.0,0.0,0.0,0.0,0.0,0.0,0.0,0.0,0.0,-1.4757,-1.4618,-1.4893,-1.5141,-1.4572,0.0,0.0,0.0,0.0,0.0,0.0,0.0,0.0,0.0,0.0,0.0,0.0,0.0,0.0,0.0,0.0,0.0,0.0,0.0,0.0,0.0,0.0,0.0,0.0,0.0,0.0,0.0,0.0,0.0,0.0,0.0,0.0,0.0,0.0,0.0,0.0,0.0,0.0,0.0,0.0,0.0,0.0,0.0,0.0,0.0,0.0,0.0,0.0,0.0,0.0,0.0,0.0,0.0,0.0,0.0,0.0,0.0,0.0,0.0,0.0,0.0,0.0,0.0,0.0,0.0,0.0,0.0,0.0,0.0,0.0,0.0,0.0,0.0,0.0,0.0,0.0,0.0,0.0,0.0,0.0,0.0,0.0,0.0,0.0,0.0,0.0,0.0,0.0,0.0,0.0,0.0,0.0,0.0,0.0,0.0,0.0,0.0,0.0,0.0,0.0,0.0,0.0,0.0,0.0,0.0,0.0,0.0,0.0,0.0,-1.3857,-1.426,-1.4911,-1.5774,-1.4582,-1.3792,0.0,0.0,0.0,0.0,0.0,0.0,0.0,0.0,0.0,0.0,0.0,0.0,0.0,0.0,0.0,0.0,0.0,0.0,0.0,0.0,0.0,0.0,0.0,0.0,0.0,0.0,0.0,0.0,0.0,0.0,0.0,0.0,0.0,0.0,0.0,0.0,0.0,0.0,0.0,0.0,0.0,0.0,0.0,0.0,0.0,0.0,0.0,0.0,0.0,0.0,0.0,0.0,0.0,0.0,0.0,0.0,0.0,0.0,0.0,0.0,0.0,0.0,0.0,0.0,0.0,0.0,0.0,0.0,0.0,0.0,0.0,0.0,0.0,0.0,0.0,0.0,0.0,0.0,0.0,0.0,0.0,0.0,0.0,0.0,0.0,0.0,0.0,0.0,0.0,0.0,0.0,0.0,0.0,0.0,0.0,0.0,0.0,0.0,0.0,0.0,0.0,0.0,0.0,0.0,0.0,0.0,0.0,0.0,0.0,-1.3477,0.0,-1.5201,0.0,-1.4128,-1.3294,0.0,0.0,0.0,0.0,0.0,0.0,0.0,0.0,0.0,0.0,0.0,0.0,0.0,0.0,0.0,0.0,0.0,0.0,0.0,0.0,0.0,0.0,0.0,0.0,0.0,0.0,0.0,0.0,0.0,0.0,0.0,0.0,0.0,0.0,0.0,0.0,0.0,0.0,0.0,0.0,0.0,0.0,0.0,0.0,0.0,0.0,0.0,0.0,0.0,0.0,0.0,0.0,0.0,0.0,0.0,0.0,0.0,0.0,0.0,0.0,0.0,0.0,0.0,0.0,0.0,0.0,0.0,0.0,0.0,0.0,0.0,0.0,0.0,0.0,0.0,0.0,0.0,0.0,0.0,0.0,0.0,0.0,0.0,0.0,0.0,0.0,0.0,0.0,0.0,0.0,0.0,0.0,0.0,0.0,0.0,0.0,0.0,0.0,0.0,0.0,0.0,0.0,0.0,0.0,0.0,0.0,0.0,0.0,-1.3155,-1.443,-1.5343,-1.5277,-1.413,-1.3982,-1.3249,0.0,0.0,0.0,0.0,0.0,0.0,0.0,0.0,0.0,0.0,0.0,0.0,0.0,0.0,0.0,0.0,0.0,0.0,0.0,0.0,0.0,0.0,0.0,0.0,0.0,0.0,0.0,0.0,0.0,0.0,0.0,0.0,0.0,0.0,0.0,0.0,0.0,0.0,0.0,0.0,0.0,0.0,0.0,0.0,0.0,0.0,0.0,0.0,0.0,0.0,0.0,0.0,0.0,0.0,0.0,0.0,0.0,0.0,0.0,0.0,0.0,0.0,0.0,0.0,0.0,0.0,0.0,0.0,0.0,0.0,0.0,0.0,0.0,0.0,0.0,0.0,0.0,0.0,0.0,0.0,0.0,0.0,0.0,0.0,0.0,0.0,0.0,0.0,0.0,0.0,0.0,0.0,0.0,0.0,0.0,0.0,0.0,0.0,0.0,0.0,0.0,0.0,0.0,0.0,0.0,0.0,0.0,0.0,0.0,-1.3477,-1.4414,-1.5186,-1.5582,-1.3901,-1.306,0.0,0.0,0.0,0.0,0.0,0.0,0.0,0.0,0.0,0.0,0.0,0.0,0.0,0.0,0.0,0.0,0.0,0.0,0.0,0.0,0.0,0.0,0.0,0.0,0.0,0.0,0.0,0.0,0.0,0.0,0.0,0.0,0.0,0.0,0.0,0.0,0.0,0.0,0.0,0.0,0.0,0.0,0.0,0.0,0.0,0.0,0.0,0.0,0.0,0.0,0.0,0.0,0.0,0.0,0.0,0.0,0.0,0.0,0.0,0.0,0.0,0.0,0.0,0.0,0.0,0.0,0.0,0.0,0.0,0.0,0.0,0.0,0.0,0.0,0.0,0.0,0.0,0.0,0.0,0.0,0.0,0.0,0.0,0.0,0.0,0.0,0.0,0.0,0.0,0.0,0.0,0.0,0.0,0.0,0.0,0.0,0.0,0.0,0.0,0.0,0.0,0.0,0.0,0.0,0.0,0.0,0.0,0.0,0.0,-1.3908,-1.4743,-1.5487,-1.6009,-1.3982,-1.2994,-1.3206,0.0,0.0,0.0,0.0,0.0,0.0,0.0,0.0,0.0,0.0,0.0,0.0,0.0,0.0,0.0,0.0,0.0,0.0,0.0,0.0,0.0,0.0,0.0,0.0,0.0,0.0,0.0,0.0,0.0,0.0,0.0,0.0,0.0,0.0,0.0,0.0,0.0,0.0,0.0,0.0,0.0,0.0,0.0,0.0,0.0,0.0,0.0,0.0,0.0,0.0,0.0,0.0,0.0,0.0,0.0,0.0,0.0,0.0,0.0,0.0,0.0,0.0,0.0,0.0,0.0,0.0,0.0,0.0,0.0,0.0,0.0,0.0,0.0,0.0,0.0,0.0,0.0,0.0,0.0,0.0,0.0,0.0,0.0,0.0,0.0,0.0,0.0,0.0,0.0,0.0,0.0,0.0,0.0,0.0,0.0,0.0,0.0,0.0,0.0,0.0,0.0,0.0,0.0,0.0,0.0,0.0,0.0,0.0,-1.5418,-1.6111,-1.617,-1.5557,-1.4289,-1.3133,0.0,0.0,0.0,0.0,0.0,0.0,0.0,0.0,0.0,0.0,0.0,0.0,0.0,0.0,0.0,0.0,0.0,0.0,0.0,0.0,0.0,0.0,0.0,0.0,0.0,0.0,0.0,0.0,0.0,0.0,0.0,0.0,0.0,0.0,0.0,0.0,0.0,0.0,0.0,0.0,0.0,0.0,0.0,0.0,0.0,0.0,0.0,0.0,0.0,0.0,0.0,0.0,0.0,0.0,0.0,0.0,0.0,0.0,0.0,0.0,0.0,0.0,0.0,0.0,0.0,0.0,0.0,0.0,0.0,0.0,0.0,0.0,0.0,0.0,0.0,0.0,0.0,0.0,0.0,0.0,0.0,0.0,0.0,0.0,0.0,0.0,0.0,0.0,0.0,0.0,0.0,0.0,0.0,0.0,0.0,0.0,0.0,0.0,0.0,0.0,0.0,0.0,0.0,0.0,0.0,0.0,0.0,0.0,0.0,-1.6089,-1.6982,-1.7362,-1.7157,-1.5447,-1.4333,0.0,0.0,0.0,0.0,0.0,0.0,0.0,0.0,0.0,0.0,0.0,0.0,0.0,0.0,0.0,0.0,0.0,0.0,0.0,0.0,0.0,0.0,0.0,0.0,0.0,0.0,0.0,0.0,0.0,0.0,0.0,0.0,0.0,0.0,0.0,0.0,0.0,0.0,0.0,0.0,0.0,0.0,0.0,0.0,0.0,0.0,0.0,0.0,0.0,0.0,0.0,0.0,0.0,0.0,0.0,0.0,0.0,0.0,0.0,0.0,0.0,0.0,0.0,0.0,0.0,0.0,0.0,0.0,0.0,0.0,0.0,0.0,0.0,0.0,0.0,0.0,0.0,0.0,0.0,0.0,0.0,0.0,0.0,0.0,0.0,0.0,0.0,0.0,0.0,0.0,0.0,0.0,0.0,0.0,0.0,0.0,0.0,0.0,0.0,0.0,0.0,0.0,0.0,0.0,0.0,0.0,0.0,0.0,-1.5489,-1.6748,-1.7721,-1.816,-1.8021,-1.655,-1.5204,0.0,0.0,0.0,0.0,0.0,0.0,0.0,0.0,0.0,0.0,0.0,0.0,0.0,0.0,0.0,0.0,0.0,0.0,0.0,0.0,0.0,0.0,0.0,0.0,0.0,0.0,0.0,0.0,0.0,0.0,0.0,0.0,0.0,0.0,0.0,0.0,0.0,0.0,0.0,0.0,0.0,0.0,0.0,0.0,0.0,0.0,0.0,0.0,0.0,0.0,0.0,0.0,0.0,0.0,0.0,0.0,0.0,0.0,0.0,0.0,0.0,0.0,0.0,0.0,0.0,0.0,0.0,0.0,0.0,0.0,0.0,0.0,0.0,0.0,0.0,0.0,0.0,0.0,0.0,0.0,0.0,0.0,0.0,0.0,0.0,0.0,0.0,0.0,0.0,0.0,0.0,0.0,0.0,0.0,0.0,0.0,0.0,0.0,0.0,0.0,0.0,0.0,0.0,0.0,0.0,0.0,0.0,0.0,-1.6067,-1.7264,-1.8321,-1.8664,-1.8291,-1.7409,-1.5876,0.0,0.0,0.0,0.0,0.0,0.0,0.0,0.0,0.0,0.0,0.0,0.0,0.0,0.0,0.0,0.0,0.0,0.0,0.0,0.0,0.0,0.0,0.0,0.0,0.0,0.0,0.0,0.0,0.0,0.0,0.0,0.0,0.0,0.0,0.0,0.0,0.0,0.0,0.0,0.0,0.0,0.0,0.0,0.0,0.0,0.0,0.0,0.0,0.0,0.0,0.0,0.0,0.0,0.0,0.0,0.0,0.0,0.0,0.0,0.0,0.0,0.0,0.0,0.0,0.0,0.0,0.0,0.0,0.0,0.0,0.0,0.0,0.0,0.0,0.0,0.0,0.0,0.0,0.0,0.0,0.0,0.0,0.0,0.0,0.0,0.0,0.0,0.0,0.0,0.0,0.0,0.0,0.0,0.0,0.0,0.0,0.0,0.0,0.0,0.0,0.0,0.0,0.0,0.0,0.0,0.0,0.0,0.0,-1.6543,-1.7318,-1.8533,-1.8891,-1.8313,-1.7409,-1.6081,0.0,0.0,0.0,0.0,0.0,0.0,0.0,0.0,0.0,0.0,0.0,0.0,0.0,0.0,0.0,0.0,0.0,0.0,0.0,0.0,0.0,0.0,0.0,0.0,0.0,0.0,0.0,0.0,0.0,0.0,0.0,0.0,0.0,0.0,0.0,0.0,0.0,0.0,0.0,0.0,0.0,0.0,0.0,0.0,0.0,0.0,0.0,0.0,-1.2603,0.0,0.0,0.0,0.0,0.0,0.0,0.0,0.0,0.0,0.0,0.0,0.0,0.0,0.0,0.0,0.0,0.0,0.0,0.0,0.0,0.0,0.0,0.0,0.0,0.0,0.0,0.0,0.0,0.0,0.0,0.0,0.0,0.0,0.0,0.0,0.0,0.0,0.0,0.0,0.0,0.0,0.0,0.0,0.0,0.0,0.0,0.0,0.0,0.0,0.0,0.0,0.0,0.0,0.0,0.0,0.0,0.0,0.0,0.0,-1.6908,-1.756,-1.8679,-1.8964,-1.8321,-1.7655,-1.6463,0.0,0.0,0.0,0.0,0.0,0.0,0.0,0.0,0.0,0.0,0.0,0.0,0.0,0.0,0.0,0.0,0.0,0.0,0.0,0.0,0.0,0.0,0.0,0.0,0.0,0.0,0.0,0.0,0.0,0.0,0.0,0.0,0.0,0.0,0.0,0.0,0.0,0.0,0.0,0.0,0.0,0.0,0.0,0.0,0.0,0.0,0.0,0.0,0.0,0.0,0.0,0.0,0.0,0.0,0.0,0.0,0.0,0.0,0.0,0.0,0.0,0.0,0.0,0.0,0.0,0.0,0.0,0.0,0.0,0.0,0.0,0.0,0.0,0.0,0.0,0.0,0.0,0.0,0.0,0.0,0.0,0.0,0.0,0.0,0.0,0.0,0.0,0.0,0.0,0.0,0.0,0.0,0.0,0.0,0.0,0.0,0.0,0.0,0.0,0.0,0.0,0.0,0.0,0.0,0.0,0.0,0.0,-1.5641,-1.7189,-1.7889,-1.8796,-1.8964,-1.8321,-1.7991,-1.6762,-1.4607,0.0,0.0,0.0,0.0,0.0,0.0,0.0,0.0,0.0,0.0,0.0,0.0,0.0,0.0,0.0,0.0,0.0,0.0,0.0,0.0,0.0,0.0,0.0,0.0,0.0,0.0,0.0,0.0,0.0,0.0,0.0,0.0,0.0,0.0,0.0,0.0,0.0,0.0,-1.2573,-1.3206,0.0,0.0,0.0,0.0,0.0,0.0,0.0,0.0,-1.274,0.0,0.0,0.0,0.0,0.0,0.0,0.0,0.0,0.0,0.0,0.0,0.0,0.0,0.0,0.0,0.0,0.0,0.0,0.0,0.0,0.0,0.0,0.0,0.0,0.0,0.0,0.0,0.0,0.0,0.0,0.0,0.0,0.0,0.0,0.0,0.0,0.0,0.0,0.0,0.0,0.0,0.0,0.0,0.0,0.0,0.0,0.0,0.0,0.0,0.0,0.0,0.0,0.0,0.0,0.0,0.0,-1.4557,-1.5833,-1.7026,-1.8203,-1.8913,-1.8964,-1.8321,-1.7984,-1.6762,-1.4629,0.0,0.0,0.0,0.0,0.0,0.0,0.0,0.0,0.0,0.0,0.0,0.0,0.0,0.0,0.0,0.0,0.0,0.0,0.0,0.0,0.0,0.0,0.0,0.0,0.0,0.0,0.0,0.0,0.0,0.0,0.0,0.0,0.0,0.0,0.0,0.0,0.0,0.0,0.0,-1.419,-1.4528,0.0,0.0,0.0,0.0,0.0,0.0,0.0,0.0,-1.2447,0.0,0.0,0.0,0.0,0.0,0.0,0.0,0.0,0.0,0.0,0.0,0.0,0.0,0.0,0.0,0.0,0.0,0.0,0.0,0.0,0.0,0.0,0.0,0.0,0.0,0.0,0.0,0.0,0.0,0.0,0.0,0.0,0.0,0.0,0.0,0.0,0.0,0.0,0.0,0.0,0.0,0.0,0.0,0.0,0.0,0.0,0.0,0.0,0.0,0.0,0.0,0.0,0.0,0.0,0.0,-1.4435,-1.6038,-1.7333,-1.8277,-1.8774,-1.8789,-1.8299,-1.7501,-1.6294,0.0,0.0,0.0,0.0,0.0,0.0,0.0,0.0,0.0,0.0,0.0,0.0,0.0,0.0,0.0,0.0,0.0,0.0,0.0,0.0,0.0,0.0,0.0,0.0,0.0,0.0,0.0,0.0,0.0,0.0,0.0,0.0,0.0,0.0,0.0,0.0,0.0,0.0,0.0,0.0,-1.4307,-1.4717,-1.4717,0.0,0.0,0.0,0.0,0.0,0.0,-1.3023,-1.2672,0.0,0.0,0.0,0.0,0.0,0.0,0.0,0.0,0.0,0.0,0.0,0.0,0.0,0.0,0.0,0.0,0.0,0.0,0.0,0.0,0.0,0.0,0.0,0.0,0.0,0.0,0.0,0.0,0.0,0.0,0.0,0.0,0.0,0.0,0.0,0.0,0.0,0.0,0.0,0.0,0.0,0.0,0.0,0.0,0.0,0.0,0.0,0.0,0.0,0.0,0.0,0.0,0.0,0.0,0.0,-1.4004,-1.6001,-1.7421,-1.8174,-1.8518,-1.8533,-1.8189,-1.7011,-1.578,0.0,0.0,0.0,0.0,0.0,0.0,0.0,0.0,0.0,0.0,0.0,0.0,0.0,0.0,0.0,0.0,0.0,0.0,0.0,0.0,0.0,0.0,0.0,0.0,0.0,0.0,0.0,0.0,0.0,0.0,0.0,0.0,0.0,0.0,0.0,0.0,0.0,0.0,0.0,0.0,0.0,-1.5086,-1.4821,-1.4795,0.0,0.0,0.0,0.0,-1.3827,-1.3613,0.0,0.0,0.0,0.0,0.0,0.0,0.0,0.0,0.0,0.0,0.0,0.0,0.0,0.0,0.0,0.0,0.0,0.0,0.0,0.0,0.0,0.0,0.0,0.0,0.0,0.0,0.0,0.0,0.0,0.0,0.0,0.0,0.0,0.0,0.0,0.0,0.0,0.0,0.0,0.0,0.0,0.0,0.0,0.0,0.0,0.0,0.0,0.0,0.0,0.0,0.0,0.0,0.0,0.0,0.0,0.0,-1.4005,-1.5365,-1.666,-1.7816,-1.8189,-1.8203,-1.7867,-1.6894,-1.5685,0.0,0.0,0.0,0.0,0.0,0.0,0.0,0.0,0.0,0.0,0.0,0.0,0.0,0.0,0.0,0.0,0.0,0.0,0.0,0.0,0.0,0.0,0.0,0.0,0.0,0.0,0.0,0.0,0.0,0.0,0.0,0.0,0.0,0.0,0.0,0.0,0.0,0.0,0.0,0.0,0.0,-1.6257,-1.5257,-1.5155,-1.4992,0.0,0.0,-1.4264,-1.4915,-1.4983,0.0,0.0,0.0,0.0,0.0,0.0,0.0,0.0,0.0,0.0,0.0,0.0,0.0,0.0,0.0,0.0,0.0,0.0,0.0,0.0,0.0,0.0,0.0,0.0,0.0,0.0,0.0,0.0,0.0,0.0,0.0,0.0,0.0,0.0,0.0,0.0,0.0,0.0,0.0,0.0,0.0,0.0,0.0,0.0,0.0,0.0,0.0,0.0,0.0,0.0,0.0,0.0,0.0,0.0,0.0,-1.2541,-1.3975,-1.5613,-1.6894,-1.7779,-1.7955,-1.7874,-1.7498,-1.6257,-1.5017,0.0,0.0,0.0,0.0,0.0,0.0,0.0,0.0,0.0,0.0,0.0,0.0,0.0,0.0,0.0,0.0,0.0,0.0,0.0,0.0,0.0,0.0,0.0,0.0,0.0,0.0,0.0,0.0,0.0,0.0,0.0,0.0,0.0,0.0,0.0,0.0,0.0,0.0,0.0,0.0,0.0,0.0,-1.5583,-1.572,0.0,0.0,0.0,-1.518,-1.5497,0.0,0.0,0.0,0.0,0.0,0.0,0.0,0.0,0.0,0.0,0.0,0.0,0.0,0.0,0.0,0.0,0.0,0.0,0.0,0.0,0.0,0.0,0.0,0.0,0.0,0.0,0.0,0.0,0.0,0.0,0.0,0.0,0.0,0.0,0.0,0.0,0.0,0.0,0.0,0.0,0.0,0.0,0.0,0.0,0.0,0.0,0.0,0.0,0.0,0.0,0.0,0.0,0.0,0.0,0.0,0.0,0.0,-1.3902,-1.5729,-1.6976,-1.7552,-1.7655,-1.7545,-1.7201,-1.5811,0.0,0.0,0.0,0.0,0.0,0.0,0.0,0.0,0.0,0.0,0.0,0.0,0.0,0.0,0.0,0.0,0.0,0.0,0.0,0.0,0.0,0.0,0.0,0.0,0.0,0.0,0.0,-0.8777,0.0,0.0,0.0,0.0,0.0,0.0,0.0,0.0,0.0,0.0,0.0,0.0,0.0,0.0,-1.5429,-1.5634,-1.6131,-1.6561,0.0,0.0,-1.6045,-1.5951,-1.5848,-1.5257,0.0,0.0,0.0,0.0,0.0,0.0,0.0,0.0,0.0,0.0,0.0,0.0,0.0,0.0,0.0,0.0,0.0,0.0,0.0,0.0,0.0,0.0,0.0,0.0,0.0,0.0,0.0,0.0,0.0,0.0,0.0,0.0,0.0,0.0,0.0,0.0,0.0,0.0,0.0,0.0,0.0,0.0,0.0,0.0,0.0,0.0,0.0,0.0,0.0,0.0,0.0,0.0,0.0,0.0,0.0,-1.3528,-1.5145,-1.6287,-1.6947,-1.7216,-1.7208,-1.6925,-1.6121,-1.483,0.0,0.0,0.0,0.0,0.0,0.0,0.0,0.0,0.0,0.0,0.0,0.0,0.0,0.0,0.0,0.0,0.0,0.0,0.0,0.0,0.0,0.0,0.0,0.0,0.0,0.0,0.0,0.0,0.0,0.0,0.0,0.0,0.0,0.0,0.0,0.0,0.0,0.0,0.0,0.0,0.0,-1.5634,-1.53,-1.6182,-1.6995,0.0,0.0,-1.6684,-1.6308,-1.6867,-1.6484,-1.3922,0.0,0.0,0.0,0.0,0.0,0.0,0.0,0.0,0.0,0.0,0.0,0.0,0.0,0.0,0.0,0.0,0.0,0.0,0.0,0.0,0.0,0.0,0.0,0.0,0.0,0.0,0.0,0.0,0.0,0.0,0.0,0.0,0.0,0.0,0.0,0.0,0.0,0.0,0.0,0.0,0.0,0.0,0.0,0.0,0.0,0.0,0.0,0.0,0.0,0.0,0.0,0.0,0.0,-1.1968,-1.337,-1.4946,-1.6171,-1.6936,-1.6952,-1.6766,-1.6484,-1.5637,-1.4567,0.0,0.0,0.0,0.0,0.0,0.0,0.0,0.0,0.0,0.0,0.0,0.0,0.0,0.0,0.0,0.0,0.0,0.0,0.0,0.0,0.0,0.0,0.0,0.0,0.0,0.0,0.0,0.0,-1.0709,-1.0902,-1.0503,0.0,0.0,0.0,0.0,0.0,0.0,0.0,0.0,0.0,0.0,-1.6446,-1.6431,-1.7041,0.0,0.0,-1.6991,-1.6602,-1.6641,-1.6542,-1.5865,-1.4144,-1.3374,0.0,0.0,0.0,0.0,0.0,0.0,0.0,0.0,0.0,0.0,0.0,0.0,0.0,0.0,0.0,0.0,0.0,0.0,0.0,0.0,0.0,0.0,0.0,0.0,0.0,0.0,0.0,0.0,0.0,0.0,0.0,0.0,0.0,0.0,0.0,0.0,0.0,0.0,0.0,0.0,0.0,0.0,0.0,0.0,0.0,0.0,0.0,0.0,0.0,0.0,0.0,0.0,-1.1668,-1.3028,-1.4645,-1.5836,-1.6665,-1.6683,-1.6431,-1.5965,-1.539,-1.4436,0.0,0.0,0.0,0.0,0.0,0.0,0.0,0.0,0.0,0.0,0.0,0.0,0.0,0.0,0.0,0.0,0.0,0.0,0.0,0.0,0.0,0.0,0.0,0.0,0.0,0.0,0.0,0.0,-1.0812,-1.077,-1.0315,0.0,0.0,0.0,0.0,0.0,0.0,0.0,0.0,0.0,0.0,-1.6947,-1.7017,-1.7478,-1.7714,-1.7385,-1.6802,-1.6441,-1.6559,-1.6148,-1.5377,-1.4127,0.0,0.0,0.0,0.0,0.0,0.0,0.0,0.0,0.0,0.0,0.0,0.0,0.0,0.0,0.0,0.0,0.0,0.0,0.0,0.0,0.0,0.0,0.0,0.0,0.0,0.0,0.0,0.0,0.0,0.0,0.0,0.0,0.0,0.0,0.0,0.0,0.0,0.0,0.0,0.0,0.0,0.0,0.0,0.0,0.0,0.0,0.0,0.0,0.0,0.0,0.0,0.0,0.0,-1.1245,-1.2533,-1.4136,-1.5262,-1.5949,-1.6432,-1.6276,-1.546,-1.5516,-1.4599,-1.257,0.0,0.0,0.0,0.0,0.0,0.0,0.0,0.0,0.0,0.0,0.0,0.0,0.0,0.0,0.0,0.0,0.0,0.0,0.0,0.0,0.0,0.0,0.0,0.0,0.0,0.0,-1.0078,-0.9687,-0.9513,0.0,0.0,0.0,0.0,0.0,0.0,0.0,0.0,0.0,0.0,-1.6075,-1.6844,-1.668,-1.7252,-1.7514,-1.6994,-1.6593,-1.6261,-1.5899,-1.5814,-1.5283,0.0,0.0,0.0,0.0,0.0,0.0,0.0,0.0,0.0,0.0,0.0,0.0,0.0,0.0,0.0,0.0,0.0,0.0,0.0,0.0,0.0,0.0,0.0,0.0,0.0,0.0,0.0,-1.1794,-1.1332,0.0,0.0,0.0,0.0,0.0,0.0,0.0,0.0,0.0,0.0,0.0,-1.2875,-1.2848,0.0,0.0,0.0,0.0,0.0,0.0,0.0,0.0,0.0,0.0,0.0,0.0,-1.1547,-1.337,-1.4464,-1.5488,-1.6399,-1.648,-1.6243,-1.5726,-1.5304,-1.4089,-1.1973,0.0,0.0,0.0,0.0,0.0,0.0,0.0,0.0,0.0,0.0,0.0,0.0,0.0,0.0,0.0,0.0,0.0,0.0,0.0,0.0,0.0,0.0,0.0,0.0,0.0,-1.0486,0.0,0.0,0.0,0.0,0.0,0.0,0.0,0.0,0.0,0.0,0.0,-1.4509,-1.5369,-1.688,-1.7688,-1.7126,-1.7578,-1.7606,0.0,0.0,0.0,0.0,0.0,0.0,0.0,0.0,0.0,0.0,0.0,0.0,0.0,0.0,-1.2988,-1.1225,-1.13,-1.1452,-1.0871,0.0,0.0,0.0,0.0,0.0,0.0,0.0,0.0,0.0,0.0,0.0,0.0,0.0,0.0,0.0,0.0,-1.1984,0.0,0.0,0.0,0.0,0.0,0.0,0.0,0.0,-1.3076,-1.3536,-1.3828,-1.3836,-1.3718,0.0,-1.2987,-1.2131,0.0,0.0,0.0,0.0,0.0,0.0,0.0,0.0,-1.1711,-1.3523,-1.4448,-1.5329,-1.6206,-1.608,-1.5817,-1.5423,-1.4622,-1.3465,-1.1963,-1.1278,-1.0453,0.0,0.0,0.0,0.0,0.0,0.0,0.0,0.0,0.0,0.0,0.0,0.0,0.0,0.0,0.0,0.0,0.0,0.0,0.0,0.0,0.0,0.0,0.0,-1.0585,0.0,0.0,0.0,0.0,0.0,0.0,0.0,0.0,0.0,-1.2643,-1.419,-1.5581,-1.6293,-1.7688,-1.8329,-1.7463,0.0,0.0,0.0,0.0,0.0,0.0,0.0,-1.4829,-1.4701,-1.4358,-1.4016,-1.3759,-1.4042,-1.4256,-1.4119,0.0,0.0,-1.2515,-1.2555,-1.2789,-1.244,-1.2878,-1.334,-1.3395,-1.3589,-1.3933,0.0,0.0,0.0,0.0,0.0,0.0,0.0,0.0,-1.3765,-1.3932,0.0,-1.3221,0.0,0.0,0.0,0.0,0.0,0.0,0.0,0.0,-1.4418,-1.4765,-1.4548,-1.454,-1.454,-1.4555,-1.471,-1.436,-1.3404,-1.1297,0.0,0.0,0.0,0.0,0.0,0.0,-1.175,-1.3073,-1.4079,-1.4834,-1.5436,-1.5346,-1.5058,-1.4521,-1.3565,-1.2895,-1.2502,-1.2044,-1.127,-1.0098,-0.9512,0.0,0.0,0.0,0.0,0.0,0.0,0.0,0.0,0.0,0.0,0.0,0.0,0.0,0.0,0.0,0.0,0.0,0.0,0.0,0.0,-1.018,0.0,0.0,0.0,0.0,0.0,0.0,0.0,0.0,0.0,0.0,-1.429,-1.5243,-1.6373,-1.7503,0.0,0.0,0.0,0.0,-1.7003,-1.5938,-1.5497,-1.5223,-1.5249,-1.5232,-1.512,-1.4819,0.0,0.0,-1.4281,-1.447,-1.4648,-1.427,-1.4943,-1.539,-1.4972,-1.4586,-1.4501,-1.475,-1.4825,-1.4956,-1.5108,-1.5307,-1.5905,-1.2242,0.0,0.0,0.0,0.0,-1.3181,-1.4252,-1.5706,-1.5696,-1.5511,-1.5189,-1.4633,0.0,0.0,0.0,0.0,0.0,0.0,-1.4084,-1.4477,-1.4589,-1.4801,-1.5153,-1.5112,-1.516,-1.5112,-1.4973,-1.4677,-1.4165,-1.3301,-1.1955,-1.0241,0.0,0.0,0.0,0.0,-1.2765,-1.4101,-1.4771,-1.5322,-1.5873,-1.5637,-1.5144,-1.438,-1.3886,-1.3355,-1.2736,-1.2502,-1.1943,-1.1043,-1.0409,0.0,0.0,0.0,0.0,0.0,0.0,0.0,0.0,0.0,0.0,0.0,0.0,0.0,0.0,0.0,0.0,0.0,0.0,0.0,-0.9463,-1.0117,-1.0503,0.0,0.0,0.0,0.0,0.0,0.0,0.0,0.0,0.0,-1.5121,-1.6058,-1.6778,0.0,0.0,-1.7629,-1.6484,-1.6595,-1.6577,-1.5903,0.0,0.0,0.0,-1.5634,-1.5591,-1.5497,-1.5566,-1.5557,-1.5343,-1.5532,-1.567,-1.5514,-1.5816,-1.6069,-1.6108,-1.5786,-1.5513,-1.5373,-1.5387,-1.5593,-1.59,-1.6127,-1.6533,-1.3585,-1.2431,-1.1908,-1.2355,-1.3341,-1.3664,-1.4583,-1.5839,-1.6155,-1.6157,-1.5944,-1.5618,-1.5116,-1.4428,-1.385,0.0,0.0,0.0,-1.464,-1.509,-1.494,-1.5057,-1.5374,-1.5389,-1.5389,-1.5382,-1.5323,-1.516,-1.4845,-1.4648,-1.3675,-1.2002,0.0,0.0,-1.1685,-1.2354,-1.3298,-1.4524,-1.4946,-1.5279,-1.5636,-1.5193,-1.4697,-1.4119,-1.3744,-1.3374,-1.2946,-1.2548,-1.2094,-1.1526,-1.0834,-1.011,0.0,0.0,0.0,0.0,0.0,0.0,0.0,0.0,0.0,0.0,0.0,-0.7729,-0.6865,0.0,0.0,0.0,-0.8785,-0.9811,-1.0584,-1.1147,0.0,0.0,0.0,0.0,0.0,0.0,0.0,-1.4408,-1.5015,-1.5555,-1.597,-1.654,-1.69,-1.686,-1.7236,-1.7188,-1.631,0.0,-1.6403,-1.5867,-1.5985,-1.6045,-1.584,-1.5805,-1.5805,-1.5805,-1.5805,-1.5805,-1.5805,-1.5903,-1.6,-1.6105,-1.6202,-1.6377,-1.6568,-1.6448,-1.6299,-1.6087,-1.6099,-1.6266,-1.6505,-1.6607,-1.6892,-1.4802,-1.4175,-1.3276,-1.304,-1.328,-1.4044,-1.4336,-1.4313,-1.5599,-1.6103,-1.6062,-1.6294,-1.625,-1.5935,-1.5105,0.0,0.0,-1.4922,-1.5206,-1.5455,-1.544,-1.5411,-1.5389,-1.5389,-1.5389,-1.5396,-1.5695,-1.5681,-1.5396,-1.5382,-1.4936,-1.4092,-1.3177,-1.2791,-1.3038,-1.3126,-1.3609,-1.4526,-1.4794,-1.4871,-1.4812,-1.4328,-1.3925,-1.3731,-1.3276,-1.3056,-1.3016,-1.2394,-1.1926,-1.1636,-1.0943,-1.0287,-0.9797,0.0,0.0,0.0,0.0,0.0,0.0,0.0,0.0,0.0,0.0,0.0,0.0,0.0,0.0,0.0,-1.007,0.0,-1.2493,-1.2759,0.0,0.0,0.0,-1.2627,-1.3065,-1.3796,-1.4468,-1.4908,0.0,0.0,0.0,0.0,-1.6717,-1.6717,-1.7069,-1.7132,-1.6612,-1.6533,-1.6333,-1.5867,-1.584,-1.584,-1.5814,-1.5805,-1.5805,-1.5805,-1.5805,-1.5805,-1.5805,-1.5841,-1.5903,-1.6096,-1.6237,-1.6377,-1.6568,-1.6768,-1.6908,-1.6872,-1.6872,-1.689,-1.6881,-1.6948,-1.7136,-1.5042,-1.4686,-1.4283,-1.4146,-1.4252,-1.4698,-1.5077,-1.5457,-1.5954,-1.5932,-1.5619,-1.6259,-1.6607,-1.6661,-1.6433,-1.6331,-1.6338,-1.6411,-1.6353,-1.614,-1.5906,-1.5622,-1.5396,-1.5389,-1.5389,-1.5389,-1.5469,-1.5462,-1.5389,-1.5389,-1.5272,-1.5031,-1.4564,-1.3995,-1.3433,-1.4114,-1.4557,-1.4783,-1.4863,-1.4666,-1.4231,-1.4214,-1.3896,-1.3219,-1.3377,-1.3191,-1.2674,-1.2373,-1.2122,-1.1903,-1.1243,-1.0747,-1.0468,-0.9593,0.0,0.0,0.0,0.0,0.0,0.0,0.0,0.0,0.0,-0.863,-0.7295,0.0,-0.8977,0.0,-0.985,-1.1116,-1.2404,-1.252,0.0,0.0,-1.4159,-1.4098,-1.4785,-1.5081,-1.5216,-1.5286,-1.5675,-1.6009,-1.6108,-1.6091,-1.6044,-1.6053,-1.648,-1.6577,-1.607,-1.6,-1.5973,-1.5858,-1.6019,-1.6069,-1.5857,-1.5805,-1.5805,-1.5805,-1.5805,-1.5805,-1.5805,-1.5903,-1.607,-1.6237,-1.6403,-1.6586,-1.6795,-1.6864,-1.6908,-1.6908,-1.6908,-1.6908,-1.6908,-1.7201,-1.7535,-1.5203,-1.4875,-1.474,-1.456,-1.4427,-1.462,-1.4855,-1.5093,-1.5475,-1.5524,-1.5287,-1.6183,-1.6707,-1.691,-1.6895,-1.6815,-1.669,-1.6683,-1.6587,-1.6404,-1.606,-1.5818,-1.5643,-1.5455,-1.5389,-1.5396,-1.5535,-1.5528,-1.5403,-1.5528,-1.5577,-1.5423,-1.5206,-1.4856,-1.4353,-1.471,-1.4973,-1.5112,-1.4874,-1.4494,-1.4042,-1.3955,-1.3638,-1.3031,-1.3085,-1.2859,-1.2292,-1.1936,-1.1745,-1.1668,-1.1097,-1.0744,-1.0589,-1.0026,-0.9597,0.0,0.0,0.0,0.0,0.0,0.0,0.0,0.0,0.0,0.0,0.0,-0.9673,0.0,-1.1159,0.0,-1.3256,-1.3661,-1.418,-1.4931,-1.5097,-1.5169,-1.5197,-1.5476,-1.5673,-1.5611,-1.5766,-1.5842,-1.5851,-1.5843,-1.5805,-1.5805,-1.6035,-1.614,-1.5876,-1.5805,-1.5805,-1.5814,-1.5968,-1.6001,-1.5822,-1.5805,-1.5805,-1.5805,-1.5805,-1.5805,-1.5805,-1.5964,-1.6132,-1.6272,-1.6473,-1.6673,-1.6874,-1.6908,-1.6908,-1.6908,-1.6908,-1.6908,-1.6908,-1.7141,-1.7339,-1.5322,-1.4891,-1.4885,-1.4622,-1.4196,-1.4196,-1.4196,-1.4234,-1.4696,-1.4995,-1.5191,-1.6179,-1.6749,-1.7035,-1.6976,-1.6807,-1.6536,-1.6536,-1.6514,-1.6455,-1.6118,-1.5957,-1.5899,-1.5535,-1.5389,-1.5403,-1.5716,-1.5716,-1.5403,-1.5716,-1.5666,-1.5403,-1.5389,-1.5389,-1.5374,-1.5061,-1.5024,-1.5292,-1.4706,-1.4284,-1.3931,-1.3675,-1.3323,-1.2958,-1.2602,-1.2284,-1.1919,-1.1375,-1.1137,-1.1194,-1.0828,-1.0582,-1.052,-1.0384,-1.0101,0.0,-0.9584,0.0,0.0,0.0,0.0,0.0,0.0,0.0,0.0,-1.0079,-1.0718,-1.171,-1.2855,-1.3801,-1.4428,-1.5174,-1.5512,-1.5215,-1.5782,-1.5867,-1.5085,-1.5505,-1.5891,-1.5911,-1.5826,-1.5805,-1.5797,-1.5805,-1.5805,-1.5805,-1.5841,-1.5841,-1.5805,-1.5805,-1.5805,-1.5805,-1.5805,-1.5831,-1.5805,-1.5805,-1.5805,-1.5805,-1.5805,-1.5805,-1.5867,-1.5964,-1.6167,-1.6298,-1.641,-1.6575,-1.6846,-1.6817,-1.6752,-1.678,-1.6743,-1.6716,-1.6789,-1.6789,-1.6807,-1.5322,-1.4891,-1.4885,-1.4616,-1.4196,-1.4196,-1.4196,-1.4191,-1.4304,-1.4959,-1.6008,-1.647,-1.7022,-1.7571,-1.7355,-1.7162,-1.715,-1.7143,-1.7011,-1.68,-1.6477,-1.6148,-1.5899,-1.5584,-1.5389,-1.5389,-1.5447,-1.5447,-1.5389,-1.5447,-1.5447,-1.5389,-1.5389,-1.5389,0.0,0.0,0.0,0.0,-1.4313,-1.3916,-1.3601,-1.3528,-1.3214,-1.2602,-1.2266,0.0,-1.1473,-1.1226,-1.0981,-1.0766,-1.0936,0.0,0.0,0.0,0.0,0.0,0.0,0.0,0.0,0.0,0.0,0.0,-1.0928,-1.054,-1.0089,-1.0898,-1.1704,-1.2207,-1.2822,-1.3669,-1.4754,-1.5064,-1.5427,-1.5901,-1.6098,-1.6063,-1.5738,-1.5806,-1.5897,-1.5826,-1.5798,-1.5805,-1.5805,-1.5805,-1.5805,-1.5805,-1.5805,-1.5805,-1.5805,-1.5805,-1.5805,-1.5805,-1.5805,-1.5805,-1.5805,-1.5805,-1.5805,-1.5805,-1.5805,-1.5876,-1.6,-1.607,-1.6193,-1.6464,-1.6282,-1.6294,-1.6757,-1.6386,-1.6065,-1.6358,-1.6166,-1.6028,-1.6349,-1.6389,-1.6331,-1.5322,0.0,-1.4885,-1.4622,0.0,-1.4196,-1.4196,-1.4196,-1.4196,-1.4952,-1.6233,-1.6673,-1.7183,-1.7794,-1.7472,-1.7286,-1.7286,-1.7286,-1.7245,-1.7069,-1.6639,-1.6338,-1.6133,-1.5818,-1.5542,-1.5396,-1.5549,-1.5549,-1.5396,-1.5389,-1.5389,-1.5389,-1.5389,-1.5389,-1.5374,-1.4948,-1.4553,-1.4269,-1.4108,-1.3828,-1.3514,-1.3492,-1.3184,-1.2521,0.0,0.0,0.0,0.0,0.0,0.0,0.0,0.0,0.0,0.0,0.0,-1.1032,-1.0888,-1.0937,-1.13,-1.1283,-1.1407,-1.1856,-1.2034,-1.1816,-1.0987,-1.1832,-1.2564,-1.3022,-1.3616,-1.4346,-1.522,-1.5392,-1.5496,-1.5816,-1.5809,-1.5721,-1.5608,-1.5729,-1.5852,-1.5824,-1.5805,-1.5805,-1.5805,-1.5805,-1.5805,-1.5805,-1.5805,-1.5805,-1.5805,-1.5805,-1.5805,-1.5805,-1.5805,-1.5805,-1.5805,-1.5805,-1.5805,-1.5805,-1.5805,-1.5867,-1.5938,-1.607,-1.6237,-1.6411,-1.6262,-1.6294,-1.6471,-1.6101,-1.5753,-1.5936,-1.5835,-1.5661,-1.5753,-1.5872,-1.5955,-1.5316,-1.4891,-1.4885,-1.4616,-1.4196,-1.4196,-1.4196,-1.4196,0.0,0.0,0.0,-1.6803,-1.7316,-1.7833,-1.7454,-1.7286,-1.7286,-1.7286,-1.7286,-1.7257,-1.6771,-1.647,-1.6397,-1.6111,-1.5796,-1.5411,-1.576,-1.5745,-1.5403,-1.5389,-1.5389,-1.5389,-1.5389,-1.533,-1.5226,-1.4677,-1.4223,-1.3909,-1.3901,-1.377,-1.3499,-1.3492,-1.3184,-1.2533,-1.2434,-1.2071,-1.1294,-1.1159,-1.0865,-1.0381,-1.0431,-1.0387,-1.0264,-1.0743,-1.1163,-1.1477,-1.1721,-1.1957,-1.224,-1.224,-1.233,-1.2408,-1.2828,-1.2783,-1.2071,-1.2672,-1.3241,-1.3638,-1.4344,-1.4951,-1.541,-1.5605,-1.5624,-1.5479,-1.5487,-1.547,-1.5343,-1.5591,-1.5823,-1.5805,-1.5805,-1.5805,-1.5805,-1.5805,-1.5805,-1.5805,-1.5805,-1.5805,-1.5805,-1.5805,-1.5805,-1.5805,-1.5805,-1.5805,-1.5805,-1.5805,-1.5805,-1.5805,-1.5805,-1.5805,-1.5859,-1.6018,-1.6175,-1.6244,-1.6152,-1.6066,-1.6114,-1.5771,-1.5533,-1.557,-1.5524,-1.5386,-1.5111,-1.5239,-1.5441,-1.5316,-1.4885,-1.4885,-1.4616,-1.4196,-1.4196,-1.4196,-1.4245,-1.4987,-1.5808,-1.6641,-1.6897,-1.7428,-1.8203,-1.7596,-1.7286,-1.7286,-1.7286,-1.7286,0.0,-1.6998,-1.6683,-1.6419,-1.6323,-1.5994,-1.5447,-1.5717,-1.5752,-1.5418,-1.5389,-1.5389,-1.5389,-1.5389,-1.5153,-1.4618,-1.4269,-1.3924,-1.3572,-1.3565,-1.3543,-1.3492,-1.3492,-1.3184,-1.2521,-1.2215,-1.178,-1.1166,-1.1107,-1.0938,-1.0586,-1.0966,-1.1133,-1.1125,-1.1156,-1.1383,-1.1783,-1.164,-1.1829,-1.239,-1.2518,-1.2768,-1.3263,-1.3369,-1.3262,-1.2877,-1.3194,-1.3464,-1.3554,-1.4025,-1.4339,-1.4446,-1.5083,-1.547,-1.5474,-1.5659,-1.5785,-1.5713,-1.5754,-1.5805,-1.5805,-1.5805,-1.5805,-1.5805,-1.5805,-1.5805,-1.5805,-1.5805,-1.5805,-1.5805,-1.5805,-1.5805,-1.5805,-1.5805,-1.5805,-1.5805,-1.5805,-1.5805,-1.5805,-1.5788,-1.5824,-1.5948,-1.5774,-1.5727,-1.5972,-1.5566,-1.5378,-1.5657,-1.5166,-1.4946,-1.5093,-1.4974,-1.4726,-1.4653,-1.4708,-1.4735,-1.5203,-1.4902,-1.4885,-1.4616,-1.4196,-1.4196,-1.4196,-1.425,-1.4617,-1.525,-1.605,-1.6401,-1.6955,-1.752,-1.7133,-1.7068,-1.7286,-1.7286,-1.7286,-1.725,-1.6813,-1.6653,-1.6639,-1.6287,-1.5979,-1.5709,-1.584,-1.571,-1.5452,-1.5389,-1.5389,-1.5374,-1.5214,-1.4933,-1.4518,-1.4181,-1.3821,-1.3499,-1.3492,-1.3492,-1.3492,-1.3492,-1.3177,-1.2548,-1.2332,-1.1999,-1.1393,-1.1364,-1.1217,-1.0894,-1.1071,-1.11,-1.0931,-1.1132,-1.1405,-1.171,-1.1846,-1.2139,-1.2636,-1.287,-1.3139,-1.3463,-1.348,-1.3442,-1.328,-1.3408,-1.3601,-1.3842,-1.41,-1.4399,-1.4832,-1.5026,-1.5268,-1.5626,-1.5583,-1.5609,-1.5746,-1.5805,-1.5805,-1.5805,-1.5805,-1.5805,-1.5805,-1.5805,-1.5805,-1.5805,-1.5805,-1.5805,-1.5805,-1.5805,-1.5805,-1.5805,-1.5805,-1.5805,-1.5805,-1.5805,-1.5805,-1.5805,-1.5617,-1.5532,-1.5592,-1.5375,-1.5325,-1.5486,-1.5182,-1.5065,-1.5359,-1.4919,-1.468,-1.465,-1.4662,-1.4524,-1.4485,-1.4485,-1.4684,-1.5086,-1.4966,-1.4907,-1.4649,-1.4272,-1.4218,-1.4196,-1.4196,-1.4196,-1.4563,-1.5215,-1.5706,-1.6253,-1.6737,-1.6652,-1.6786,-1.7073,-1.7232,-1.7286,-1.7228,-1.6813,-1.6734,-1.6844,-1.6345,-1.606,-1.5935,-1.5913,-1.5703,-1.5418,-1.5389,-1.5345,-1.5258,-1.4958,-1.467,-1.4394,-1.4071,-1.374,-1.3514,-1.3492,-1.3492,-1.3492,-1.3492,-1.3184,-1.2543,-1.2526,-1.2219,-1.1643,-1.1591,-1.1481,-1.1232,-1.121,-1.11,-1.0902,-1.119,-1.1481,-1.1721,-1.2066,-1.2428,-1.2775,-1.305,-1.3294,-1.3428,-1.348,-1.348,-1.348,-1.348,-1.3631,-1.3971,-1.4098,-1.4459,-1.4967,-1.5016,-1.5124,-1.5634,-1.5496,-1.5515,-1.5754,-1.5805,-1.5805,-1.5805,-1.5805,-1.5805,-1.5805,-1.5805,-1.5805,-1.5805,-1.5805,-1.5805,-1.5805,-1.5745,-1.5694,-1.5788,-1.5805,-1.5805,-1.5805,-1.5805,-1.5762,-1.5703,-1.5429,-1.5232,-1.512,-1.491,-1.4848,-1.498,-1.4863,-1.4767,-1.4876,-1.4735,-1.4543,-1.4522,-1.4504,-1.4485,-1.4485,-1.4485,-1.4823,-1.5177,-1.5124,-1.4982,-1.474,-1.4487,-1.4283,-1.4196,-1.4196,-1.4196,-1.425,-1.4433,-1.4872,-1.5439,-1.6022,-1.6406,-1.6457,-1.6346,-1.699,-1.7239,-1.7232,-1.7228,-1.7106,-1.6872,-1.6815,-1.6469,-1.5987,-1.5906,-1.5731,-1.5445,-1.5389,-1.5243,-1.4944,-1.467,-1.4401,-1.4071,-1.3711,-1.3528,-1.3492,-1.3492,-1.3492,-1.3492,-1.3492,-1.3184,-1.2548,-1.2526,-1.2219,-1.1628,-1.1591,-1.1577,-1.1547,-1.154,-1.1587,-1.1643,-1.1618,-1.1703,-1.2004,-1.2073,-1.2313,-1.2744,-1.295,-1.3111,-1.3294,-1.3437,-1.348,-1.348,-1.348,-1.3519,-1.3644,-1.3881,-1.4132,-1.4253,-1.4798,-1.5161,-1.5334,-1.5592,-1.5762,-1.5788,-1.5805,-1.5805,-1.5805,-1.5805,-1.5805,-1.5805,-1.5805,-1.5805,-1.5805,-1.5754,-1.5762,-1.578,-1.5523,-1.5403,-1.5694,-1.5797,-1.5788,-1.5797,-1.5797,-1.5643,-1.536,-1.524,-1.5035,-1.4744,-1.4459,-1.4279,-1.455,-1.4413,-1.4333,-1.4487,-1.4494,-1.4494,-1.4485,-1.4485,-1.4485,-1.4485,-1.4545,-1.4911,-1.516,-1.5036,-1.5079,-1.4961,-1.4708,-1.4352,-1.4196,-1.4196,-1.4196,-1.4196,-1.4234,-1.4452,-1.4763,-1.5133,-1.5325,-1.5434,-1.5588,-1.5859,-1.5994,-1.6028,-1.6239,-1.6369,-1.6483,-1.6357,-1.6235,-1.6148,-1.5811,-1.552,-1.5452,-1.5389,-1.5221,-1.49,-1.4618,-1.4342,-1.402,-1.366,-1.3492,-1.3492,-1.3492,-1.3492,-1.3492,-1.3492,-1.3184,-1.2572,-1.2526,-1.2219,-1.1672,-1.1591,-1.1591,-1.1591,-1.1591,-1.1622,-1.1685,-1.1622,-1.1654,-1.1817,-1.2003,-1.222,-1.2498,-1.2744,-1.2958,-1.3111,-1.3294,-1.3437,-1.348,-1.348,-1.348,-1.3536,-1.3665,-1.3913,-1.4384,-1.4726,-1.5078,-1.5471,-1.5711,-1.5805,-1.5805,-1.5805,-1.5805,-1.5805,-1.5805,-1.5805,-1.5805,-1.5805,-1.5805,-1.5771,-1.5634,-1.554,-1.5711,-1.5437,-1.5274,-1.5403,-1.5454,-1.5566,-1.5694,-1.5583,-1.5403,-1.5189,-1.4829,-1.447,-1.4382,-1.4141,-1.4005,-1.4236,-1.4194,-1.4216,-1.4474,-1.4485,-1.4485,-1.4485,-1.4485,-1.4485,-1.4485,-1.4734,-1.5186,-1.5192,-1.5095,-1.5081,-1.5052,-1.4842,-1.439,-1.4196,-1.4196,-1.4196,-1.4196,-1.4196,-1.4196,-1.4239,-1.4327,-1.4485,-1.4694,-1.4815,-1.5003,-1.5105,-1.5127,-1.5398,-1.5651,-1.5859,-1.5779,-1.5842,-1.5965,-1.5646,-1.5396,-1.5389,-1.5389,-1.5177,-1.4838,-1.4582,-1.426,-1.3872,-1.3601,-1.3492,-1.3492,-1.3492,-1.3492,-1.3477,-1.3404,-1.3089,-1.2577,-1.2397,-1.2131,-1.1628,-1.1591,-1.1591,-1.1591,-1.1591,-1.1591,-1.1591,-1.1591,-1.1591,-1.1622,-1.1809,-1.2027,-1.2151,-1.2428,-1.2692,-1.2935,-1.3106,-1.3341,-1.3554,-1.3642,-1.3704,-1.3752,-1.3797,-1.4136,-1.4588,-1.4872,-1.5249,-1.5737,-1.5805,-1.5805,-1.5805,-1.5805,-1.5805,-1.5805,-1.5805,-1.5805,-1.5788,-1.5711,-1.5608,-1.5583,-1.5394,-1.5232,-1.5437,-1.5309,-1.5155,-1.5095,-1.5069,-1.5172,-1.542,-1.5266,-1.5069,-1.4829,-1.441,-1.4127,-1.3982,-1.3787,-1.3769,-1.3974,-1.4114,-1.4267,-1.4396,-1.4455,-1.4485,-1.4485,-1.4485,-1.4485,-1.4485,-1.4872,-1.5352,-1.5375,-1.5483,-1.5085,-1.4902,-1.4848,-1.439,-1.4196,-1.4196,-1.4196,-1.4196,-1.4196,-1.4196,-1.398,-1.364,-1.4231,-1.4345,-1.4093,-1.4669,-1.4956,-1.4956,-1.5073,-1.5127,-1.5156,-1.5197,-1.5222,-1.5284,-1.5326,-1.5369,-1.5396,-1.5389,-1.5109,-1.4577,-1.4526,-1.4196,-1.3645,-1.3528,-1.3492,-1.3492,-1.3492,-1.3492,-1.3448,-1.3192,-1.287,-1.2533,-1.2193,-1.1919,-1.1635,-1.1591,-1.1591,-1.1591,-1.1591,-1.1591,-1.1591,-1.1591,-1.1591,-1.1591,-1.1622,-1.1685,-1.1833,-1.2081,-1.2359,-1.2758,-1.298,-1.3236,-1.3664,-1.3868,-1.4031,-1.432,-1.4416,-1.4608,-1.4761,-1.5223,-1.5634,-1.5771,-1.5805,-1.5805,-1.5805,-1.5805,-1.5805,-1.5797,-1.5771,-1.5762,-1.578,-1.5471,-1.5343,-1.5309,-1.524,-1.5137,-1.4975,-1.506,-1.5026,-1.4838,-1.4777,-1.4759,-1.4744,-1.4735,-1.4555,-1.4358,-1.4204,-1.3956,-1.3716,-1.3549,-1.367,-1.3761,-1.395,-1.4109,-1.4267,-1.4387,-1.4455,-1.4485,-1.4485,-1.4485,-1.4485,-1.4893,-1.5352,-1.5526,-1.5553,-1.5079,-1.4885,-1.4832,-1.439,-1.4196,-1.4196,-1.4196,-1.4196,-1.4196,-1.4196,-1.3927,-1.3532,-1.3782,-1.3663,-1.3266,-1.3528,-1.3624,-1.3673,-1.4094,-1.4334,-1.4339,-1.4651,-1.4689,-1.4622,-1.4877,-1.5149,-1.5403,-1.5389,-1.517,-1.4809,-1.4567,-1.4276,-1.3843,-1.3594,-1.3492,-1.3492,-1.3492,-1.3492,-1.3433,-1.298,-1.2636,-1.2477,-1.2171,-1.1882,-1.1599,-1.1591,-1.1591,-1.1591,-1.1591,-1.1591,-1.1591,-1.1591,-1.1591,-1.1591,-1.1591,-1.1622,-1.1707,-1.2043,-1.2328,-1.2586,-1.2964,-1.33,-1.3527,-1.3659,-1.38,-1.4032,-1.4404,-1.4672,-1.4883,-1.5215,-1.5531,-1.5754,-1.5805,-1.5805,-1.5805,-1.5805,-1.5805,-1.5771,-1.5617,-1.5514,-1.5668,-1.5454,-1.5326,-1.5489,-1.5189,-1.4949,-1.4983,-1.4975,-1.4829,-1.4751,-1.4708,-1.4598,-1.4316,-1.4316,-1.4238,-1.4093,-1.393,-1.375,-1.3528,-1.361,-1.3731,-1.3739,-1.389,-1.401,-1.4169,-1.4267,-1.4327,-1.4357,-1.4396,-1.4426,-1.4485,-1.4863,-1.5323,-1.5601,-1.5526,-1.5085,-1.4885,-1.4826,-1.439,-1.4196,-1.4196,-1.4196,-1.4196,-1.4196,-1.4191,-1.3927,-1.3534,-1.3475,-1.3261,-1.284,-1.2807,-1.2807,-1.2807,-1.3335,-1.3522,-1.3609,-1.393,-1.4043,-1.391,-1.418,-1.459,-1.502,-1.5082,-1.495,-1.4747,-1.4567,-1.4291,-1.3857,-1.3601,-1.3492,-1.3492,-1.3492,-1.3455,-1.3287,-1.2777,-1.246,-1.2302,-1.2018,-1.1787,-1.1599,-1.1591,-1.1591,-1.1591,-1.1591,-1.1591,-1.1591,-1.1591,-1.1591,-1.1591,-1.1591,-1.1591,-1.1628,-1.1956,-1.2275,-1.2492,-1.2926,-1.3298,-1.3576,-1.366,-1.3789,-1.405,-1.4401,-1.478,-1.498,-1.5196,-1.5445,-1.5719,-1.5805,-1.5805,-1.5805,-1.5805,-1.5805,-1.5745,-1.5471,-1.5437,-1.5634,-1.5309,-1.5206,-1.542,-1.4975,-1.4769,-1.4632,-1.4726,-1.4547,-1.4375,-1.4401,-1.4256,-1.4033,-1.3922,-1.3922,-1.381,-1.3785,-1.3566,-1.3511,-1.364,-1.37,-1.3739,-1.3799,-1.392,-1.4019,-1.4139,-1.4169,-1.4228,-1.4228,-1.4258,-1.4467,-1.4784,-1.5206,-1.5601,-1.5531,-1.5085,-1.4885,-1.4821,-1.4385,-1.4196,-1.4196,-1.4196,-1.4196,-1.4196,-1.4196,-1.3927,-1.355,-1.3475,-1.3267,-1.2872,-1.2807,-1.2807,-1.2807,-1.2856,-1.2856,-1.2926,-1.3071,-1.3219,-1.3209,-1.3355,-1.3786,-1.444,-1.4594,-1.4618,-1.4525,-1.454,-1.4225,-1.3536,-1.3536,-1.3492,-1.3492,-1.3492,-1.3353,-1.3023,-1.2674,-1.2361,-1.2069,-1.178,-1.1621,-1.1591,-1.1591,-1.1591,-1.1591,-1.1591,-1.1591,-1.1591,-1.1591,-1.1591,-1.1591,-1.1591,-1.1591,-1.1643,-1.1875,-1.2175,-1.2523,-1.2853,-1.3258,-1.3639,-1.3894,-1.4065,-1.4244,-1.4597,-1.4931,-1.5128,-1.534,-1.5569,-1.5761,-1.5805,-1.5805,-1.5805,-1.5805,-1.5797,-1.5711,-1.5368,-1.5386,-1.5506,-1.512,-1.4786,-1.4898,-1.4735,-1.4461,-1.4101,-1.4341,-1.4273,-1.3913,-1.3973,-1.4101,-1.3802,-1.3528,-1.3536,-1.3506,-1.3532,-1.348,-1.348,-1.3571,-1.3571,-1.361,-1.367,-1.3761,-1.386,-1.395,-1.401,-1.404,-1.404,-1.413,-1.4369,-1.4666,-1.4971,-1.5601,-1.5542,-1.5079,-1.4885,-1.4826,-1.439,-1.4196,-1.4196,-1.4196,-1.4196,-1.4196,-1.4196,-1.3927,-1.3561,-1.3475,-1.3217,-1.2786,-1.2807,-1.2807,-1.2807,-1.2807,-1.2807,-1.2796,-1.2678,-1.267,-1.2862,-1.3225,-1.3724,-1.4356,-1.4831,-1.4984,-1.4798,-1.4567,-1.4291,-1.3776,-1.3616,-1.3492,-1.3492,-1.3492,-1.3433,-1.3294,-1.2797,-1.2467,-1.2295,-1.1885,-1.1591,-1.1591,-1.1591,-1.1591,-1.1591,-1.1591,-1.1591,-1.1591,-1.1591,-1.1591,-1.1591,-1.1591,-1.1701,-1.1867,-1.1952,-1.2237,-1.2696,-1.295,-1.3191,-1.3549,-1.3637,-1.3775,-1.4008,-1.4325,-1.4685,-1.4963,-1.5319,-1.5584,-1.577,-1.5805,-1.5805,-1.5805,-1.5805,-1.5668,-1.5403,-1.5069,-1.5043,-1.5172,-1.4761,-1.4632,-1.5112,-1.4761,-1.4204,-1.4339,-1.4179,-1.4247,-1.3973,-1.4067,-1.4016,-1.3802,-1.3596,-1.3511,-1.348,-1.348,-1.348,-1.348,-1.348,-1.348,-1.3511,-1.3571,-1.3631,-1.37,-1.3761,-1.3821,-1.3881,-1.3941,-1.407,-1.4258,-1.4488,-1.4715,-1.5548,-1.5429,-1.5047,-1.4832,-1.4719,-1.4347,-1.4196,-1.4196,-1.4196,-1.4196,-1.4196,-1.4196,-1.3927,-1.355,-1.3475,-1.3206,-1.284,-1.2807,-1.2807,-1.2807,-1.2807,-1.2807,-1.2759,-1.242,-1.2387,-1.2537,-1.2617,-1.3137,-1.4019,-1.4181,-1.4193,-1.3971,-1.3829,-1.3509,-1.3184,-1.2975,-1.2826,-1.2856,-1.3046,-1.3099,-1.2942,-1.2651,-1.2426,-1.2292,-1.187,-1.1613,-1.1591,-1.1591,-1.1591,-1.1591,-1.1591,-1.1591,-1.1591,-1.1591,-1.1591,-1.1591,-1.1599,-1.1679,-1.1838,-1.1955,-1.2215,-1.2689,-1.2943,-1.3148,-1.3411,-1.3492,-1.3601,-1.379,-1.4109,-1.4461,-1.4864,-1.5185,-1.5505,-1.577,-1.5805,-1.5805,-1.5805,-1.5805,-1.5728,-1.5454,-1.5137,-1.5052,-1.5009,-1.4778,-1.4512,-1.4966,-1.4572,-1.4033,-1.4204,-1.3999,-1.3939,-1.3887,-1.3836,-1.3802,-1.3827,-1.3691,-1.3498,-1.348,-1.348,-1.348,-1.348,-1.348,-1.348,-1.348,-1.3541,-1.3541,-1.361,-1.364,-1.37,-1.3761,-1.3791,-1.3881,-1.398,-1.413,-1.4359,-1.5451,-1.5172,-1.4966,-1.4735,-1.4536,-1.4293,-1.4196,-1.4196,-1.4196,-1.4196,-1.4196,-1.4196,-1.3927,-1.3556,-1.3475,-1.3267,-1.2872,-1.2807,-1.2807,-1.2807,-1.2807,-1.2786,-1.2645,-1.23,-1.2204,-1.2166,-1.1828,-1.2203,-1.3264,-1.3039,-1.2469,-1.2696,-1.2692,-1.2298,-1.2034,-1.175,-1.1898,-1.2077,-1.2378,-1.2433,-1.2337,-1.2366,-1.2356,-1.2098,-1.1809,-1.1635,-1.1591,-1.1591,-1.1591,-1.1591,-1.1591,-1.1591,-1.1591,-1.1591,-1.1591,-1.1591,-1.1591,-1.1628,-1.1694,-1.1897,-1.2186,-1.2614,-1.2884,-1.3148,-1.3426,-1.3492,-1.3608,-1.379,-1.4029,-1.4353,-1.4828,-1.5141,-1.5426,-1.5735,-1.5805,-1.5805,-1.5805,-1.5805,-1.5737,-1.5651,-1.5429,-1.5172,-1.5095,-1.4752,-1.4453,-1.435,-1.4179,-1.3913,-1.381,-1.375,-1.354,-1.3532,-1.3631,-1.3639,-1.3682,-1.3656,-1.348,-1.348,-1.348,-1.348,-1.348,-1.348,-1.348,-1.348,-1.348,-1.348,-1.3511,-1.3549,-1.358,-1.358,-1.3601,-1.364,-1.3731,-1.392,-1.413,-1.5247,-1.5145,-1.4805,-1.4589,-1.4448,-1.4293,-1.4196,-1.4196,-1.4196,-1.4196,-1.4191,-1.4196,-1.3916,-1.3507,-1.347,-1.3267,-1.2905,-1.2807,-1.2807,-1.2807,-1.2807,-1.2591,-1.2337,-1.2164,-1.1935,-1.1706,-1.1903,-1.2283,-1.2662,-1.2881,-1.2796,-1.2512,-1.2408,-1.2176,-1.1789,-1.1632,-1.1929,-1.2224,-1.2003,-1.2345,-1.2854,-1.2423,-1.2269,-1.2368,-1.2007,-1.1762,-1.1628,-1.1591,-1.1591,-1.1591,-1.1591,-1.1591,-1.1591,-1.1591,-1.1591,-1.1591,-1.1599,-1.1709,-1.1867,-1.1945,-1.2259,-1.2804,-1.2943,-1.3148,-1.3455,-1.3492,-1.3608,-1.379,-1.4109,-1.4461,-1.4864,-1.5221,-1.5541,-1.5735,-1.5805,-1.5805,-1.5805,-1.5797,-1.5711,-1.5403,-1.5086,-1.4949,-1.4769,-1.4393,-1.411,-1.429,-1.4067,-1.375,-1.3716,-1.3622,-1.348,-1.348,-1.3515,-1.3498,-1.3498,-1.3498,-1.348,-1.348,-1.348,-1.348,-1.348,-1.348,-1.348,-1.348,-1.348,-1.348,-1.348,-1.3511,-1.348,-1.348,-1.3511,-1.3571,-1.37,-1.3851,-1.4019,-1.5076,-1.4872,-1.4598,-1.4427,-1.4379,-1.425,-1.4196,-1.4196,-1.4196,-1.4196,-1.4175,-1.4073,-1.383,-1.3491,-1.3362,-1.317,-1.284,-1.2807,-1.2807,-1.2737,-1.2657,-1.2451,-1.217,-1.2083,-1.198,-1.1824,-1.186,-1.2112,-1.2326,-1.254,-1.22,-1.1757,-1.1702,-1.1435,-1.0923,-1.0968,-1.1111,-1.1372,-1.1335,-1.17,-1.2241,-1.1975,-1.1794,-1.1778,-1.1509,-1.127,-1.1259,-1.1466,-1.1591,-1.1591,-1.1591,-1.1591,-1.1591,-1.1591,-1.1591,-1.1591,-1.1591,-1.1731,-1.1923,-1.2003,-1.231,-1.2848,-1.3009,-1.3177,-1.3411,-1.3492,-1.3608,-1.3928,-1.4217,-1.4569,-1.4999,-1.5399,-1.5655,-1.577,-1.5805,-1.5805,-1.5805,-1.5805,-1.5703,-1.548,-1.5283,-1.5069,-1.4932,-1.4341,-1.4204,-1.423,-1.3887,-1.3759,-1.3725,-1.3596,-1.348,-1.348,-1.348,-1.348,-1.348,-1.348,-1.348,-1.348,-1.348,-1.348,-1.348,-1.348,-1.348,-1.348,-1.348,-1.348,-1.348,-1.348,-1.348,-1.348,-1.348,-1.3541,-1.367,-1.3791,-1.395,-1.4866,-1.448,-1.4453,-1.4379,-1.4218,-1.4196,-1.4196,-1.4196,-1.4196,-1.4169,-1.4099,-1.3916,-1.3685,-1.3427,-1.3222,-1.2985,-1.2813,-1.2807,-1.2807,-1.27,-1.2554,-1.2291,-1.2116,-1.2029,-1.2009,-1.2003,-1.1564,-1.1736,-1.1946,-1.165,-1.1169,-1.0903,-1.0754,-1.0408,-1.0198,-1.0035,-0.9954,-1.0288,-1.0588,-1.0919,-1.1211,-1.1215,-1.116,-1.1086,-1.069,-1.0672,-1.0894,-1.1247,-1.1498,-1.1591,-1.1591,-1.1591,-1.1591,-1.1606,-1.1657,-1.1672,-1.1701,-1.1772,-1.1952,-1.2062,-1.228,-1.2811,-1.3001,-1.317,-1.3426,-1.3492,-1.3637,-1.4029,-1.4281,-1.4713,-1.5213,-1.562,-1.577,-1.5805,-1.5805,-1.5805,-1.5805,-1.5805,-1.5805,-1.5788,-1.5762,-1.5548,-1.5257,-1.4872,-1.4519,-1.417,-1.3827,-1.3617,-1.3631,-1.3532,-1.348,-1.348,-1.348,-1.348,-1.348,-1.348,-1.348,-1.348,-1.348,-1.348,-1.348,-1.348,-1.348,-1.348,-1.348,-1.348,-1.348,-1.348,-1.348,-1.348,-1.348,-1.3511,-1.3571,-1.3731,-1.389,-1.4571,-1.4464,-1.4342,-1.4239,-1.4202,-1.4196,-1.4196,-1.4196,-1.4191,-1.4078,-1.3922,-1.3836,-1.3572,-1.319,-1.3114,-1.298,-1.2829,-1.2807,-1.2807,-1.2732,-1.2527,-1.2285,-1.2089,-1.1887,-1.1711,-1.157,-1.1435,-1.1392,-1.1435,-1.1397,-1.1069,-1.0662,-1.0571,-1.0356,-0.9954,-0.9922,-1.018,-1.0438,-1.0293,-1.0582,-1.1082,-1.0852,-1.0699,-1.071,-1.0324,-1.0354,-1.0701,-1.0895,-1.1178,-1.1466,-1.1591,-1.1591,-1.1628,-1.1787,-1.1889,-1.1904,-1.1919,-1.1937,-1.204,-1.2266,-1.2441,-1.2667,-1.3126,-1.3418,-1.3462,-1.3492,-1.3666,-1.4065,-1.4389,-1.482,-1.547,-1.5726,-1.5805,-1.5805,-1.5805,-1.5805,-1.5805,-1.5805,-1.5805,-1.5754,-1.5566,-1.5317,-1.5197,-1.4641,-1.4298,-1.4076,-1.3836,-1.3532,-1.348,-1.348,-1.348,-1.348,-1.348,-1.348,-1.348,-1.348,-1.348,-1.348,-1.348,-1.348,-1.348,-1.348,-1.348,-1.348,-1.348,-1.348,-1.348,-1.348,-1.348,-1.348,-1.3511,-1.3541,-1.361,-1.3731,-1.386,-1.4416,-1.4363,-1.4245,-1.4196,-1.4196,-1.4196,-1.4196,-1.4169,-1.4062,-1.3949,-1.3787,-1.3604,-1.3335,-1.3104,-1.299,-1.2916,-1.284,-1.2807,-1.2807,-1.2711,-1.2522,-1.2285,-1.2089,-1.1811,-1.158,-1.1343,-1.1311,-1.1311,-1.1311,-1.1273,-1.1064,-1.0635,-1.0597,-1.0335,-0.9954,-0.9884,-1.003,-1.0218,-1.0105,-1.0211,-1.052,-1.0337,-0.9947,-0.9993,-0.978,-0.9901,-1.0345,-1.0674,-1.1083,-1.1466,-1.1591,-1.1591,-1.1643,-1.1853,-1.1981,-1.201,-1.2164,-1.231,-1.2463,-1.265,-1.2826,-1.295,-1.3323,-1.3426,-1.3492,-1.3492,-1.3637,-1.3956,-1.4317,-1.482,-1.5541,-1.5761,-1.5805,-1.5805,-1.5805,-1.5805,-1.5805,-1.5805,-1.5805,-1.578,-1.5643,-1.5429,-1.5103,-1.4615,-1.4281,-1.4136,-1.3768,-1.348,-1.348,-1.348,-1.348,-1.348,-1.348,-1.348,-1.348,-1.348,-1.348,-1.348,-1.348,-1.348,-1.348,-1.348,-1.348,-1.348,-1.348,-1.348,-1.348,-1.348,-1.348,-1.348,-1.3511,-1.358,-1.364,-1.37,-1.386,-1.4369,-1.4196,-1.4196,-1.4196,-1.4196,-1.4196,-1.4196,-1.4159,-1.3927,-1.3814,-1.369,-1.3292,-1.3125,-1.3012,-1.2861,-1.2824,-1.2807,-1.2807,-1.2807,-1.2727,-1.2447,-1.2278,-1.2056,-1.1758,-1.1532,-1.1321,-1.1311,-1.1311,-1.1311,-1.1278,-1.1053,-1.0672,-1.0597,-1.0335,-0.9986,-0.9884,-0.9922,-0.996,-0.9954,-0.9863,-0.9816,-0.9676,-0.94,-0.9282,-0.9323,-0.9684,-1.0218,-1.0604,-1.1021,-1.156,-1.1635,-1.1635,-1.1679,-1.1904,-1.2083,-1.2105,-1.2383,-1.2614,-1.2738,-1.2914,-1.3089,-1.3418,-1.3484,-1.3492,-1.3492,-1.3492,-1.3601,-1.3855,-1.4217,-1.4677,-1.5328,-1.5541,-1.5576,-1.5584,-1.562,-1.5726,-1.5647,-1.5655,-1.5726,-1.5805,-1.5728,-1.5574,-1.524,-1.4821,-1.4487,-1.4144,-1.3759,-1.348,-1.348,-1.348,-1.348,-1.348,-1.348,-1.348,-1.348,-1.348,-1.348,-1.348,-1.348,-1.348,-1.348,-1.348,-1.348,-1.348,-1.348,-1.348,-1.348,-1.348,-1.348,-1.348,-1.3511,-1.3571,-1.364,-1.37,-1.3851,-1.4229,-1.4196,-1.4196,-1.4196,-1.4196,-1.4196,-1.4191,-1.4148,-1.3911,-1.3712,-1.3502,-1.3227,-1.298,-1.2861,-1.2845,-1.2807,-1.2807,-1.2807,-1.2807,-1.2732,-1.2429,-1.2159,-1.204,-1.1677,-1.1386,-1.1327,-1.1311,-1.1311,-1.1311,-1.1284,-1.1064,-1.0699,-1.0597,-1.0351,-1.0034,-0.9884,-0.9884,-0.9884,-0.9884,-0.9836,-0.975,-0.9473,-0.9295,-0.9205,-0.9318,-0.9803,-1.0479,-1.0751,-1.1052,-1.1551,-1.1816,-1.1794,-1.1855,-1.2175,-1.2394,-1.2441,-1.2696,-1.2906,-1.2819,-1.2914,-1.3016,-1.3133,-1.3345,-1.3484,-1.3492,-1.3492,-1.3601,-1.3826,-1.4145,-1.4577,-1.4935,-1.5106,-1.4991,-1.4883,-1.507,-1.5319,-1.5089,-1.5275,-1.5611,-1.577,-1.5762,-1.5617,-1.5197,-1.4812,-1.4461,-1.4084,-1.3716,-1.3498,-1.348,-1.348,-1.348,-1.348,-1.348,-1.348,-1.348,-1.348,-1.348,-1.348,-1.348,-1.348,-1.348,-1.348,-1.348,-1.348,-1.348,-1.348,-1.348,-1.348,-1.348,-1.348,-1.3511,-1.3541,-1.3631,-1.37,-1.3941,-1.4196,-1.4196,-1.4196,-1.4196,-1.4196,-1.4191,-1.4121,-1.397,-1.3744,-1.3507,-1.327,-1.3039,-1.2921,-1.2829,-1.2807,-1.2807,-1.2807,-1.2807,-1.2807,-1.2716,-1.2462,-1.2197,-1.2073,-1.1671,-1.1439,-1.1343,-1.1311,-1.1311,-1.1311,-1.1311,-1.1096,-1.0839,-1.0667,-1.0415,-1.0159,-0.9986,-0.99,-0.9884,-0.9879,-0.9857,-0.9717,-0.9281,-0.9203,-0.9417,-0.9592,-1.0094,-1.0873,-1.1257,-1.1568,-1.1996,-1.2178,-1.2244,-1.238,-1.2519,-1.2667,-1.2616,-1.2972,-1.3199,-1.3053,-1.3192,-1.3265,-1.3287,-1.3418,-1.3477,-1.3492,-1.3528,-1.3608,-1.379,-1.4036,-1.4245,-1.4317,-1.4482,-1.4338,-1.4114,-1.4482,-1.4724,-1.4752,-1.5161,-1.5426,-1.5655,-1.5638,-1.5427,-1.5009,-1.4658,-1.4358,-1.4024,-1.3595,-1.3463,-1.339,-1.339,-1.3351,-1.348,-1.348,-1.348,-1.348,-1.348,-1.348,-1.348,-1.348,-1.348,-1.348,-1.348,-1.348,-1.348,-1.348,-1.348,-1.348,-1.348,-1.348,-1.348,-1.3511,-1.3541,-1.361,-1.3761,-1.398,-1.4196,-1.4196,-1.4196,-1.4164,-1.4121,-1.4121,-1.3976,-1.3739,-1.3502,-1.3297,-1.3093,-1.2877,-1.2824,-1.2807,-1.2807,-1.2807,-1.2807,-1.2807,-1.278,-1.2619,-1.2409,-1.2188,-1.2013,-1.1747,-1.1515,-1.1327,-1.1311,-1.1311,-1.1311,-1.1311,-1.1144,-1.086,-1.0651,-1.0436,-1.0207,-0.9986,-0.9895,-0.9884,-0.9879,-0.9793,-0.947,-0.9181,-0.9226,-0.975,-0.9883,-1.0433,-1.1494,-1.1787,-1.2061,-1.2374,-1.257,-1.2687,-1.2884,-1.3031,-1.295,-1.2782,-1.3184,-1.3397,-1.3389,-1.3448,-1.344,-1.344,-1.3477,-1.3492,-1.3492,-1.3492,-1.3499,-1.3601,-1.363,-1.3651,-1.3506,-1.3615,-1.3608,-1.3615,-1.3905,-1.4266,-1.4358,-1.4617,-1.4883,-1.5141,-1.5355,-1.5073,-1.4496,-1.4255,-1.39,-1.3043,-1.2644,-1.2905,-1.2864,-1.3078,-1.313,-1.339,-1.348,-1.348,-1.348,-1.348,-1.348,-1.348,-1.348,-1.348,-1.348,-1.348,-1.348,-1.348,-1.348,-1.348,-1.348,-1.348,-1.348,-1.348,-1.348,-1.3511,-1.358,-1.37,-1.3881,-1.4196,-1.4191,-1.4191,-1.4067,-1.3879,-1.3868,-1.3733,-1.3497,-1.327,-1.3136,-1.306,-1.2926,-1.2807,-1.2807,-1.2807,-1.2807,-1.2807,-1.2721,-1.2689,-1.2484,-1.2221,-1.1978,-1.1752,-1.1461,-1.1386,-1.1311,-1.1311,-1.1311,-1.1311,-1.1311,-1.1085,-1.0758,-1.0624,-1.0399,-1.0094,-0.997,-0.9884,-0.9884,-0.9884,-0.968,-0.9367,-0.9217,-0.9616,-1.0187,-1.0517,-1.1009,-1.2041,-1.2346,-1.2443,-1.256,-1.2799,-1.2777,-1.2731,-1.3155,-1.3199,-1.3155,-1.3236,-1.3375,-1.3228,-1.3353,-1.3492,-1.3492,-1.3492,-1.3492,-1.3411,-1.3339,-1.3229,-1.2753,-1.2783,-1.2739,-1.2629,-1.2666,-1.2783,-1.3076,-1.3397,-1.3542,-1.3644,-1.3998,-1.4302,-1.4266,-1.441,-1.4139,-1.3689,-1.3559,-1.3362,-1.2434,-1.1834,-1.212,-1.2474,-1.2773,-1.307,-1.3351,-1.348,-1.348,-1.348,-1.348,-1.348,-1.348,-1.348,-1.348,-1.348,-1.348,-1.348,-1.348,-1.348,-1.348,-1.348,-1.348,-1.348,-1.348,-1.348,-1.348,-1.3511,-1.3631,-1.3782,-1.3863,-1.3981,-1.3986,-1.3841,-1.3636,-1.3626,-1.3491,-1.3276,-1.3157,-1.3028,-1.2915,-1.2867,-1.2807,-1.2807,-1.2807,-1.2807,-1.278,-1.263,-1.2522,-1.2328,-1.2048,-1.1801,-1.1677,-1.1434,-1.1311,-1.1311,-1.1311,-1.1311,-1.1311,-1.1278,-1.1118,-1.0869,-1.0651,-1.0487,-1.011,-0.9986,-0.99,-0.9884,-0.9868,-0.982,-0.9631,-0.9547,-0.9884,-1.0814,-1.0905,-1.1606,-1.2387,-1.2607,-1.277,-1.2806,-1.2734,-1.2612,-1.2863,-1.3035,-1.2889,-1.2818,-1.2882,-1.3055,-1.3302,-1.339,-1.3433,-1.3492,-1.3455,-1.3346,-1.3119,-1.2973,-1.2746,-1.215,-1.2187,-1.2114,-1.1892,-1.1966,-1.1935,-1.2187,-1.2769,-1.2849,-1.2952,-1.3353,-1.3608,-1.3528,-1.3382,-1.3139,-1.2908,-1.2784,-1.2561,-1.188,-1.149,-1.1748,-1.229,-1.285,-1.3147,-1.345,-1.348,-1.348,-1.348,-1.348,-1.348,-1.348,-1.348,-1.348,-1.348,-1.348,-1.348,-1.348,-1.348,-1.348,-1.348,-1.348,-1.348,-1.348,-1.348,-1.348,-1.3511,-1.3601,-1.3923,-1.3545,-1.3642,-1.3712,-1.3599,-1.3389,-1.3389,-1.3243,-1.3028,-1.3012,-1.292,-1.2851,-1.2807,-1.2807,-1.2807,-1.2802,-1.277,-1.2651,-1.249,-1.2339,-1.2134,-1.1908,-1.1688,-1.1514,-1.137,-1.1311,-1.1311,-1.1311,-1.1311,-1.1311,-1.1284,-1.1182,-1.0982,-1.0699,-1.0514,-1.0283,-1.0056,-0.9884,-0.9884,-0.9884,-0.9868,-0.9766,-0.9637,-1.0117,-1.0677,-1.1135,-1.1575,-1.245,-1.2398,-1.2508,-1.2638,-1.2221,-1.2171,-1.2654,-1.2522,-1.2365,-1.2331,-1.2372,-1.2519,-1.2748,-1.2886,-1.3119,-1.3273,-1.3419,-1.3273,-1.2746,-1.2599,-1.2231,-1.1558,-1.1558,-1.1446,-1.1298,-1.1341,-1.1484,-1.1632,-1.1922,-1.204,-1.2224,-1.2622,-1.2696,-1.2432,-1.2311,-1.219,-1.2041,-1.1971,-1.1668,-1.1208,-1.1196,-1.1389,-1.2019,-1.2729,-1.3072,-1.3338,-1.348,-1.348,-1.348,-1.348,-1.348,-1.348,-1.348,-1.348,-1.348,-1.348,-1.348,-1.348,-1.348,-1.348,-1.348,-1.348,-1.348,-1.348,-1.348,-1.348,-1.3511,-1.3623,-1.4094,-1.3351,-1.3173,-1.34,-1.3351,-1.313,-1.3125,-1.3001,-1.2867,-1.2851,-1.2845,-1.2813,-1.2807,-1.2807,-1.2807,-1.2791,-1.2651,-1.2452,-1.2373,-1.2161,-1.1898,-1.1698,-1.152,-1.1413,-1.1337,-1.1311,-1.1311,-1.1311,-1.1311,-1.1295,-1.1252,-1.1134,-1.0982,-1.0751,-1.0525,-1.0288,-1.0056,-0.9895,-0.9884,-0.9884,-0.9788,-0.9723,-0.9704,-0.9975,-1.0377,-1.045,-1.0698,-1.1728,-1.1661,-1.1721,-1.199,-1.1632,-1.1669,-1.2003,-1.1855,-1.1781,-1.1744,-1.1744,-1.1818,-1.1855,-1.204,-1.2231,-1.2643,-1.301,-1.3119,-1.2526,-1.2526,-1.2003,-1.108,-1.0962,-1.0856,-1.0706,-1.0669,-1.1074,-1.1372,-1.1595,-1.1706,-1.1861,-1.1935,-1.1929,-1.1446,-1.1354,-1.153,-1.1591,-1.1669,-1.1149,-1.066,-1.0615,-1.0807,-1.1667,-1.2367,-1.2821,-1.3133,-1.339,-1.348,-1.348,-1.348,-1.348,-1.348,-1.348,-1.348,-1.348,-1.348,-1.348,-1.348,-1.348,-1.348,-1.348,-1.348,-1.348,-1.348,-1.348,-1.348,-1.3773,-1.4073,-1.4569,-1.3034,-1.291,-1.3051,-1.3034,-1.2888,-1.2894,-1.2894,-1.2818,-1.2807,-1.2807,-1.2807,-1.2807,-1.2807,-1.2807,-1.2797,-1.2641,-1.2414,-1.2242,-1.1984,-1.1741,-1.1558,-1.1402,-1.1316,-1.1311,-1.1311,-1.1311,-1.1311,-1.1311,-1.13,-1.1187,-1.1106,-1.0934,-1.0735,-1.0525,-1.0288,-1.0056,-0.9911,-0.9884,-0.9884,-0.982,-0.983,-0.9824,-1.0079,-1.0611,-1.0613,-1.0925,-1.152,-1.1243,-1.1372,-1.1372,-1.0993,-1.1105,-1.1403,-1.1298,-1.1186,-1.1149,-1.1149,-1.0999,-1.0925,-1.126,-1.1966,-1.2452,-1.2783,-1.2673,-1.2114,-1.1781,-1.1149,-1.055,-1.0406,-1.0406,-1.0368,-1.055,-1.0925,-1.1186,-1.1372,-1.1484,-1.1527,-1.1601,-1.1527,-1.126,-1.1254,-1.136,-1.1419,-1.1461,-1.0801,-1.0181,-1.0184,-1.041,-1.1453,-1.2194,-1.2726,-1.3124,-1.3414,-1.3549,-1.3579,-1.3523,-1.3489,-1.348,-1.348,-1.348,-1.348,-1.348,-1.348,-1.348,-1.348,-1.348,-1.348,-1.348,-1.348,-1.348,-1.348,-1.348,-1.3893,-1.4401,-1.4952,-1.2807,-1.2807,-1.2807,-1.2807,-1.2807,-1.2807,-1.2807,-1.2807,-1.2807,-1.2807,-1.2807,-1.2807,-1.2711,-1.2678,-1.2646,-1.2452,-1.2199,-1.2,-1.1811,-1.1612,-1.1396,-1.1316,-1.1311,-1.1311,-1.1311,-1.1311,-1.1311,-1.1311,-1.13,-1.1106,-1.1015,-1.0907,-1.0686,-1.0439,-1.0293,-1.0062,-0.9884,-0.9884,-0.9884,-0.9884,-0.9873,-0.9906,-0.9981,-1.0435,-1.0361,-1.0521,-1.0773,-1.0644,-1.0644,-1.0697,-1.055,-1.0438,-1.07,-1.0812,-1.0556,-1.055,-1.0513,-1.0293,-1.0293,-1.0775,-1.1589,-1.1855,-1.2231,-1.1966,-1.1484,-1.1037,-1.0663,-1.011,-1.0067,-1.0143,-1.0218,-1.055,-1.0812,-1.1074,-1.1186,-1.1267,-1.1267,-1.1267,-1.1229,-1.1117,-1.118,-1.1323,-1.1732,-1.1873,-1.1725,-1.1159,-1.1082,-1.135,-1.2025,-1.2603,-1.2862,-1.3252,-1.3532,-1.3599,-1.3673,-1.3605,-1.3515,-1.348,-1.348,-1.348,-1.348,-1.3498,-1.3498,-1.348,-1.348,-1.348,-1.348,-1.348,-1.348,-1.348,-1.348,-1.348,-1.3902,-1.441,-1.5021,-1.2807,-1.2807,-1.2807,-1.2807,-1.2807,-1.2807,-1.2807,-1.2807,-1.2807,-1.2807,-1.2807,-1.2807,-1.2635,-1.2501,-1.2479,-1.2237,-1.1892,-1.1763,-1.1623,-1.1396,-1.1343,-1.1311,-1.1311,-1.1311,-1.1311,-1.1311,-1.1311,-1.1311,-1.1305,-1.1106,-1.1004,-1.0853,-1.0595,-1.0309,-1.0266,-1.0046,-0.9889,-0.9884,-0.9884,-0.9884,-0.9884,-0.9884,-0.9954,-0.9997,-0.9968,-1.009,-1.0151,-1.009,-1.0101,-1.0121,-1.0105,-1.003,-1.0105,-1.0143,-1.0035,-1.0035,-0.9992,-0.996,-0.996,-1.0519,-1.085,-1.1105,-1.1558,-1.1484,-1.1037,-1.0738,-1.0513,-0.996,-0.9922,-1.0105,-1.0331,-1.0513,-1.0738,-1.0925,-1.1037,-1.1117,-1.1117,-1.1117,-1.1117,-1.1186,-1.1223,-1.1354,-1.1965,-1.2411,-1.2543,-1.2364,-1.2133,-1.2374,-1.2881,-1.3026,-1.3236,-1.3564,-1.3867,-1.3851,-1.387,-1.3673,-1.3549,-1.3506,-1.354,-1.3609,-1.3648,-1.3656,-1.3631,-1.3532,-1.348,-1.348,-1.348,-1.348,-1.348,-1.348,-1.348,-1.3571,-1.3992,-1.4469,-1.5079,-1.2807,-1.2807,-1.2807,-1.2807,-1.2807,-1.2807,-1.2807,-1.2807,-1.2807,-1.2807,-1.2807,-1.2807,-1.2635,-1.2479,-1.235,-1.2134,-1.1758,-1.1688,-1.1575,-1.1332,-1.1311,-1.1311,-1.1311,-1.1311,-1.1311,-1.1311,-1.1311,-1.1311,-1.13,-1.1101,-1.1004,-1.0869,-1.053,-1.0229,-1.0078,-0.9943,-0.9884,-0.9884,-0.9884,-0.9884,-0.9884,-0.9884,-0.9879,-0.9879,-0.9825,-0.983,-0.9868,-0.9803,-0.9841,-0.9873,-0.9884,-0.9884,-0.9884,-0.9884,-0.9884,-0.9884,-0.9884,-0.9884,-0.9916,-1.018,-1.0406,-1.07,-1.0925,-1.0999,-1.0812,-1.0363,-1.0105,-0.996,-0.9884,-1.0067,-1.0255,-1.0443,-1.0631,-1.085,-1.0962,-1.108,-1.1117,-1.1117,-1.1117,-1.126,-1.1372,-1.2254,-1.3005,-1.3468,-1.3663,-1.3523,-1.3317,-1.3458,-1.3852,-1.3622,-1.3655,-1.4015,-1.4298,-1.4192,-1.4101,-1.3999,-1.381,-1.3725,-1.3819,-1.3939,-1.3922,-1.387,-1.3845,-1.3845,-1.3665,-1.348,-1.348,-1.348,-1.348,-1.348,-1.3532,-1.3606,-1.3881,-1.4469,-1.5225,-1.2807,-1.2807,-1.2807,-1.2807,-1.2807,-1.2807,-1.2807,-1.2807,-1.2807,-1.2807,-1.2797,-1.2732,-1.2506,-1.2323,-1.2172,-1.1995,-1.1596,-1.1569,-1.1542,-1.1316,-1.1311,-1.1311,-1.1311,-1.1311,-1.1311,-1.1311,-1.1311,-1.1311,-1.1289,-1.1101,-1.0939,-1.0767,-1.0492,-1.0266,-1.0094,-1.0013,-0.9884,-0.9884,-0.9884,-0.9884,-0.9884,-0.9884,-0.9884,-0.9884,-0.9868,-0.9884,-0.9884,-0.9884,-0.9884,-0.9884,-0.9884,-0.9884,-0.9884,-0.9884,-0.9884,-0.9884,-0.9884,-0.9884,-0.9916,-0.9916,-1.0143,-1.04,-1.0481,-1.0481,-1.0438,-1.0143,-0.9997,-0.9884,-0.9884,-1.0035,-1.0218,-1.0406,-1.0594,-1.0775,-1.0962,-1.1074,-1.1117,-1.1117,-1.1117,-1.126,-1.1744,-1.2813,-1.3876,-1.4517,-1.4885,-1.4711,-1.4504,-1.4635,-1.4698,-1.4425,-1.4186,-1.453,-1.4696,-1.4591,-1.4495,-1.4418,-1.4213,-1.3956,-1.4084,-1.4281,-1.4204,-1.4161,-1.4144,-1.405,-1.3759,-1.3506,-1.3489,-1.348,-1.3523,-1.3622,-1.3699,-1.3739,-1.3826,-1.4474,-1.5331,-1.2759,-1.2759,-1.2807,-1.2807,-1.2807,-1.2807,-1.2807,-1.2807,-1.2807,-1.2802,-1.2727,-1.2511,-1.2301,-1.2078,-1.1822,-1.1573,-1.1391,-1.1348,-1.1332,-1.1316,-1.1311,-1.1311,-1.1311,-1.1311,-1.1311,-1.1311,-1.1311,-1.1305,-1.1278,-1.1171,-1.0945,-1.0662,-1.0498,-1.0331,-1.0207,-1.0046,-0.9906,-0.9884,-0.9884,-0.9884,-0.9884,-0.9884,-0.9884,-0.9884,-0.9884,-0.9884,-0.9884,-0.9884,-0.9884,-0.9884,-0.9884,-0.9884,-0.9884,-0.9884,-0.9884,-0.9884,-0.9884,-0.9884,-0.9884,-0.9884,-0.9884,-1.0067,-0.9997,-0.9916,-0.9954,-0.996,-0.9922,-0.9884,-0.9884,-1.0073,-1.0223,-1.0406,-1.0594,-1.0812,-1.0999,-1.1074,-1.1117,-1.1117,-1.1117,-1.1335,-1.1818,-1.2739,-1.3985,-1.482,-1.5363,-1.5411,-1.518,-1.5188,-1.52,-1.5066,-1.4965,-1.5117,-1.518,-1.4967,-1.4872,-1.4778,-1.4581,-1.4324,-1.4512,-1.4675,-1.4564,-1.447,-1.4418,-1.4238,-1.3785,-1.3605,-1.3682,-1.3673,-1.3648,-1.3742,-1.4021,-1.4056,-1.4149,-1.4687,-1.5409,-1.2165,-1.1722,-1.2268,-1.2613,-1.2807,-1.2807,-1.2807,-1.2807,-1.2807,-1.2737,-1.2506,-1.2447,-1.2161,-1.1801,-1.1725,-1.1504,-1.1386,-1.1311,-1.1316,-1.1311,-1.1311,-1.1311,-1.1311,-1.1311,-1.1311,-1.1311,-1.1311,-1.1311,-1.1305,-1.1193,-1.1106,-1.0896,-1.0581,-1.0431,-1.0272,-1.0046,-0.9927,-0.9884,-0.9884,-0.9884,-0.9884,-0.9884,-0.9884,-0.9884,-0.9884,-0.9884,-0.9884,-0.9884,-0.9884,-0.9884,-0.9884,-0.9884,-0.9884,-0.9884,-0.9884,-0.9884,-0.9884,-0.9884,-0.9884,-0.9884,-0.9884,-0.9884,-0.9884,-0.9884,-0.9884,-0.9884,-0.9884,-0.9884,-0.9922,-1.0035,-1.0223,-1.0406,-1.0594,-1.0812,-1.0999,-1.1074,-1.1117,-1.1117,-1.1155,-1.1595,-1.2077,-1.2989,-1.423,-1.4883,-1.539,-1.5655,-1.577,-1.5691,-1.5613,-1.5477,-1.5435,-1.5545,-1.5538,-1.5343,-1.5189,-1.5086,-1.4898,-1.4785,-1.4941,-1.506,-1.5009,-1.4906,-1.4752,-1.4435,-1.3999,-1.3887,-1.3939,-1.393,-1.3956,-1.4294,-1.4541,-1.4493,-1.4555,-1.5067,-1.5635,-1.1824,-1.1321,-1.2073,-1.2565,-1.2764,-1.2807,-1.2764,-1.2641,-1.2624,-1.2533,-1.2356,-1.2204,-1.1968,-1.1731,-1.1602,-1.1434,-1.1321,-1.1311,-1.1311,-1.1311,-1.1311,-1.1311,-1.1311,-1.1311,-1.1311,-1.1311,-1.1311,-1.1311,-1.13,-1.1295,-1.1198,-1.1122,-1.0785,-1.0549,-1.034,-1.0088,-0.99,-0.9884,-0.9884,-0.9884,-0.9884,-0.9884,-0.9884,-0.9884,-0.9884,-0.9884,-0.9884,-0.9884,-0.9884,-0.9884,-0.9884,-0.9884,-0.9884,-0.9884,-0.9884,-0.9884,-0.9884,-0.9884,-0.9884,-0.9884,-0.9884,-0.9884,-0.9884,-0.9884,-0.9884,-0.9884,-0.9884,-0.9884,-0.9916,-0.9992,-1.0218,-1.0406,-1.0594,-1.0812,-1.0962,-1.108,-1.1117,-1.1117,-1.1446,-1.1892,-1.2622,-1.3499,-1.4294,-1.4911,-1.539,-1.5655,-1.5805,-1.577,-1.5726,-1.5719,-1.5676,-1.5727,-1.5727,-1.5651,-1.5514,-1.5394,-1.53,-1.5232,-1.5352,-1.5437,-1.5386,-1.5189,-1.4889,-1.4564,-1.4221,-1.4179,-1.417,-1.4298,-1.4425,-1.4748,-1.5037,-1.5123,-1.5118,-1.5277,-1.5927,-1.1477,-1.1077,-1.2024,-1.2549,-1.2732,-1.2764,-1.2592,-1.2393,-1.235,-1.2344,-1.2248,-1.1903,-1.172,-1.1557,-1.1429,-1.1359,-1.1311,-1.1311,-1.1311,-1.1311,-1.1311,-1.1311,-1.1311,-1.1311,-1.1311,-1.1311,-1.13,-1.1278,-1.1262,-1.1214,-1.1171,-1.1214,-1.0823,-1.0522,-1.0324,-1.0056,-0.9889,-0.9884,-0.9884,-0.9884,-0.9884,-0.9884,-0.9884,-0.9884,-0.9884,-0.9884,-0.9884,-0.9884,-0.9884,-0.9884,-0.9884,-0.9884,-0.9884,-0.9884,-0.9884,-0.9884,-0.9884,-0.9884,-0.9884,-0.9884,-0.9884,-0.9884,-0.9884,-0.9884,-0.9884,-0.9884,-0.9884,-0.9884,-0.9922,-0.9992,-1.0143,-1.0368,-1.0594,-1.0781,-1.0931,-1.1043,-1.1117,-1.1192,-1.1484,-1.2003,-1.2696,-1.3608,-1.441,-1.5026,-1.5461,-1.5726,-1.5805,-1.5805,-1.5805,-1.5805,-1.5805,-1.5805,-1.5797,-1.578,-1.5745,-1.566,-1.5711,-1.5728,-1.5728,-1.572,-1.5625,-1.5334,-1.4975,-1.4692,-1.4435,-1.4401,-1.441,-1.4521,-1.4758,-1.5149,-1.5433,-1.5716,-1.5795,-1.5815,-1.6266,-0.9805,-0.985,-1.1629,-1.2426,-1.2511,-1.2495,-1.2361,-1.217,-1.1941,-1.1887,-1.1849,-1.1747,-1.1557,-1.1402,-1.1354,-1.1311,-1.1311,-1.1311,-1.1311,-1.1311,-1.1311,-1.1311,-1.1311,-1.1311,-1.1311,-1.1311,-1.1289,-1.1235,-1.1112,-1.1036,-1.0896,-1.0638,-1.0519,-1.049,-1.0174,-0.9922,-0.9889,-0.9884,-0.9884,-0.9884,-0.9884,-0.9884,-0.9884,-0.9884,-0.9884,-0.9884,-0.9884,-0.9884,-0.9884,-0.9884,-0.9884,-0.9884,-0.9884,-0.9884,-0.9884,-0.9884,-0.9884,-0.9884,-0.9884,-0.9884,-0.9884,-0.9884,-0.9884,-0.9884,-0.9884,-0.9884,-0.9884,-0.9884,-0.9922,-0.9992,-1.0105,-1.0331,-1.0556,-1.0743,-1.0931,-1.1043,-1.1117,-1.1298,-1.1484,-1.2144,-1.2806,-1.3608,-1.4446,-1.5034,-1.547,-1.5691,-1.577,-1.5805,-1.5805,-1.5805,-1.5805,-1.5805,-1.5805,-1.5805,-1.5805,-1.5805,-1.5805,-1.5805,-1.578,-1.5788,-1.5805,-1.5514,-1.5189,-1.4915,-1.4701,-1.4709,-1.4709,-1.4709,-1.4973,-1.5452,-1.5729,-1.5937,-1.6387,-1.6498,-1.6955,-0.8871,-0.8954,-1.0838,-1.1902,-1.2168,-1.2255,-1.2113,-1.1943,-1.1752,-1.1639,-1.1509,-1.1537,-1.1423,-1.1311,-1.1311,-1.1311,-1.1311,-1.1311,-1.1311,-1.1311,-1.1311,-1.1311,-1.1311,-1.13,-1.1311,-1.13,-1.116,-1.1069,-1.0875,-1.0934,-1.081,-1.0487,-1.0506,-1.0404,-1.0083,-0.9959,-0.9884,-0.9884,-0.9884,-0.9884,-0.9884,-0.9884,-0.9884,-0.9884,-0.9884,-0.9884,-0.9884,-0.9884,-0.9884,-0.9884,-0.9884,-0.9884,-0.9884,-0.9884,-0.9884,-0.9884,-0.9884,-0.9884,-0.9884,-0.9884,-0.9884,-0.9884,-0.9884,-0.9884,-0.9884,-0.9884,-0.9884,-0.9884,-0.9884,-0.996,-1.0067,-1.0255,-1.0443,-1.0631,-1.0893,-1.108,-1.1117,-1.1192,-1.1706,-1.2489,-1.3142,-1.3709,-1.4517,-1.5177,-1.5576,-1.5726,-1.5805,-1.5805,-1.5805,-1.5805,-1.5805,-1.5805,-1.5805,-1.5805,-1.5805,-1.5805,-1.5805,-1.5805,-1.5805,-1.5805,-1.5788,-1.5634,-1.5411,-1.5163,-1.5043,-1.5103,-1.5095,-1.5035,-1.5317,-1.5783,-1.6009,-1.6158,-1.6612,-1.7097,-1.7507,-0.8312,-0.8368,-0.9901,-1.1052,-1.1775,-1.1815,-1.1735,-1.1632,-1.165,-1.1493,-1.1348,-1.1332,-1.1311,-1.1311,-1.1311,-1.1311,-1.1311,-1.1311,-1.1311,-1.1311,-1.1311,-1.1311,-1.1289,-1.1268,-1.1193,-1.1096,-1.1009,-1.081,-1.0565,-1.0697,-1.0702,-1.0549,-1.049,-1.0466,-1.0245,-1.0062,-0.9884,-0.9884,-0.9884,-0.9884,-0.9884,-0.9884,-0.9884,-0.9884,-0.9884,-0.9884,-0.9884,-0.9884,-0.9884,-0.9884,-0.9884,-0.9884,-0.9884,-0.9884,-0.9884,-0.9884,-0.9884,-0.9884,-0.9884,-0.9884,-0.9884,-0.9884,-0.9884,-0.9884,-0.9884,-0.9884,-0.9884,-0.9884,-0.9884,-0.9922,-1.003,-1.0218,-1.0406,-1.0588,-1.085,-1.1117,-1.1117,-1.1155,-1.1861,-1.268,-1.3288,-1.3861,-1.4589,-1.5248,-1.5584,-1.5735,-1.5805,-1.5805,-1.5805,-1.5805,-1.5805,-1.5805,-1.5805,-1.5805,-1.5805,-1.5805,-1.5805,-1.5805,-1.5805,-1.5805,-1.5788,-1.5694,-1.5583,-1.5446,-1.5377,-1.5334,-1.5377,-1.5352,-1.5731,-1.6,-1.6167,-1.6307,-1.6821,-1.7295,-1.7833,-0.7605,-0.8746,-0.9146,-0.9974,-1.1036,-1.0825,-1.0825,-1.1135,-1.1293,-1.1343,-1.1235,-1.1267,-1.1311,-1.1311,-1.1311,-1.1311,-1.1311,-1.1311,-1.1311,-1.1311,-1.1311,-1.1311,-1.1278,-1.1198,-1.093,-1.0812,-1.0772,-1.0549,-1.0394,-1.0428,-1.0326,-1.0121,-1.0347,-1.0266,-1.0002,-0.9889,-0.9911,-0.99,-0.9884,-0.9884,-0.9884,-0.9884,-0.9884,-0.9884,-0.9884,-0.9884,-0.9884,-0.9884,-0.9884,-0.9884,-0.9884,-0.9884,-0.9884,-0.9884,-0.9884,-0.9884,-0.9884,-0.9884,-0.9884,-0.9884,-0.9884,-0.9884,-0.9884,-0.9884,-0.9884,-0.9884,-0.9884,-0.9884,-0.9884,-0.9884,-0.9992,-1.0255,-1.0481,-1.0625,-1.085,-1.1037,-1.1117,-1.1223,-1.1632,-1.2445,-1.3215,-1.3934,-1.4804,-1.5319,-1.5691,-1.5805,-1.5805,-1.5805,-1.5805,-1.5805,-1.5805,-1.5805,-1.5805,-1.5805,-1.5805,-1.5805,-1.5805,-1.5805,-1.5805,-1.5805,-1.5805,-1.5805,-1.5703,-1.5591,-1.548,-1.5403,-1.5463,-1.5574,-1.5704,-1.5922,-1.6149,-1.6447,-1.6925,-1.7398,-1.7842]}]]